[[{"header":{"parameterUnit":"m.s-1","parameterCategory":1,"la1":31.0,"la2":29.5877,"lo1":-88.7671,"lo2":-86.6584,"dy":0.0162,"dx":0.0185,"nx":115,"ny":88,"refTime":"2023-03-27T06:00:00:Z","depth":0,"parameterNumber":2,"parameterNumberName":"U-component_of_WINDS"},"data":[0.0,0.0,0.0,0.0,0.0,0.0,0.0,0.0,0.0,0.0,0.0,0.0,0.0,0.0,0.0,0.0,0.0,0.0,0.0,0.0,0.0,0.0,0.0,0.0,0.0,0.0,0.0,0.0,0.0,0.0,0.0,0.0,0.0,0.0,0.0,0.0,0.0,0.0,0.0,0.0,0.0,0.0,0.0,0.0,0.0,0.0,0.0,0.0,0.0,0.0,0.0,0.0,0.0,0.0,0.0,0.0,0.0,0.0,0.0,0.0,0.0,0.0,0.0,0.0,0.0,0.0,0.0,0.0,0.0,0.0,0.0,0.0,0.0,0.0,0.0,0.0,0.0,0.0,0.0,0.0,0.0,0.0,0.0,0.0,0.0,0.0,0.0,0.0,0.0,0.0,0.0,0.0,0.0,0.0,0.0,0.0,0.0,0.0,0.0,0.0,0.0,0.0,0.0,0.0,0.0,0.0,0.0,0.0,0.0,0.0,0.0,0.0,0.0,0.0,0.0,0.0,0.0,0.0,0.0,0.0,0.0,0.0,0.0,0.0,0.0,0.0,0.0,0.0,0.0,0.0,0.0,0.0,0.0,0.0,0.0,0.0,0.0,0.0,0.0,0.0,0.0,0.0,0.0,0.0,0.0,0.0,0.0,0.0,0.0,0.0,0.0,0.0,0.0,0.0,0.0,0.0,0.0,0.0,0.0,0.0,0.0,0.0,0.0,0.0,0.0,0.0,0.0,0.0,0.0,0.0,0.0,0.0,0.0,0.0,0.0,0.0,0.0,0.0,0.0,0.0,0.0,0.0,0.0,0.0,0.0,0.0,0.0,0.0,0.0,0.0,0.0,0.0,0.0,0.0,0.0,0.0,0.0,0.0,0.0,0.0,0.0,0.0,0.0,0.0,0.0,0.0,0.0,0.0,0.0,0.0,0.0,0.0,0.0,0.0,0.0,0.0,0.0,0.0,0.0,0.0,0.0,0.0,0.0,0.0,0.0,0.0,0.0,0.0,0.0,0.0,0.0,0.0,0.0,0.0,0.0,0.0,0.0,0.0,0.0,0.0,0.0,0.0,0.0,0.0,0.0,0.0,0.0,0.0,0.0,0.0,0.0,0.0,0.0,0.0,0.0,0.0,0.0,0.0,0.0,0.0,0.0,0.0,0.0,0.0,0.0,0.0,0.0,0.0,0.0,0.0,0.0,0.0,0.0,0.0,0.0,0.0,0.0,0.0,0.0,0.0,0.0,0.0,0.0,0.0,0.0,0.0,0.0,0.0,0.0,0.0,0.0,0.0,0.0,0.0,0.0,0.0,0.0,0.0,0.0,0.0,0.0,0.0,0.0,0.0,0.0,0.0,0.0,0.0,0.0,0.0,0.0,0.0,0.0,0.0,0.0,0.0,0.0,0.0,0.0,0.0,0.0,0.0,0.0,0.0,0.0,0.0,0.0,0.0,0.0,0.0,0.0,0.0,0.0,0.0,0.0,0.0,0.0,0.0,0.0,0.0,0.0,0.0,0.0,0.0,0.0,0.0,0.0,0.0,0.0,0.0,0.0,0.0,0.0,0.0,0.0,0.0,0.0,0.0,0.0,0.0,0.0,0.0,0.0,0.0,0.0,0.0,0.0,0.0,0.0,0.0,0.0,0.0,0.0,0.0,0.0,0.0,0.0,0.0,0.0,0.0,0.0,0.0,0.0,0.0,0.0,0.0,0.0,0.0,0.0,0.0,0.0,0.0,0.0,0.0,0.0,0.0,0.0,0.0,0.0,0.0,0.0,0.0,0.0,0.0,0.0,0.0,0.0,0.0,0.0,0.0,0.0,0.0,0.0,0.0,0.0,0.0,0.0,0.0,0.0,0.0,0.0,0.0,0.0,0.0,0.0,0.0,0.0,0.0,0.0,0.0,0.0,0.0,0.0,0.0,0.0,0.0,0.0,0.0,0.0,0.0,0.0,0.0,0.0,0.0,0.0,0.0,0.0,0.0,0.0,0.0,0.0,0.0,0.0,0.0,0.0,0.0,0.0,0.0,0.0,0.0,0.0,0.0,0.0,0.0,0.0,0.0,0.0,0.0,0.0,0.0,0.0,0.0,0.0,0.0,0.0,0.0,0.0,0.0,0.0,0.0,0.0,0.0,0.0,0.0,0.0,0.0,0.0,0.0,0.0,0.0,0.0,0.0,0.0,0.0,0.0,0.0,0.0,0.0,0.0,0.0,0.0,0.0,0.0,0.0,0.0,0.0,0.0,0.0,0.0,0.0,0.0,0.0,0.0,0.0,0.0,0.0,0.0,0.0,0.0,0.0,0.0,0.0,0.0,0.0,0.0,0.0,0.0,0.0,0.0,0.0,0.0,0.0,0.0,0.0,0.0,0.0,0.0,0.0,0.0,0.0,0.0,0.0,0.0,0.0,0.0,0.0,0.0,0.0,0.0,0.0,0.0,0.0,0.0,0.0,0.0,0.0,0.0,0.0,0.0,0.0,0.0,0.0,0.0,0.0,0.0,0.0,0.0,0.0,0.0,0.0,0.0,0.0,0.0,0.0,0.0,0.0,0.0,0.0,0.0,0.0,0.0,0.0,0.0,0.0,0.0,0.0,0.0,0.0,0.0,0.0,0.0,0.0,0.0,0.0,0.0,0.0,0.0,0.0,0.0,0.0,0.0,0.0,0.0,0.0,0.0,0.0,0.0,0.0,0.0,0.0,0.0,0.0,0.0,0.0,0.0,0.0,0.0,0.0,0.0,0.0,0.0,0.0,0.0,0.0,0.0,0.0,0.0,0.0,0.0,0.0,0.0,0.0,0.0,0.0,0.0,0.0,0.0,0.0,0.0,0.0,0.0,0.0,0.0,0.0,0.0,0.0,0.0,0.0,0.0,0.0,0.0,0.0,0.0,0.0,0.0,0.0,0.0,0.0,0.0,0.0,0.0,0.0,0.0,0.0,0.0,0.0,0.0,0.0,0.0,0.0,0.0,0.0,0.0,0.0,0.0,0.0,0.0,0.0,0.0,0.0,0.0,0.0,0.0,0.0,0.0,0.0,0.0,0.0,0.0,0.0,0.0,0.0,0.0,0.0,0.0,0.0,0.0,0.0,0.0,0.0,0.0,0.0,0.0,0.0,0.0,0.0,0.0,0.0,0.0,0.0,0.0,0.0,0.0,0.0,0.0,0.0,0.0,0.0,0.0,0.0,0.0,0.0,0.0,0.0,0.0,0.0,0.0,0.0,0.0,0.0,0.0,0.0,0.0,0.0,0.0,0.0,0.0,0.0,0.0,0.0,0.0,0.0,0.0,0.0,0.0,0.0,0.0,0.0,0.0,0.0,0.0,0.0,0.0,0.0,0.0,0.0,0.0,0.0,0.0,0.0,0.0,0.0,0.0,0.0,0.0,0.0,0.0,0.0,0.0,0.0,0.0,0.0,0.0,0.0,0.0,0.0,0.0,0.0,0.0,0.0,0.0,0.0,0.0,0.0,0.0,0.0,0.0,0.0,0.0,0.0,0.0,0.0,0.0,0.0,0.0,0.0,0.0,0.0,0.0,0.0,0.0,0.0,0.0,0.0,0.0,0.0,0.0,0.0,0.0,0.0,0.0,0.0,0.0,0.0,0.0,0.0,0.0,0.0,0.0,0.0,0.0,0.0,0.0,0.0,0.0,0.0,0.0,0.0,0.0,0.0,0.0,0.0,0.0,0.0,0.0,0.0,0.0,0.0,0.0,0.0,0.0,0.0,0.0,0.0,0.0,0.0,0.0,0.0,0.0,0.0,0.0,0.0,0.0,0.0,0.0,0.0,0.0,0.0,0.0,0.0,0.0,0.0,0.0,0.0,0.0,0.0,0.0,0.0,0.0,0.0,0.0,0.0,0.0,0.0,0.0,0.0,0.0,0.0,0.0,0.0,0.0,0.0,0.0,0.0,0.0,0.0,0.0,0.0,0.0,0.0,0.0,0.0,0.0,0.0,0.0,0.0,0.0,0.0,0.0,0.0,0.0,0.0,0.0,0.0,0.0,0.0,0.0,0.0,0.0,0.0,0.0,0.0,0.0,0.0,0.0,0.0,0.0,0.0,0.0,0.0,0.0,0.0,0.0,0.0,0.0,0.0,0.0,0.0,0.0,0.0,0.0,0.0,0.0,0.0,0.0,0.0,0.0,0.0,0.0,0.0,0.0,0.0,0.0,0.0,0.0,0.0,0.0,0.0,0.0,0.0,0.0,0.0,0.0,0.0,0.0,0.0,0.0,0.0,0.0,0.0,0.0,0.0,0.0,0.0,0.0,0.0,4.905,0.0,0.0,0.0,0.0,0.0,0.0,0.0,0.0,0.0,0.0,0.0,0.0,0.0,0.0,0.0,0.0,0.0,0.0,0.0,0.0,0.0,0.0,0.0,0.0,0.0,0.0,0.0,0.0,0.0,0.0,0.0,0.0,0.0,0.0,0.0,0.0,0.0,0.0,0.0,0.0,0.0,0.0,0.0,0.0,0.0,0.0,0.0,0.0,0.0,0.0,0.0,0.0,0.0,0.0,0.0,0.0,0.0,0.0,0.0,0.0,0.0,0.0,0.0,0.0,0.0,0.0,0.0,0.0,0.0,0.0,0.0,0.0,0.0,0.0,0.0,0.0,0.0,0.0,0.0,0.0,0.0,0.0,0.0,0.0,0.0,0.0,0.0,0.0,0.0,0.0,0.0,0.0,0.0,0.0,0.0,0.0,0.0,0.0,0.0,0.0,0.0,0.0,0.0,0.0,0.0,0.0,0.0,0.0,0.0,0.0,5.0476,5.0017,4.9653,4.9228,4.8702,0.0,0.0,0.0,0.0,0.0,0.0,0.0,0.0,0.0,0.0,0.0,0.0,0.0,0.0,0.0,0.0,0.0,0.0,0.0,0.0,0.0,0.0,0.0,0.0,0.0,0.0,0.0,0.0,0.0,0.0,0.0,0.0,0.0,0.0,0.0,0.0,0.0,0.0,0.0,0.0,0.0,0.0,0.0,0.0,0.0,0.0,0.0,0.0,0.0,0.0,0.0,0.0,0.0,0.0,0.0,0.0,0.0,0.0,0.0,0.0,0.0,0.0,0.0,0.0,0.0,0.0,0.0,0.0,0.0,0.0,0.0,0.0,0.0,0.0,0.0,0.0,0.0,0.0,0.0,0.0,0.0,0.0,0.0,0.0,0.0,0.0,0.0,0.0,0.0,0.0,0.0,0.0,0.0,0.0,0.0,0.0,0.0,0.0,0.0,0.0,0.0,0.0,0.0,0.0,0.0,0.0,0.0,0.0,0.0,0.0,0.0,0.0,5.0025,4.9713,4.9009,0.0,0.0,0.0,0.0,0.0,0.0,0.0,0.0,0.0,0.0,0.0,0.0,0.0,0.0,0.0,0.0,0.0,0.0,0.0,0.0,0.0,0.0,0.0,0.0,0.0,0.0,0.0,0.0,0.0,0.0,0.0,0.0,0.0,0.0,0.0,0.0,0.0,0.0,0.0,0.0,0.0,0.0,0.0,0.0,0.0,0.0,0.0,0.0,0.0,0.0,0.0,0.0,0.0,0.0,0.0,0.0,0.0,0.0,0.0,0.0,0.0,0.0,0.0,0.0,0.0,0.0,0.0,0.0,0.0,0.0,0.0,0.0,0.0,0.0,0.0,0.0,0.0,0.0,0.0,0.0,0.0,0.0,0.0,0.0,0.0,0.0,0.0,0.0,0.0,0.0,0.0,0.0,0.0,0.0,0.0,0.0,0.0,0.0,0.0,0.0,0.0,0.0,0.0,0.0,0.0,0.0,0.0,0.0,0.0,0.0,5.1039,5.1737,5.1739,0.0,5.1546,0.0,0.0,0.0,0.0,0.0,0.0,0.0,0.0,0.0,0.0,0.0,0.0,0.0,0.0,0.0,0.0,0.0,0.0,0.0,0.0,0.0,0.0,0.0,0.0,0.0,0.0,0.0,0.0,0.0,0.0,0.0,0.0,0.0,0.0,0.0,0.0,0.0,0.0,0.0,0.0,0.0,0.0,0.0,0.0,0.0,0.0,0.0,0.0,0.0,0.0,0.0,0.0,0.0,0.0,0.0,0.0,0.0,0.0,0.0,0.0,0.0,0.0,0.0,0.0,0.0,0.0,0.0,0.0,0.0,0.0,0.0,0.0,0.0,0.0,0.0,0.0,0.0,0.0,0.0,0.0,0.0,0.0,0.0,0.0,0.0,0.0,0.0,0.0,0.0,0.0,0.0,0.0,0.0,0.0,0.0,0.0,0.0,0.0,0.0,0.0,0.0,0.0,0.0,0.0,0.0,0.0,0.0,0.0,0.0,0.0,5.088,5.1241,5.1226,5.0998,0.0,0.0,0.0,0.0,0.0,0.0,0.0,0.0,0.0,0.0,0.0,0.0,0.0,0.0,0.0,0.0,0.0,0.0,0.0,0.0,0.0,0.0,0.0,0.0,0.0,0.0,0.0,0.0,0.0,0.0,0.0,0.0,0.0,0.0,0.0,0.0,0.0,0.0,0.0,0.0,0.0,0.0,0.0,0.0,0.0,0.0,0.0,0.0,0.0,0.0,0.0,0.0,0.0,0.0,0.0,0.0,0.0,0.0,0.0,0.0,0.0,0.0,0.0,0.0,0.0,0.0,0.0,0.0,0.0,0.0,0.0,0.0,0.0,0.0,0.0,0.0,0.0,0.0,0.0,0.0,0.0,0.0,0.0,0.0,0.0,0.0,0.0,0.0,0.0,0.0,0.0,0.0,0.0,0.0,0.0,0.0,0.0,0.0,0.0,0.0,0.0,0.0,0.0,0.0,0.0,0.0,0.0,0.0,0.0,0.0,5.1218,5.1105,5.1065,5.064,5.0105,4.9489,0.0,0.0,0.0,0.0,0.0,0.0,0.0,0.0,0.0,0.0,0.0,0.0,0.0,0.0,0.0,0.0,0.0,0.0,0.0,0.0,0.0,0.0,0.0,0.0,0.0,0.0,0.0,0.0,0.0,0.0,0.0,0.0,0.0,0.0,0.0,0.0,0.0,0.0,0.0,0.0,0.0,0.0,0.0,0.0,0.0,0.0,0.0,0.0,0.0,0.0,0.0,0.0,0.0,0.0,0.0,0.0,0.0,0.0,0.0,0.0,0.0,0.0,0.0,0.0,0.0,0.0,0.0,0.0,0.0,0.0,0.0,0.0,0.0,0.0,0.0,0.0,0.0,0.0,0.0,0.0,0.0,0.0,0.0,0.0,0.0,0.0,0.0,0.0,0.0,0.0,0.0,0.0,0.0,0.0,0.0,0.0,0.0,0.0,0.0,0.0,0.0,0.0,0.0,0.0,0.0,0.0,0.0,0.0,5.3045,5.2393,5.2011,5.1931,5.0467,4.9579,0.0,0.0,0.0,0.0,0.0,0.0,0.0,0.0,0.0,0.0,0.0,0.0,0.0,0.0,0.0,0.0,0.0,0.0,0.0,0.0,0.0,0.0,0.0,0.0,0.0,0.0,0.0,0.0,0.0,0.0,0.0,0.0,0.0,0.0,0.0,0.0,0.0,0.0,0.0,0.0,0.0,0.0,0.0,0.0,0.0,0.0,0.0,0.0,0.0,0.0,0.0,0.0,0.0,0.0,0.0,0.0,0.0,0.0,0.0,0.0,0.0,0.0,0.0,0.0,0.0,0.0,0.0,0.0,0.0,0.0,0.0,0.0,0.0,0.0,0.0,0.0,0.0,0.0,0.0,0.0,0.0,0.0,0.0,0.0,0.0,0.0,0.0,0.0,0.0,0.0,0.0,0.0,0.0,0.0,0.0,0.0,0.0,0.0,0.0,0.0,0.0,0.0,0.0,0.0,0.0,0.0,0.0,0.0,0.0,5.1577,5.0792,5.0638,5.1114,4.9592,4.8923,0.0,0.0,0.0,0.0,0.0,0.0,0.0,0.0,0.0,0.0,0.0,0.0,0.0,0.0,0.0,0.0,0.0,0.0,0.0,0.0,0.0,0.0,0.0,0.0,0.0,0.0,0.0,0.0,0.0,0.0,0.0,0.0,0.0,0.0,0.0,0.0,0.0,0.0,0.0,0.0,0.0,0.0,0.0,0.0,0.0,0.0,0.0,0.0,0.0,0.0,0.0,0.0,0.0,0.0,0.0,0.0,0.0,0.0,0.0,0.0,0.0,0.0,0.0,0.0,0.0,0.0,0.0,0.0,0.0,0.0,0.0,0.0,0.0,0.0,0.0,0.0,0.0,0.0,0.0,0.0,0.0,0.0,0.0,0.0,0.0,0.0,0.0,0.0,0.0,0.0,0.0,0.0,0.0,0.0,0.0,0.0,0.0,0.0,0.0,0.0,0.0,0.0,0.0,0.0,0.0,0.0,0.0,0.0,0.0,5.1112,0.0,5.0139,5.0626,4.9352,4.8649,0.0,0.0,0.0,0.0,0.0,0.0,0.0,0.0,0.0,0.0,0.0,0.0,0.0,0.0,0.0,0.0,0.0,0.0,0.0,0.0,0.0,0.0,0.0,0.0,0.0,0.0,0.0,0.0,0.0,0.0,0.0,0.0,0.0,0.0,0.0,0.0,0.0,0.0,0.0,0.0,0.0,0.0,0.0,0.0,0.0,0.0,0.0,0.0,0.0,0.0,0.0,0.0,0.0,0.0,0.0,0.0,0.0,0.0,0.0,0.0,0.0,0.0,0.0,0.0,0.0,0.0,0.0,0.0,0.0,0.0,0.0,0.0,0.0,0.0,0.0,0.0,0.0,0.0,0.0,0.0,0.0,0.0,0.0,0.0,0.0,0.0,0.0,0.0,0.0,0.0,0.0,0.0,0.0,0.0,0.0,0.0,0.0,0.0,0.0,0.0,0.0,0.0,0.0,0.0,0.0,0.0,0.0,0.0,5.115,5.1978,5.1275,5.0827,5.076,4.998,4.8767,0.0,0.0,0.0,0.0,0.0,0.0,0.0,0.0,0.0,0.0,0.0,0.0,0.0,0.0,0.0,0.0,0.0,0.0,0.0,0.0,0.0,0.0,0.0,0.0,0.0,0.0,0.0,0.0,0.0,0.0,0.0,0.0,0.0,0.0,0.0,0.0,0.0,0.0,0.0,0.0,0.0,0.0,0.0,0.0,0.0,0.0,0.0,0.0,0.0,0.0,0.0,0.0,0.0,0.0,0.0,0.0,0.0,0.0,0.0,0.0,0.0,0.0,0.0,0.0,0.0,0.0,0.0,0.0,0.0,0.0,0.0,0.0,0.0,0.0,0.0,0.0,0.0,0.0,0.0,0.0,0.0,0.0,0.0,0.0,0.0,0.0,0.0,0.0,0.0,0.0,0.0,0.0,0.0,0.0,0.0,0.0,0.0,0.0,0.0,0.0,0.0,0.0,0.0,0.0,0.0,0.0,0.0,0.0,0.0,5.1204,5.0933,5.1601,5.3123,5.0234,4.9418,0.0,0.0,0.0,0.0,0.0,0.0,0.0,0.0,0.0,0.0,0.0,0.0,0.0,0.0,0.0,0.0,0.0,0.0,0.0,0.0,0.0,0.0,0.0,0.0,0.0,0.0,0.0,0.0,0.0,0.0,0.0,0.0,0.0,0.0,0.0,0.0,0.0,0.0,0.0,0.0,0.0,0.0,0.0,0.0,0.0,0.0,0.0,0.0,0.0,0.0,0.0,0.0,0.0,0.0,0.0,0.0,0.0,0.0,0.0,0.0,0.0,0.0,0.0,0.0,0.0,0.0,0.0,0.0,0.0,0.0,0.0,0.0,0.0,0.0,0.0,0.0,0.0,0.0,0.0,0.0,0.0,0.0,0.0,0.0,0.0,0.0,0.0,0.0,0.0,0.0,0.0,0.0,0.0,0.0,0.0,0.0,0.0,0.0,0.0,0.0,0.0,0.0,0.0,0.0,0.0,0.0,0.0,0.0,0.0,5.4984,5.3747,5.3833,5.5366,5.2851,5.1547,5.1792,0.0,0.0,0.0,0.0,0.0,0.0,0.0,0.0,0.0,0.0,0.0,0.0,0.0,0.0,0.0,0.0,0.0,0.0,0.0,0.0,0.0,0.0,0.0,0.0,0.0,0.0,0.0,0.0,0.0,0.0,0.0,0.0,0.0,0.0,0.0,0.0,0.0,0.0,0.0,0.0,0.0,0.0,0.0,0.0,0.0,0.0,0.0,0.0,0.0,0.0,0.0,0.0,0.0,0.0,0.0,0.0,0.0,0.0,0.0,0.0,0.0,0.0,0.0,0.0,0.0,0.0,0.0,0.0,0.0,0.0,0.0,0.0,0.0,0.0,0.0,0.0,0.0,0.0,0.0,0.0,0.0,0.0,0.0,0.0,0.0,0.0,0.0,0.0,0.0,0.0,0.0,0.0,0.0,0.0,0.0,0.0,0.0,0.0,0.0,0.0,0.0,0.0,0.0,0.0,0.0,0.0,0.0,0.0,6.2589,5.9702,5.8106,5.783,5.7483,5.4988,0.0,0.0,0.0,0.0,0.0,0.0,0.0,0.0,0.0,0.0,0.0,0.0,0.0,0.0,0.0,0.0,0.0,0.0,0.0,0.0,0.0,0.0,0.0,0.0,0.0,0.0,0.0,0.0,0.0,0.0,0.0,0.0,0.0,0.0,0.0,0.0,0.0,0.0,0.0,0.0,0.0,0.0,0.0,0.0,0.0,0.0,0.0,0.0,0.0,0.0,0.0,0.0,0.0,0.0,0.0,0.0,0.0,0.0,0.0,0.0,0.0,0.0,0.0,0.0,0.0,0.0,0.0,0.0,0.0,0.0,0.0,0.0,0.0,0.0,0.0,0.0,0.0,0.0,0.0,0.0,0.0,0.0,0.0,0.0,0.0,0.0,0.0,0.0,0.0,0.0,0.0,0.0,0.0,0.0,0.0,0.0,0.0,0.0,0.0,0.0,0.0,0.0,0.0,0.0,0.0,0.0,0.0,0.0,0.0,6.8482,7.0224,6.954,6.6439,6.2142,5.891,0.0,0.0,0.0,0.0,0.0,0.0,0.0,0.0,0.0,0.0,0.0,0.0,0.0,0.0,0.0,0.0,0.0,0.0,0.0,0.0,0.0,0.0,0.0,0.0,0.0,0.0,0.0,0.0,0.0,0.0,0.0,0.0,0.0,0.0,0.0,0.0,0.0,0.0,0.0,0.0,0.0,0.0,0.0,0.0,0.0,0.0,0.0,0.0,0.0,0.0,0.0,0.0,0.0,0.0,0.0,0.0,0.0,0.0,0.0,0.0,0.0,0.0,0.0,0.0,0.0,0.0,0.0,0.0,0.0,0.0,0.0,0.0,0.0,0.0,0.0,0.0,0.0,0.0,0.0,0.0,0.0,0.0,0.0,0.0,0.0,0.0,0.0,0.0,0.0,0.0,0.0,0.0,0.0,0.0,0.0,0.0,0.0,0.0,0.0,0.0,0.0,0.0,0.0,0.0,0.0,0.0,0.0,0.0,6.8045,7.2527,7.8345,8.0019,7.7207,6.9671,6.3669,0.0,0.0,0.0,0.0,0.0,0.0,0.0,0.0,0.0,0.0,0.0,0.0,0.0,0.0,0.0,0.0,0.0,0.0,0.0,0.0,0.0,0.0,0.0,0.0,0.0,0.0,0.0,0.0,0.0,0.0,0.0,0.0,0.0,0.0,0.0,0.0,0.0,0.0,0.0,0.0,0.0,0.0,0.0,0.0,0.0,0.0,0.0,0.0,0.0,0.0,0.0,0.0,0.0,0.0,0.0,0.0,0.0,0.0,0.0,0.0,0.0,0.0,0.0,0.0,0.0,0.0,0.0,0.0,0.0,0.0,0.0,0.0,0.0,0.0,0.0,0.0,0.0,0.0,0.0,0.0,0.0,0.0,0.0,0.0,0.0,0.0,0.0,0.0,0.0,0.0,0.0,0.0,0.0,0.0,0.0,0.0,0.0,0.0,0.0,0.0,0.0,0.0,0.0,0.0,0.0,0.0,0.0,0.0,7.2639,7.5515,8.4405,8.8675,8.7555,7.775,6.8555,0.0,0.0,0.0,0.0,0.0,0.0,0.0,0.0,0.0,0.0,0.0,0.0,0.0,0.0,0.0,0.0,0.0,0.0,0.0,0.0,0.0,0.0,0.0,0.0,0.0,0.0,0.0,0.0,0.0,0.0,0.0,0.0,0.0,0.0,0.0,0.0,0.0,0.0,0.0,0.0,0.0,0.0,0.0,0.0,0.0,0.0,0.0,0.0,0.0,0.0,0.0,0.0,0.0,0.0,0.0,0.0,0.0,0.0,0.0,0.0,0.0,0.0,0.0,0.0,0.0,0.0,0.0,0.0,0.0,0.0,0.0,0.0,0.0,0.0,0.0,0.0,0.0,0.0,0.0,0.0,0.0,0.0,0.0,0.0,0.0,0.0,0.0,0.0,0.0,0.0,0.0,0.0,0.0,0.0,0.0,0.0,0.0,0.0,0.0,0.0,0.0,0.0,0.0,0.0,0.0,0.0,0.0,0.0,7.5487,8.0631,8.7906,9.1287,9.0364,7.9242,7.0779,0.0,0.0,0.0,0.0,0.0,0.0,0.0,0.0,0.0,0.0,0.0,0.0,0.0,0.0,0.0,0.0,0.0,0.0,0.0,0.0,0.0,0.0,0.0,0.0,0.0,0.0,0.0,0.0,0.0,0.0,0.0,0.0,0.0,0.0,0.0,0.0,0.0,0.0,0.0,0.0,0.0,0.0,0.0,0.0,0.0,0.0,0.0,0.0,4.6778,0.0,0.0,0.0,0.0,0.0,0.0,0.0,0.0,0.0,0.0,0.0,0.0,0.0,0.0,0.0,0.0,0.0,0.0,0.0,0.0,0.0,0.0,0.0,0.0,0.0,0.0,0.0,0.0,0.0,0.0,0.0,0.0,0.0,0.0,0.0,0.0,0.0,0.0,0.0,0.0,0.0,0.0,0.0,0.0,0.0,0.0,0.0,0.0,0.0,0.0,0.0,0.0,0.0,0.0,0.0,0.0,0.0,0.0,0.0,7.755,8.3439,9.0171,9.3253,9.2095,8.2781,7.4899,0.0,0.0,0.0,0.0,0.0,0.0,0.0,0.0,0.0,0.0,0.0,0.0,0.0,0.0,0.0,0.0,0.0,0.0,0.0,0.0,0.0,0.0,0.0,0.0,0.0,0.0,0.0,0.0,0.0,0.0,0.0,0.0,0.0,0.0,0.0,0.0,0.0,0.0,0.0,0.0,0.0,0.0,0.0,0.0,0.0,0.0,0.0,0.0,0.0,0.0,0.0,0.0,0.0,0.0,0.0,0.0,0.0,0.0,0.0,0.0,0.0,0.0,0.0,0.0,0.0,0.0,0.0,0.0,0.0,0.0,0.0,0.0,0.0,0.0,0.0,0.0,0.0,0.0,0.0,0.0,0.0,0.0,0.0,0.0,0.0,0.0,0.0,0.0,0.0,0.0,0.0,0.0,0.0,0.0,0.0,0.0,0.0,0.0,0.0,0.0,0.0,0.0,0.0,0.0,0.0,0.0,0.0,7.2476,7.9131,8.5595,9.1905,9.4679,9.349,8.6355,7.8888,7.1346,0.0,0.0,0.0,0.0,0.0,0.0,0.0,0.0,0.0,0.0,0.0,0.0,0.0,0.0,0.0,0.0,0.0,0.0,0.0,0.0,0.0,0.0,0.0,0.0,0.0,0.0,0.0,0.0,0.0,0.0,0.0,0.0,0.0,0.0,0.0,0.0,0.0,0.0,4.5319,4.6432,0.0,0.0,0.0,0.0,0.0,0.0,0.0,0.0,4.674,0.0,0.0,0.0,0.0,0.0,0.0,0.0,0.0,0.0,0.0,0.0,0.0,0.0,0.0,0.0,0.0,0.0,0.0,0.0,0.0,0.0,0.0,0.0,0.0,0.0,0.0,0.0,0.0,0.0,0.0,0.0,0.0,0.0,0.0,0.0,0.0,0.0,0.0,0.0,0.0,0.0,0.0,0.0,0.0,0.0,0.0,0.0,0.0,0.0,0.0,0.0,0.0,0.0,0.0,0.0,0.0,6.9706,7.3899,8.031,8.9046,9.3721,9.5007,9.2727,8.6621,7.9703,7.2178,0.0,0.0,0.0,0.0,0.0,0.0,0.0,0.0,0.0,0.0,0.0,0.0,0.0,0.0,0.0,0.0,0.0,0.0,0.0,0.0,0.0,0.0,0.0,0.0,0.0,0.0,0.0,0.0,0.0,0.0,0.0,0.0,0.0,0.0,0.0,0.0,0.0,0.0,0.0,4.9283,4.974,0.0,0.0,0.0,0.0,0.0,0.0,0.0,0.0,4.8469,0.0,0.0,0.0,0.0,0.0,0.0,0.0,0.0,0.0,0.0,0.0,0.0,0.0,0.0,0.0,0.0,0.0,0.0,0.0,0.0,0.0,0.0,0.0,0.0,0.0,0.0,0.0,0.0,0.0,0.0,0.0,0.0,0.0,0.0,0.0,0.0,0.0,0.0,0.0,0.0,0.0,0.0,0.0,0.0,0.0,0.0,0.0,0.0,0.0,0.0,0.0,0.0,0.0,0.0,0.0,7.2451,7.6807,8.3333,9.2308,9.5046,9.5126,9.264,8.6202,7.9195,0.0,0.0,0.0,0.0,0.0,0.0,0.0,0.0,0.0,0.0,0.0,0.0,0.0,0.0,0.0,0.0,0.0,0.0,0.0,0.0,0.0,0.0,0.0,0.0,0.0,0.0,0.0,0.0,0.0,0.0,0.0,0.0,0.0,0.0,0.0,0.0,0.0,0.0,0.0,0.0,5.0966,5.1469,5.3587,0.0,0.0,0.0,0.0,0.0,0.0,4.9584,4.9202,0.0,0.0,0.0,0.0,0.0,0.0,0.0,0.0,0.0,0.0,0.0,0.0,0.0,0.0,0.0,0.0,0.0,0.0,0.0,0.0,0.0,0.0,0.0,0.0,0.0,0.0,0.0,0.0,0.0,0.0,0.0,0.0,0.0,0.0,0.0,0.0,0.0,0.0,0.0,0.0,0.0,0.0,0.0,0.0,0.0,0.0,0.0,0.0,0.0,0.0,0.0,0.0,0.0,0.0,0.0,7.4213,7.8808,8.5337,9.3886,9.534,9.4719,9.2233,8.508,7.8012,0.0,0.0,0.0,0.0,0.0,0.0,0.0,0.0,0.0,0.0,0.0,0.0,0.0,0.0,0.0,0.0,0.0,0.0,0.0,0.0,0.0,0.0,0.0,0.0,0.0,0.0,0.0,0.0,0.0,0.0,0.0,0.0,0.0,0.0,0.0,0.0,0.0,0.0,0.0,0.0,0.0,5.3354,5.5167,5.4464,0.0,0.0,0.0,0.0,5.0582,5.1128,0.0,0.0,0.0,0.0,0.0,0.0,0.0,0.0,0.0,0.0,0.0,0.0,0.0,0.0,0.0,0.0,0.0,0.0,0.0,0.0,0.0,0.0,0.0,0.0,0.0,0.0,0.0,0.0,0.0,0.0,0.0,0.0,0.0,0.0,0.0,0.0,0.0,0.0,0.0,0.0,0.0,0.0,0.0,0.0,0.0,0.0,0.0,0.0,0.0,0.0,0.0,0.0,0.0,0.0,0.0,0.0,7.3405,7.7446,8.352,9.1642,9.3567,9.3214,9.0745,8.2874,7.6212,0.0,0.0,0.0,0.0,0.0,0.0,0.0,0.0,0.0,0.0,0.0,0.0,0.0,0.0,0.0,0.0,0.0,0.0,0.0,0.0,0.0,0.0,0.0,0.0,0.0,0.0,0.0,0.0,0.0,0.0,0.0,0.0,0.0,0.0,0.0,0.0,0.0,0.0,0.0,0.0,0.0,5.5129,5.4703,5.509,5.4585,0.0,0.0,0.0,5.4154,5.7049,0.0,0.0,0.0,0.0,0.0,0.0,0.0,0.0,0.0,0.0,0.0,0.0,0.0,0.0,0.0,0.0,0.0,0.0,0.0,0.0,0.0,0.0,0.0,0.0,0.0,0.0,0.0,0.0,0.0,0.0,0.0,0.0,0.0,0.0,0.0,0.0,0.0,0.0,0.0,0.0,0.0,0.0,0.0,0.0,0.0,0.0,0.0,0.0,0.0,0.0,0.0,0.0,0.0,0.0,0.0,6.5984,7.3278,7.917,8.547,9.2027,9.3,9.199,8.9181,8.0067,7.3418,0.0,0.0,0.0,0.0,0.0,0.0,0.0,0.0,0.0,0.0,0.0,0.0,0.0,0.0,0.0,0.0,0.0,0.0,0.0,0.0,0.0,0.0,0.0,0.0,0.0,0.0,0.0,0.0,0.0,0.0,0.0,0.0,0.0,0.0,0.0,0.0,0.0,0.0,0.0,0.0,0.0,0.0,5.6173,5.745,0.0,0.0,0.0,5.7689,5.5538,0.0,0.0,0.0,0.0,0.0,0.0,0.0,0.0,0.0,0.0,0.0,0.0,0.0,0.0,0.0,0.0,0.0,0.0,0.0,0.0,0.0,0.0,0.0,0.0,0.0,0.0,0.0,0.0,0.0,0.0,0.0,0.0,0.0,0.0,0.0,0.0,0.0,0.0,0.0,0.0,0.0,0.0,0.0,0.0,0.0,0.0,0.0,0.0,0.0,0.0,0.0,0.0,0.0,0.0,0.0,0.0,0.0,7.3307,8.0505,8.6833,9.2015,9.2262,9.0842,8.7795,7.853,0.0,0.0,0.0,0.0,0.0,0.0,0.0,0.0,0.0,0.0,0.0,0.0,0.0,0.0,0.0,0.0,0.0,0.0,0.0,0.0,0.0,0.0,0.0,0.0,0.0,0.0,0.0,4.5859,0.0,0.0,0.0,0.0,0.0,0.0,0.0,0.0,0.0,0.0,0.0,0.0,0.0,0.0,6.021,5.7671,5.966,6.076,0.0,0.0,5.9394,5.731,5.9662,6.0107,0.0,0.0,0.0,0.0,0.0,0.0,0.0,0.0,0.0,0.0,0.0,0.0,0.0,0.0,0.0,0.0,0.0,0.0,0.0,0.0,0.0,0.0,0.0,0.0,0.0,0.0,0.0,0.0,0.0,0.0,0.0,0.0,0.0,0.0,0.0,0.0,0.0,0.0,0.0,0.0,0.0,0.0,0.0,0.0,0.0,0.0,0.0,0.0,0.0,0.0,0.0,0.0,0.0,0.0,0.0,7.3546,8.0118,8.5845,9.0531,9.0743,8.9567,8.7053,7.9303,7.3024,0.0,0.0,0.0,0.0,0.0,0.0,0.0,0.0,0.0,0.0,0.0,0.0,0.0,0.0,0.0,0.0,0.0,0.0,0.0,0.0,0.0,0.0,0.0,0.0,0.0,0.0,0.0,0.0,0.0,0.0,0.0,0.0,0.0,0.0,0.0,0.0,0.0,0.0,0.0,0.0,0.0,6.1095,5.8588,6.1044,6.3066,0.0,0.0,6.1591,6.0589,6.4551,6.5029,5.6856,0.0,0.0,0.0,0.0,0.0,0.0,0.0,0.0,0.0,0.0,0.0,0.0,0.0,0.0,0.0,0.0,0.0,0.0,0.0,0.0,0.0,0.0,0.0,0.0,0.0,0.0,0.0,0.0,0.0,0.0,0.0,0.0,0.0,0.0,0.0,0.0,0.0,0.0,0.0,0.0,0.0,0.0,0.0,0.0,0.0,0.0,0.0,0.0,0.0,0.0,0.0,0.0,0.0,6.7771,7.2362,8.0117,8.5775,8.8977,8.9583,8.8225,8.4857,7.8045,7.2034,0.0,0.0,0.0,0.0,0.0,0.0,0.0,0.0,0.0,0.0,0.0,0.0,0.0,0.0,0.0,0.0,0.0,0.0,0.0,0.0,0.0,0.0,0.0,0.0,0.0,0.0,0.0,0.0,4.7443,4.7648,4.7636,0.0,0.0,0.0,0.0,0.0,0.0,0.0,0.0,0.0,0.0,6.2474,6.1506,6.3835,0.0,0.0,6.5077,6.451,6.2566,6.3918,6.3159,5.7249,5.5177,0.0,0.0,0.0,0.0,0.0,0.0,0.0,0.0,0.0,0.0,0.0,0.0,0.0,0.0,0.0,0.0,0.0,0.0,0.0,0.0,0.0,0.0,0.0,0.0,0.0,0.0,0.0,0.0,0.0,0.0,0.0,0.0,0.0,0.0,0.0,0.0,0.0,0.0,0.0,0.0,0.0,0.0,0.0,0.0,0.0,0.0,0.0,0.0,0.0,0.0,0.0,0.0,6.8104,7.2059,8.0105,8.5518,8.8133,8.8528,8.7014,8.3418,7.7667,7.1994,0.0,0.0,0.0,0.0,0.0,0.0,0.0,0.0,0.0,0.0,0.0,0.0,0.0,0.0,0.0,0.0,0.0,0.0,0.0,0.0,0.0,0.0,0.0,0.0,0.0,0.0,0.0,0.0,4.8274,4.8426,4.8498,0.0,0.0,0.0,0.0,0.0,0.0,0.0,0.0,0.0,0.0,6.3503,6.3017,6.5089,6.6521,6.5945,6.5441,6.4707,6.3386,6.274,6.1141,5.7359,0.0,0.0,0.0,0.0,0.0,0.0,0.0,0.0,0.0,0.0,0.0,0.0,0.0,0.0,0.0,0.0,0.0,0.0,0.0,0.0,0.0,0.0,0.0,0.0,0.0,0.0,0.0,0.0,0.0,0.0,0.0,0.0,0.0,0.0,0.0,0.0,0.0,0.0,0.0,0.0,0.0,0.0,0.0,0.0,0.0,0.0,0.0,0.0,0.0,0.0,0.0,0.0,0.0,0.0,7.3158,7.9962,8.4967,8.8023,8.7463,8.5913,8.3381,7.8618,7.3536,6.8133,0.0,0.0,0.0,0.0,0.0,0.0,0.0,0.0,0.0,0.0,0.0,0.0,0.0,0.0,0.0,0.0,0.0,0.0,0.0,0.0,0.0,0.0,0.0,0.0,0.0,0.0,4.8125,4.8693,4.9204,0.0,0.0,0.0,0.0,0.0,0.0,0.0,0.0,0.0,0.0,6.0819,6.3949,6.2308,6.4214,6.5844,6.5775,6.298,6.1351,6.2895,6.1713,5.9792,0.0,0.0,0.0,0.0,0.0,0.0,0.0,0.0,0.0,0.0,0.0,0.0,0.0,0.0,0.0,0.0,0.0,0.0,0.0,0.0,0.0,0.0,0.0,0.0,0.0,0.0,0.0,0.0,0.0,0.0,0.0,0.0,0.0,0.0,0.0,0.0,0.0,0.0,0.0,0.0,6.2382,6.2135,0.0,0.0,0.0,0.0,0.0,0.0,0.0,0.0,0.0,0.0,0.0,0.0,6.8856,7.3107,7.9847,8.4711,8.728,8.7133,8.56,8.2663,7.947,7.4198,6.6678,0.0,0.0,0.0,0.0,0.0,0.0,0.0,0.0,0.0,0.0,0.0,0.0,0.0,0.0,0.0,0.0,0.0,0.0,0.0,0.0,0.0,0.0,0.0,0.0,0.0,4.914,0.0,0.0,0.0,0.0,0.0,0.0,0.0,0.0,0.0,0.0,0.0,5.5215,5.634,6.0147,6.2798,6.274,6.443,6.6106,0.0,0.0,0.0,0.0,0.0,0.0,0.0,0.0,0.0,0.0,0.0,0.0,0.0,0.0,5.5231,5.2369,5.2341,5.2774,5.2774,0.0,0.0,0.0,0.0,0.0,0.0,0.0,0.0,0.0,0.0,0.0,0.0,0.0,0.0,0.0,0.0,6.0298,0.0,0.0,0.0,0.0,0.0,0.0,0.0,0.0,6.2992,6.4543,6.6018,6.6067,6.5772,0.0,6.4193,6.209,0.0,0.0,0.0,0.0,0.0,0.0,0.0,0.0,6.8958,7.259,7.9412,8.416,8.6436,8.6289,8.4903,8.2223,7.8487,7.3302,6.6556,6.1746,5.8291,0.0,0.0,0.0,0.0,0.0,0.0,0.0,0.0,0.0,0.0,0.0,0.0,0.0,0.0,0.0,0.0,0.0,0.0,0.0,0.0,0.0,0.0,0.0,5.032,0.0,0.0,0.0,0.0,0.0,0.0,0.0,0.0,0.0,5.4435,5.567,5.7143,5.8844,6.123,6.2877,6.3019,0.0,0.0,0.0,0.0,0.0,0.0,0.0,5.8378,5.6974,5.66,5.6658,5.724,5.8567,5.9628,5.9851,0.0,0.0,5.5017,5.4497,5.4623,5.4893,5.5434,5.6049,5.6857,5.794,5.894,0.0,0.0,0.0,0.0,0.0,0.0,0.0,0.0,6.4697,6.3914,0.0,6.2456,0.0,0.0,0.0,0.0,0.0,0.0,0.0,0.0,6.9087,7.0606,6.9466,7.0848,7.0774,6.9258,6.775,6.6228,6.458,6.2238,0.0,0.0,0.0,0.0,0.0,0.0,6.926,7.194,7.8647,8.3332,8.5645,8.4939,8.3728,8.1937,7.5873,7.1064,6.7891,6.4788,6.165,5.8483,5.7135,0.0,0.0,0.0,0.0,0.0,0.0,0.0,0.0,0.0,0.0,0.0,0.0,0.0,0.0,0.0,0.0,0.0,0.0,0.0,0.0,5.1836,0.0,0.0,0.0,0.0,0.0,0.0,0.0,0.0,0.0,0.0,5.696,5.7722,5.9412,6.2599,0.0,0.0,0.0,0.0,6.3765,6.216,6.1145,6.0651,6.0704,6.0637,6.0321,5.9505,0.0,0.0,6.0848,6.1572,6.1902,6.0989,6.1011,6.0642,5.9831,5.8294,5.7517,5.828,5.8547,5.8816,5.9662,6.1284,6.2406,6.9405,0.0,0.0,0.0,0.0,6.5523,6.7141,6.9368,7.0045,6.9443,6.7978,6.7932,0.0,0.0,0.0,0.0,0.0,0.0,6.6559,6.8656,7.0576,7.2382,7.4089,7.3978,7.3685,7.32,7.2214,7.1169,7.014,6.8877,6.5788,6.1044,0.0,0.0,0.0,0.0,6.9694,7.3349,7.8593,8.2508,8.4903,8.3581,8.1525,7.8757,7.4691,7.1541,6.9456,6.582,6.2928,6.0903,5.826,0.0,0.0,0.0,0.0,0.0,0.0,0.0,0.0,0.0,0.0,0.0,0.0,0.0,0.0,0.0,0.0,0.0,0.0,0.0,5.3433,5.4105,5.4138,0.0,0.0,0.0,0.0,0.0,0.0,0.0,0.0,0.0,6.0169,5.9546,5.9511,0.0,0.0,6.1684,6.1941,6.2797,6.3883,6.5175,0.0,0.0,0.0,6.3551,6.208,6.1291,6.242,6.3614,6.4232,6.5561,6.6266,6.5382,6.5244,6.4987,6.4119,6.2186,6.1053,6.1663,6.2352,6.3281,6.4631,6.582,6.6933,7.6966,7.2386,6.8745,6.8054,6.9426,7.0303,7.2016,7.4213,7.4772,7.4139,7.2651,7.23,7.0427,6.7484,6.6512,0.0,0.0,0.0,6.9305,7.2162,7.2941,7.4294,7.6056,7.6269,7.6012,7.5344,7.4882,7.4081,7.2936,7.1885,6.9492,6.574,0.0,0.0,6.3497,6.7356,7.1002,7.4403,7.8754,8.2031,8.405,8.2553,8.0306,7.7391,7.4793,7.2378,7.0146,6.715,6.4511,6.2333,5.9803,5.8055,0.0,0.0,0.0,0.0,0.0,0.0,0.0,0.0,0.0,0.0,0.0,5.0445,0.0,0.0,0.0,0.0,5.3666,5.4285,5.5166,5.514,0.0,0.0,0.0,0.0,0.0,0.0,0.0,5.5342,5.758,5.991,6.2058,6.2025,6.2235,6.3447,6.326,6.3183,6.365,0.0,6.5556,6.6734,6.7057,6.7122,6.6978,6.6221,6.5373,6.4593,6.5628,6.6688,6.7268,6.8487,6.9157,6.8721,6.8346,6.808,6.7932,6.6378,6.4939,6.4859,6.5509,6.6625,6.8286,6.9587,7.0815,8.3471,8.2003,7.4588,7.2569,7.4338,7.5131,7.6819,7.8919,7.8993,7.8108,7.664,7.5624,7.358,7.0729,6.8466,0.0,0.0,7.0018,7.1714,7.5124,7.6049,7.6489,7.657,7.8156,7.8038,7.6497,7.6423,7.5616,7.4081,7.2624,7.1698,7.1351,6.9382,6.7551,6.6259,6.965,7.2704,7.5147,7.8901,8.1554,8.3059,8.1664,7.9674,7.7179,7.5564,7.3223,7.0153,6.8391,6.6079,6.3056,6.1554,6.0047,5.8448,0.0,0.0,0.0,0.0,0.0,0.0,0.0,0.0,0.0,0.0,0.0,0.0,0.0,0.0,0.0,5.5724,0.0,5.6957,5.5564,0.0,0.0,0.0,5.5148,5.6758,5.7019,5.7698,5.9219,0.0,0.0,0.0,0.0,6.6671,6.8381,6.7679,6.6999,6.7013,6.7655,6.8021,6.7446,6.8596,6.906,6.7969,6.85,6.8817,6.7987,6.9048,6.9468,6.9468,7.0202,7.0783,7.0622,7.0202,6.9895,7.0664,6.993,6.9321,6.7632,6.809,6.9161,7.0587,7.2206,7.3549,8.8051,8.6554,8.4022,8.1554,7.9352,8.0131,8.115,8.2251,8.2251,8.1358,7.9803,7.8384,7.627,7.3831,7.3236,7.3288,7.3854,7.4875,7.5843,7.6848,7.8875,7.9829,7.991,8.0865,8.0828,7.9829,7.9221,7.8413,7.7378,7.5793,7.4059,7.2305,7.2274,7.1208,6.9171,7.0569,7.2825,7.5837,7.8054,7.9653,8.0579,8.0285,7.8633,7.5564,7.3913,7.1835,6.9265,6.7056,6.5228,6.3839,6.2273,6.0733,5.9294,5.7749,0.0,0.0,0.0,0.0,0.0,0.0,0.0,0.0,0.0,5.2522,5.1959,0.0,5.4565,0.0,5.7314,5.8552,5.8785,5.8389,0.0,0.0,5.7402,5.7319,5.775,5.895,5.9931,6.0245,6.219,6.4206,6.5864,6.7595,6.931,7.0948,6.8751,6.7139,6.7769,6.8126,6.8699,6.97,7.0756,7.1374,7.0857,7.0133,6.9186,6.7664,6.8706,6.9475,6.8818,6.9933,7.0699,7.0182,7.0388,7.043,7.0105,7.0269,7.0475,7.0132,7.0709,7.1402,7.1863,7.3245,7.4472,9.0629,8.9711,8.8564,8.6794,8.4747,8.4829,8.5123,8.5518,8.5151,8.4087,8.2443,8.0167,7.8148,7.6599,7.6937,7.6856,7.6673,7.8214,7.894,7.9014,8.0718,8.1334,8.1004,8.1452,8.1232,8.0469,8.0028,7.9368,7.8589,7.8046,7.6871,7.5249,7.6027,7.5587,7.3935,7.2892,7.3597,7.6093,7.812,7.9339,7.9779,7.9816,7.8083,7.4478,7.2819,7.0653,6.7944,6.5478,6.3827,6.2995,6.1741,6.0399,5.8915,5.7609,5.6065,0.0,0.0,0.0,0.0,0.0,0.0,0.0,0.0,0.0,0.0,0.0,5.6136,0.0,0.0,0.0,5.8847,5.8809,5.8764,5.8684,5.903,5.9432,5.9817,6.1378,6.2557,6.2929,6.4891,6.673,6.8079,7.0039,7.1357,7.1629,7.0605,6.9865,6.9942,7.0019,7.0235,7.0805,7.1944,7.2636,7.2294,7.1094,6.9783,6.867,6.9052,6.9395,6.8625,6.9472,7.0234,6.9868,7.0381,7.0776,7.0343,7.0538,7.0895,7.1052,7.1937,7.2706,7.2783,7.3511,7.4395,9.2134,9.184,9.0436,8.984,8.9657,8.8931,8.8536,8.8316,8.761,8.6325,8.4572,8.168,7.9918,7.9103,7.9808,7.9735,7.9176,8.06,8.1297,8.1371,8.2231,8.2296,8.1628,8.1738,8.1342,8.0587,8.0367,7.9845,7.9066,7.9551,7.9339,7.8516,7.9265,7.9184,7.8193,7.566,7.5036,7.6423,7.8633,7.9735,7.9633,7.9449,7.743,7.3567,7.1718,6.9362,6.6292,6.3827,6.2175,6.149,6.0786,5.9758,5.8369,5.709,5.5811,0.0,5.3885,0.0,0.0,0.0,0.0,0.0,0.0,0.0,0.0,5.7606,5.8149,5.8235,5.8967,5.9239,5.8672,5.8629,5.8984,5.9805,6.07,6.1544,6.2385,6.3912,6.526,6.6131,6.7589,6.8891,6.9741,7.1933,7.2703,7.1552,7.2199,7.2654,7.2437,7.1989,7.1569,7.1094,7.2244,7.2594,7.1874,7.1133,7.0321,6.9552,6.9356,6.9206,6.8318,6.8933,6.9503,6.956,7.0147,7.0664,7.0741,7.0779,7.0895,7.0937,7.2126,7.3164,7.328,7.3699,7.4511,9.4033,9.2831,9.2528,9.1987,9.1326,9.1179,9.0372,8.9179,8.9033,8.7684,8.5535,8.4242,8.2884,8.1562,8.168,8.1644,8.157,8.2508,8.2941,8.3014,8.4425,8.5058,8.4911,8.5555,8.5453,8.4617,8.3324,8.2296,8.1497,8.0359,7.9029,7.7619,7.8405,7.8083,0.0,0.0,0.0,0.0,7.9258,7.9486,7.8817,7.7488,7.5212,7.1865,6.9559,0.0,6.4647,6.2181,6.0774,6.0639,6.0493,0.0,0.0,0.0,0.0,0.0,0.0,0.0,0.0,0.0,0.0,0.0,5.7315,5.7265,5.6852,5.7609,5.8397,5.9083,5.9564,6.0224,6.126,6.1596,6.1966,6.2528,6.3334,6.3932,6.4158,6.5605,6.6958,6.7828,6.8829,6.9783,7.0591,7.1745,7.2325,7.194,7.221,7.2668,7.3164,7.2017,7.1367,7.1828,7.1681,7.1143,7.0286,7.0052,6.9398,6.8129,6.8241,6.8279,6.7667,6.8048,6.8647,6.8649,6.9326,6.9968,6.9951,7.0458,7.0895,7.0895,7.1745,7.2441,7.2479,7.4091,7.5476,9.5391,0.0,9.3409,9.2831,0.0,9.1996,9.1326,9.0546,9.0179,8.8638,8.6371,8.5958,8.4894,8.3434,8.4205,8.4132,8.3434,8.4637,8.4967,8.4646,8.5416,8.5792,8.5792,8.582,8.56,8.5168,8.438,8.3573,8.2765,8.1966,8.1158,8.0327,8.0747,8.0747,8.0351,8.1122,8.0975,7.98,7.9404,7.9184,7.9147,7.7965,7.5616,7.2011,0.0,0.0,0.0,0.0,0.0,0.0,0.0,0.0,0.0,0.0,0.0,5.8344,5.8085,5.7941,5.7946,5.7997,5.8454,5.94,5.968,5.9425,5.8401,5.9553,6.0314,6.0338,6.0888,6.1439,6.19,6.2093,6.2466,6.3092,6.3924,6.4695,6.5484,6.6933,6.8222,6.8939,6.9798,7.0475,7.0856,7.1668,7.1979,7.1706,7.2322,7.2783,7.2741,7.1727,7.1108,7.1472,7.086,7.0206,6.9741,6.9279,6.8856,6.7971,6.7744,6.759,6.717,6.7436,6.7741,6.7843,6.8814,6.9696,6.9752,7.0339,7.0895,7.0975,7.1594,7.2325,7.2745,7.4207,7.5511,9.6355,9.5391,9.407,9.3455,9.3272,9.2537,9.2143,9.1987,0.0,0.0,0.0,8.7647,8.6839,8.5555,8.6839,8.6693,8.5555,8.6656,8.6848,8.6232,8.6086,8.6012,8.5976,8.5343,8.5049,8.5013,8.4866,8.4454,8.383,8.3683,8.3601,8.3609,8.3601,8.4013,8.4756,8.4682,8.3609,8.1664,7.991,7.9213,7.9551,7.8633,7.635,7.2569,7.0954,6.8641,6.5618,6.3289,6.1894,6.16,6.097,6.0309,5.9667,5.9636,5.9394,5.894,5.8853,5.9068,5.9621,5.9615,6.0103,6.1292,6.1912,6.1652,6.0345,6.1749,6.2393,6.1658,6.2431,6.2829,6.2484,6.2518,6.2852,6.3601,6.4417,6.5432,6.6508,6.7912,6.9065,6.9605,7.0145,7.0648,7.0737,7.1324,7.1647,7.1231,7.2014,7.2818,7.2091,7.1535,7.114,7.0968,7.0514,6.9937,6.9629,6.901,6.8433,6.8318,6.7513,6.6942,6.7058,6.6981,6.6872,6.6881,6.8219,6.908,6.9438,7.007,7.0703,7.0895,7.1594,7.2402,7.3126,7.4049,7.5165,9.6869,9.5501,9.5244,9.4767,9.4116,9.4006,9.3565,9.2868,9.2024,9.1033,9.0106,9.0069,8.9592,8.8739,8.8959,8.8923,8.8702,8.8234,8.7986,0.0,8.7178,8.6839,8.6803,8.6693,8.6656,8.6619,8.5967,8.5572,8.5388,8.4756,8.4417,8.4417,8.4417,8.4829,8.5498,8.4939,8.4425,8.4058,8.1819,8.0057,7.8809,7.7268,7.5212,7.2606,7.0954,6.8942,6.6439,6.4684,6.3068,6.1716,6.1471,6.1361,6.1269,6.1282,6.1226,6.1171,6.1122,6.0896,6.0314,6.026,6.0945,6.2439,6.3309,6.3137,6.1731,6.2393,6.2888,6.2794,6.3719,6.4597,6.4907,6.5127,6.5421,6.6094,6.6952,6.7565,6.7732,6.8536,6.9206,6.936,6.945,6.9743,7.0167,7.0352,7.0592,7.0832,7.1168,7.1269,7.1395,7.1626,7.1626,7.1091,7.0821,7.0437,6.9664,6.8972,6.8433,6.8395,6.7125,6.6404,6.7132,6.6635,6.6253,6.6138,6.7096,6.7843,6.854,6.9291,7.0122,7.0783,7.1556,7.221,7.2479,7.363,7.5014,9.8264,9.6795,9.6309,9.5694,9.4877,9.4006,9.3455,9.3015,9.217,9.1363,9.0693,9.1069,9.0546,8.9473,8.9877,8.9803,8.9363,8.9033,8.8858,8.8785,8.8014,8.7655,8.761,8.7206,8.7014,8.6986,8.6619,8.6444,8.6371,8.5637,8.549,8.5848,8.5922,8.6105,8.6399,8.6069,8.5665,8.5233,8.2847,8.0865,7.9258,7.8075,7.6276,7.3883,7.3046,7.1358,6.8575,6.732,6.5968,6.4316,6.384,6.362,6.3613,6.362,6.362,6.3619,6.3178,6.2768,6.2444,6.2401,6.2732,6.346,6.4273,6.4457,6.3771,6.4262,6.4437,6.3999,6.482,6.5403,6.5405,6.553,6.5896,6.6572,6.6991,6.7466,6.8182,6.859,6.8966,6.9225,6.931,6.9403,6.964,6.9669,6.9729,7.0026,7.0258,7.0685,7.1392,7.151,7.1356,7.0937,7.0538,6.9923,6.9157,6.8279,6.7971,6.8279,6.701,6.659,6.7359,6.6821,6.6215,6.6532,6.7218,6.8087,6.8916,6.9773,7.0437,7.0744,7.1168,7.1594,7.2213,7.3514,7.5049,9.9632,9.8117,9.7309,9.6502,9.5648,9.4253,9.3639,9.3529,9.2574,9.173,9.128,9.162,9.1106,9.006,9.0592,9.0546,8.9959,8.973,8.9693,8.9583,8.8858,8.8454,8.8418,8.783,8.7528,8.7528,8.7537,8.7528,8.7455,8.6738,8.6673,8.7206,8.728,8.728,8.728,8.7096,8.6619,8.5755,8.3956,8.2158,8.0404,7.9543,7.8031,7.5939,7.5351,7.3817,7.1101,7.0139,6.8825,6.6923,6.6155,6.5677,6.5331,6.5301,6.5301,6.5258,6.4714,6.439,6.439,6.4353,6.442,6.4647,6.5197,6.5632,6.5854,6.6334,6.6317,6.5626,6.6373,6.6791,6.6375,6.6202,6.6359,6.699,6.6886,6.7439,6.8573,6.8567,6.8575,6.9089,6.9058,6.894,6.9079,6.9122,6.92,6.9388,6.9673,7.0396,7.1233,7.0911,7.0617,7.0591,7.0284,6.9874,6.9003,6.8087,6.7936,6.851,6.7128,6.6782,6.7359,6.6782,6.6333,6.6888,6.7568,6.8398,6.9411,7.0101,7.0591,7.0818,7.0975,7.1206,7.2059,7.3091,7.4745,10.0429,9.8998,9.8163,9.7309,9.6502,9.5611,9.5217,9.5016,9.3639,9.2932,9.2749,9.2097,9.173,9.1583,9.1629,9.1583,9.1436,9.0803,9.0473,9.04,8.9665,8.929,8.929,8.9179,8.9179,8.9106,8.9069,8.9033,8.8996,8.8307,8.8023,8.8096,8.8096,8.8096,8.7986,8.7353,8.6619,8.5837,8.5572,8.4324,8.2121,8.1187,7.9976,7.8295,7.6754,7.5175,7.3347,7.2606,7.0734,6.7921,6.7517,6.6819,6.5575,6.5334,6.5321,6.5355,6.5251,6.5178,6.5178,6.5185,6.5478,6.6182,6.6332,6.6736,6.7407,6.8175,6.8275,6.7844,6.8793,6.9134,6.8685,6.8488,6.8414,6.8274,6.7951,6.8208,6.9292,6.867,6.8058,6.8847,6.8346,6.8046,6.8493,6.8561,6.8779,6.9169,6.9297,6.949,6.9811,6.978,6.9747,7.0127,7.0413,7.0584,7.0231,6.9276,6.8587,6.9052,6.7478,6.667,6.6824,6.667,6.6179,6.7128,6.7302,6.8013,6.9231,6.9843,7.0167,7.0741,7.0937,7.1168,7.194,7.2441,7.3518,10.1567,10.0403,9.9145,9.786,9.6649,9.5832,9.5501,9.5327,9.3822,9.3116,9.2978,9.217,9.1812,9.1812,9.1812,9.1812,9.1776,9.1436,9.1289,9.1253,9.0473,9.0097,9.0069,8.9583,8.94,8.94,8.94,8.94,8.9326,8.9069,8.8895,8.8931,8.8931,8.8674,8.8206,8.7876,8.7325,8.6554,8.6509,8.5783,8.4324,8.2598,8.0718,7.8772,7.7928,7.657,7.4625,7.3634,7.2165,7.0007,6.9382,6.8616,6.7504,6.7417,6.7233,6.6776,6.6256,6.5815,6.5325,6.5735,6.6366,6.715,6.765,6.8252,6.9066,6.9862,7.017,6.9933,7.0007,6.9779,6.9112,6.9302,6.9265,6.8465,6.8274,6.8535,6.8566,6.8115,6.7868,6.8115,6.7911,6.7787,6.7975,6.8009,6.8259,6.8694,6.8846,6.8939,6.9188,6.9295,6.9378,6.9592,6.9814,6.9751,6.9484,6.8972,6.8423,6.7965,6.6939,6.6208,6.6696,6.6401,6.6298,6.7564,6.777,6.8436,7.0157,7.0388,7.0552,7.0898,7.0937,7.1168,7.2017,7.2213,7.3133,10.2412,10.132,9.9759,9.8291,9.6979,9.6171,9.5832,9.5648,9.4327,9.3629,9.3345,9.2537,9.2033,9.1812,9.1812,9.1812,9.1812,9.1812,9.1812,9.173,9.117,9.0922,9.0849,9.0363,9.0069,9.0069,9.0106,8.995,8.9803,8.9987,8.9959,8.9767,8.973,8.9436,8.8904,8.8674,8.8234,8.7711,8.7463,8.6921,8.5976,8.4213,8.1937,7.9507,7.8809,7.7524,7.5351,7.4661,7.3487,7.1718,7.105,7.0298,6.9316,6.903,6.864,6.8111,6.7694,6.7247,6.6653,6.7173,6.7731,6.8325,6.89,6.9458,7.0071,7.0818,7.1266,7.1218,7.0954,7.0477,6.9772,6.9889,6.9529,6.8545,6.8605,6.8428,6.8435,6.8068,6.7787,6.7954,6.7904,6.77,6.7707,6.7741,6.7885,6.8192,6.8296,6.8368,6.8747,6.8838,6.8874,6.9047,6.9097,6.8906,6.8398,6.8024,6.7629,6.6832,6.5939,6.5658,6.6413,6.5948,6.6138,6.7218,6.792,6.8821,6.9937,7.044,7.086,7.0898,7.0937,7.1091,7.1591,7.1787,7.2556,10.2936,10.1357,9.9769,9.8557,9.776,9.6942,9.6612,9.6502,9.5685,9.4914,9.4189,9.3382,9.2611,9.1877,9.1877,9.1803,9.1812,9.1812,9.1812,9.1812,9.1739,9.1739,9.1739,9.1702,9.1666,9.1473,9.1436,9.1179,9.0629,9.1289,9.1326,9.0583,9.0546,9.051,9.0289,8.9665,8.9326,8.9069,8.8454,8.7766,8.6949,8.604,8.3993,8.1122,7.9433,7.7899,7.6313,7.6019,7.4882,7.2569,7.2444,7.1702,7.0197,6.9361,6.892,6.8912,6.9493,6.9853,6.9706,6.9669,6.9816,6.9926,6.9991,7.0087,7.033,7.0985,7.1374,7.1336,7.1901,7.1865,7.1204,7.066,7.0153,6.9713,6.8612,6.8612,6.9676,6.8391,6.8145,6.8449,6.8078,6.7744,6.77,6.77,6.7721,6.777,6.7751,6.7823,6.7891,6.7898,6.8079,6.84,6.8506,6.842,6.8061,6.7589,6.6733,6.5898,6.5251,6.475,6.495,6.5291,6.6035,6.6835,6.7606,6.8482,6.9515,7.0213,7.0706,7.0895,7.0895,7.1091,7.1245,7.1052,7.1818,10.2338,9.9916,9.8787,9.786,9.7126,9.6832,9.6722,9.6612,9.5832,9.5354,9.4951,9.4226,9.3418,9.2648,9.2611,9.2317,9.1849,9.1812,9.1812,9.1812,9.1812,9.1812,9.1812,9.1812,9.1812,9.1812,9.1812,9.1657,9.1436,9.1702,9.1657,9.1436,9.1363,9.1143,9.0656,9.0326,8.995,8.9436,8.9069,8.8564,8.7729,8.6489,8.4727,8.2618,8.1004,7.936,7.7745,7.668,7.5689,7.4808,7.4323,7.3316,7.1739,7.0402,6.9674,6.9713,6.9926,7.011,7.011,7.011,7.033,7.0807,7.0863,7.112,7.1548,7.1909,7.2049,7.2107,7.2268,7.2305,7.2158,7.1798,7.0991,6.9633,6.9265,6.8942,6.8575,6.8031,6.7824,6.8035,6.7824,6.77,6.7811,6.77,6.77,6.77,6.77,6.7737,6.77,6.77,6.779,6.7934,6.798,6.7776,6.7111,6.6994,6.6455,6.5337,6.4591,6.4529,6.465,6.4677,6.5205,6.6307,6.7169,6.8265,6.9301,7.0297,7.0741,7.0895,7.0895,7.0895,7.0895,7.0895,7.1741,10.1494,9.9475,9.8347,9.7566,9.7052,9.6795,9.6722,9.6649,9.6125,9.5758,9.5391,9.4666,9.3859,9.3125,9.2831,9.2391,9.1849,9.1812,9.1812,9.1812,9.1812,9.1812,9.1812,9.1812,9.1812,9.1812,9.1812,9.1812,9.1812,9.1812,9.1812,9.1776,9.1812,9.1546,9.1069,9.0996,9.0656,9.0216,8.9922,8.94,8.85,8.6995,8.5416,8.383,8.2215,8.0498,7.8662,7.7223,7.6342,7.6064,7.5558,7.4419,7.2657,7.1475,7.0881,7.0844,7.0888,7.1138,7.1468,7.1174,7.1358,7.2305,7.2244,7.2339,7.284,7.2884,7.2781,7.2613,7.2532,7.2532,7.2532,7.2496,7.1615,6.9736,6.9559,6.9162,6.7921,6.77,6.7847,6.8141,6.8465,6.8501,6.8465,6.8501,6.8538,6.8465,6.8281,6.8098,6.8061,6.7847,6.77,6.77,6.7734,6.7377,6.6905,6.6716,6.6372,6.5355,6.447,6.4377,6.4414,6.4344,6.4613,6.5709,6.6879,6.8006,6.9109,7.0181,7.0668,7.0854,7.0895,7.0895,7.0895,7.0895,7.1741,10.0319,9.9952,9.8567,9.7833,9.7566,9.6979,9.6722,9.6685,9.6649,9.6245,9.5611,9.474,9.4015,9.3125,9.2464,9.1877,9.1812,9.1812,9.1812,9.1812,9.1812,9.1812,9.1812,9.1812,9.1812,9.1812,9.1812,9.1812,9.1812,9.1812,9.1812,9.1812,9.1812,9.1776,9.1776,9.1657,9.173,9.1473,9.0922,9.0207,8.9326,8.7785,8.6179,8.4572,8.2957,8.1012,7.8736,7.781,7.6959,7.6261,7.6156,7.4968,7.3193,7.2606,7.2525,7.2488,7.2488,7.3259,7.4324,7.3259,7.3149,7.4111,7.4044,7.3603,7.3663,7.3596,7.3317,7.2804,7.2569,7.2532,7.2532,7.2532,7.1865,7.0367,6.9633,6.8825,6.8118,6.7781,6.8031,6.8752,6.9339,7.0,7.0036,6.9816,6.975,6.9676,6.9302,6.8825,6.8678,6.8251,6.7817,6.77,6.7664,6.7407,6.6923,6.6472,6.6057,6.5478,6.4654,6.4203,6.4385,6.4402,6.4235,6.5152,6.6725,6.7902,6.9424,7.0389,7.0604,7.0777,7.0808,7.0895,7.0895,7.101,7.1514,9.9989,9.9402,9.8347,9.7576,9.7099,9.6795,9.6722,9.6722,9.6722,9.6529,9.6208,9.5465,9.4703,9.3896,9.3088,9.2354,9.1849,9.1812,9.1812,9.1812,9.1812,9.1812,9.1812,9.1812,9.1812,9.1812,9.1812,9.1812,9.1812,9.1812,9.1812,9.1812,9.1812,9.1812,9.1812,9.1812,9.1812,9.1776,9.1546,9.0803,8.9473,8.8381,8.6803,8.4719,8.303,8.1313,7.9522,7.8626,7.781,7.6966,7.6928,7.6335,7.5154,7.4463,7.4177,7.4177,7.4133,7.428,7.472,7.4463,7.4287,7.4764,7.4684,7.4537,7.4448,7.4037,7.3647,7.3281,7.2863,7.2532,7.2532,7.2532,7.2048,7.102,7.0213,6.9614,6.9292,6.9318,6.9206,6.9002,6.9596,7.0043,7.011,7.0146,7.022,7.022,6.9926,6.9596,6.9045,6.8733,6.8275,6.7868,6.7751,6.7664,6.7297,6.7033,6.6733,6.6035,6.5131,6.4482,6.4574,6.4332,6.4197,6.4905,6.6454,6.7876,6.9391,7.0254,7.0444,7.073,7.0812,7.0881,7.0891,7.1206,7.1706,9.9989,9.9465,9.8668,9.7897,9.7163,9.7163,9.6979,9.6722,9.6722,9.6722,9.6539,9.5868,9.5244,9.4593,9.3602,9.2831,9.2281,9.1987,9.1812,9.1812,9.1812,9.1812,9.1812,9.1812,9.1812,9.1812,9.1812,9.1812,9.1812,9.1812,9.1812,9.1812,9.1812,9.1812,9.1812,9.1812,9.1812,9.1776,9.1473,9.0739,8.9473,8.8307,8.6885,8.5086,8.3508,8.2039,8.0726,7.9661,7.8516,7.7472,7.7024,7.6607,7.6071,7.5315,7.5014,7.5241,7.5094,7.5124,7.5601,7.5234,7.5234,7.5564,7.5521,7.5344,7.5256,7.4809,7.4551,7.4118,7.3744,7.3266,7.3046,7.298,7.2562,7.1828,7.102,7.0452,7.0218,7.0367,7.0365,7.016,7.0587,7.0881,7.0991,7.0991,7.0998,7.0991,7.0734,7.0477,6.9793,6.9237,6.8709,6.8168,6.7891,6.7811,6.77,6.7554,6.7437,6.6629,6.5675,6.5197,6.5019,6.4321,6.3997,6.5256,6.6718,6.7456,6.8863,6.9635,7.0061,7.0412,7.0685,7.0881,7.0937,7.1398,7.1902,10.0259,10.0172,9.9428,9.8594,9.787,9.7723,9.7282,9.6759,9.6722,9.6722,9.6539,9.5868,9.5465,9.5134,9.3932,9.3235,9.3015,9.2317,9.1996,9.195,9.1886,9.1812,9.1812,9.1812,9.1812,9.1812,9.1812,9.1812,9.1812,9.1812,9.1812,9.1812,9.1812,9.1812,9.1812,9.1812,9.1812,9.1702,9.1069,9.0253,8.9363,8.7968,8.6693,8.5755,8.4389,8.3104,8.1929,8.0359,7.8846,7.7472,7.6709,7.6385,7.606,7.5445,7.5527,7.6085,7.5461,7.5931,7.6592,7.6004,7.5747,7.6848,7.6505,7.6146,7.6137,7.5915,7.5569,7.5043,7.4801,7.4478,7.3891,7.3751,7.3413,7.2753,7.1938,7.1101,7.0381,7.0951,7.137,7.1468,7.2011,7.2488,7.2312,7.2275,7.2312,7.2202,7.1718,7.1344,7.0874,7.0108,6.9224,6.8696,6.8228,6.7934,6.7824,6.7664,6.751,6.6813,6.6115,6.5962,6.5662,6.5007,6.469,6.5906,6.676,6.7451,6.8237,6.9209,6.972,6.9923,7.0298,7.0681,7.1168,7.1591,7.2353,9.9947,10.0226,9.9428,9.8631,9.787,9.7282,9.6942,9.6722,9.6722,9.6722,9.6539,9.5868,9.5538,9.5391,9.4483,9.3969,9.3712,9.3088,9.2758,9.2638,9.206,9.1812,9.1812,9.1812,9.1812,9.1812,9.1812,9.1812,9.1812,9.1812,9.1812,9.1812,9.1812,9.1812,9.1812,9.1812,9.1812,9.1702,9.1033,9.0207,8.94,8.8454,8.7178,8.5865,8.5388,8.414,8.226,8.0065,7.8471,7.7436,7.7134,7.6988,7.692,7.6679,7.6628,7.6775,7.6775,7.6738,7.7061,7.6878,7.6885,7.7215,7.7055,7.6989,7.6959,7.6434,7.6068,7.5696,7.5315,7.4874,7.4617,7.4544,7.4397,7.4177,7.3039,7.1967,7.1527,7.2188,7.2871,7.2408,7.2892,7.2966,7.2672,7.2532,7.2532,7.2459,7.2268,7.1938,7.1424,7.1015,7.0185,6.9233,6.8646,6.8248,6.7948,6.7781,6.7437,6.6843,6.6586,6.6769,6.6586,6.6329,6.6382,6.6969,6.724,6.7827,6.8535,6.9348,6.9492,6.9658,7.0026,7.0507,7.1233,7.1774,7.289,9.935,9.9617,9.9378,9.8594,9.7655,9.7628,9.7336,9.6795,9.6722,9.6722,9.6575,9.6235,9.6025,9.5905,9.518,9.4602,9.4235,9.3455,9.3125,9.3005,9.2611,9.217,9.1913,9.1812,9.1812,9.1812,9.1812,9.1812,9.1812,9.1812,9.1812,9.1812,9.1812,9.1812,9.1812,9.1812,9.1812,9.1666,9.1033,9.0326,8.9877,8.9115,8.8133,8.6958,8.6444,8.5049,8.2443,8.0836,7.9323,7.7839,7.7281,7.7318,7.7318,7.7318,7.7318,7.7318,7.7318,7.7281,7.7318,7.7318,7.7318,7.7318,7.7318,7.7318,7.7237,7.6824,7.6611,7.6547,7.6151,7.5784,7.5388,7.5124,7.494,7.4712,7.4045,7.3311,7.2848,7.3626,7.375,7.3384,7.3325,7.3377,7.2635,7.2532,7.2532,7.2496,7.2496,7.2232,7.1894,7.1566,7.1104,7.0132,6.9203,6.8733,6.8529,6.8398,6.8318,6.765,6.7724,6.7797,6.7357,6.7363,6.7581,6.7752,6.7889,6.8222,6.8989,6.9522,6.954,6.9735,6.9988,7.0495,7.1267,7.2264,7.3357,9.8516,9.86,9.8988,9.8297,9.7166,9.8151,9.7612,9.6648,9.6628,9.6722,9.6685,9.6685,9.6575,9.6649,9.5914,9.5254,9.4593,9.3969,9.3483,9.3372,9.3198,9.2905,9.2354,9.1923,9.195,9.1996,9.1877,9.1913,9.1996,9.1959,9.1812,9.1812,9.1812,9.1812,9.1812,9.1812,9.1812,9.1657,9.0996,9.0583,9.0326,8.9657,8.8858,8.8234,8.7206,8.5416,8.3214,8.1937,8.0718,7.7693,7.7509,7.7436,7.7399,7.7318,7.7318,7.7318,7.7318,7.7318,7.7318,7.7318,7.7318,7.7318,7.7318,7.7318,7.7281,7.72,7.7163,7.7134,7.7281,7.6812,7.6306,7.5601,7.5417,7.541,7.5189,7.5138,7.5131,7.5069,7.4758,7.4095,7.4008,7.356,7.2936,7.2606,7.2606,7.2532,7.2532,7.2422,7.2188,7.1968,7.155,7.1036,7.0138,6.929,6.9153,6.9045,6.9045,6.8892,6.9162,6.9125,6.8208,6.8111,6.8445,6.8706,6.8839,6.9127,6.9626,6.9863,6.9793,6.9887,7.0196,7.0762,7.1485,7.2725,7.3849,9.7386,9.7711,9.7178,9.6446,9.5794,9.6291,9.6076,9.5327,9.6232,9.6465,9.6637,9.6637,9.6618,9.6647,9.6369,9.6318,9.5905,9.5171,9.4694,9.4088,9.4052,9.3978,9.3428,9.2547,9.2244,9.2501,9.2097,9.217,9.2501,9.2253,9.1812,9.1849,9.1923,9.1812,9.184,9.1849,9.1812,9.1666,9.1023,9.0693,9.0555,8.9996,8.94,8.8959,8.7757,8.5775,8.3609,8.2553,8.124,7.9661,7.8699,7.8141,7.7553,7.7326,7.7318,7.7318,7.7318,7.7318,7.7318,7.7318,7.7318,7.7318,7.7318,7.7318,7.7318,7.7318,7.7318,7.7318,7.7281,7.7179,7.6959,7.6885,7.6621,7.6584,7.6613,7.6642,7.665,7.6199,7.575,7.5561,7.5416,7.5028,7.3678,7.3457,7.3237,7.2716,7.2532,7.2532,7.2408,7.2239,7.1953,7.16,7.0941,7.0132,6.991,6.9883,6.9993,7.0066,7.0403,7.052,6.9603,6.9242,6.9681,6.9798,6.9818,7.0151,7.0505,7.0232,7.0142,7.0282,7.048,7.106,7.1863,7.3126,7.4194,9.6039,9.5716,9.5851,9.5283,9.4481,9.5178,9.5118,9.4562,9.4709,9.4912,9.4923,9.4912,9.5233,9.5779,9.582,9.5865,9.6021,9.5721,9.5061,9.452,9.4593,9.463,9.4235,9.3538,9.3281,9.3575,9.3244,9.3125,9.3015,9.3015,9.2831,9.2427,9.2391,9.2464,9.2281,9.2033,9.1812,9.1767,9.14,9.1179,9.1069,9.0767,8.9996,8.9363,8.8161,8.6436,8.416,8.3609,8.2272,8.0833,7.9923,7.9119,7.8033,7.7532,7.7326,7.7318,7.7318,7.7318,7.7318,7.7318,7.7318,7.7318,7.7318,7.7318,7.7318,7.7318,7.7318,7.7318,7.7318,7.7281,7.7318,7.7281,7.7318,7.7318,7.7318,7.7318,7.7237,7.6905,7.6492,7.6265,7.5996,7.538,7.4735,7.4331,7.3854,7.3377,7.3156,7.3083,7.2532,7.2371,7.2298,7.199,7.1515,7.1038,7.0749,7.0763,7.0947,7.1167,7.1497,7.1578,7.1211,7.1078,7.1099,7.0923,7.0673,7.1034,7.1277,7.091,7.0653,7.0811,7.1098,7.1516,7.2218,7.3397,7.4352,9.4838,9.3655,9.4624,9.4212,9.3232,9.4155,9.4175,9.3457,9.3108,9.3224,9.2932,9.2896,9.3787,9.4336,9.45,9.4788,9.5271,9.5406,9.4989,9.5061,9.5428,9.5364,9.4933,9.4786,9.4676,9.4639,9.4235,9.3896,9.3859,9.3932,9.3721,9.3345,9.3272,9.3125,9.2941,9.2427,9.1987,9.1849,9.1739,9.1702,9.1693,9.1583,9.0913,8.9803,8.8821,8.7353,8.5518,8.4711,8.3785,8.1754,8.1318,8.0456,7.9312,7.804,7.7362,7.7355,7.7318,7.7318,7.7318,7.7318,7.7355,7.7428,7.7538,7.7642,7.7731,7.7716,7.7627,7.7524,7.7488,7.7318,7.7318,7.7318,7.7318,7.7318,7.7318,7.7318,7.7318,7.7281,7.6913,7.6544,7.6436,7.6041,7.5498,7.5058,7.4544,7.4074,7.3854,7.3567,7.301,7.2532,7.2503,7.2386,7.1954,7.2123,7.196,7.2305,7.2415,7.2452,7.2709,7.2709,7.2745,7.2833,7.2591,7.1767,7.1584,7.1879,7.1967,7.1718,7.1534,7.149,7.1633,7.2021,7.2761,7.3686,7.4529,9.4383,9.3581,9.3089,9.2423,9.178,9.2352,9.2247,9.1768,9.245,9.2873,9.2825,9.2861,9.2825,9.319,9.3213,9.3826,9.457,9.4766,9.5196,9.5667,9.6021,9.5865,9.5677,9.5711,9.5964,9.5914,9.5217,9.4666,9.474,9.4593,9.4446,9.4199,9.4052,9.3786,9.3308,9.2859,9.2317,9.1886,9.1812,9.1812,9.1812,9.1739,9.1363,9.0289,8.9482,8.8161,8.6803,8.5865,8.508,8.402,8.2745,8.199,8.1146,7.9551,7.8324,7.7656,7.7546,7.7619,7.7582,7.7436,7.7729,7.8133,7.8353,7.8725,7.8926,7.8732,7.8355,7.8077,7.7687,7.7318,7.7318,7.7318,7.7318,7.7318,7.7318,7.7318,7.7318,7.7281,7.7244,7.6957,7.6907,7.6812,7.6261,7.5792,7.5388,7.4882,7.4478,7.4147,7.367,7.3134,7.2774,7.2613,7.2408,7.2848,7.3237,7.381,7.4169,7.3949,7.4059,7.4059,7.4133,7.4434,7.4081,7.3075,7.2414,7.2356,7.2378,7.2305,7.2342,7.2261,7.237,7.2546,7.3411,7.4299,7.4838,9.403,9.2962,9.2542,9.1967,9.1366,9.1156,9.118,9.1138,9.1024,9.1152,9.1291,9.1157,9.1325,9.1766,9.1927,9.2623,9.356,9.3832,9.4179,9.4695,9.4752,9.4752,9.4955,9.5395,9.5668,9.5688,9.5514,9.5372,9.5538,9.5621,9.5254,9.485,9.4556,9.4088,9.3529,9.2794,9.2317,9.1849,9.1812,9.1812,9.1812,9.1812,9.1363,9.062,8.9812,8.8592,8.7206,8.6224,8.5405,8.4594,8.3871,8.3287,8.2508,8.1444,7.9874,7.8919,7.8544,7.8544,7.8589,7.8589,7.8846,7.9147,7.925,7.9376,7.9606,7.9391,7.9053,7.851,7.7849,7.7318,7.7318,7.7318,7.7318,7.7318,7.7318,7.7318,7.7318,7.7318,7.7318,7.7318,7.7171,7.7069,7.6959,7.6555,7.6232,7.5755,7.5168,7.4771,7.4368,7.3883,7.3391,7.3509,7.3458,7.3634,7.4147,7.4727,7.527,7.5234,7.5197,7.5197,7.5124,7.516,7.4837,7.4111,7.3626,7.323,7.2635,7.2488,7.2709,7.3002,7.3134,7.342,7.4169,7.4858,7.5372,9.3774,9.2609,9.2305,9.1831,9.1203,9.0324,9.0298,9.0541,8.9692,8.9573,8.985,8.9531,8.9758,9.0402,9.0763,9.1309,9.2442,9.2515,9.2742,9.3131,9.3166,9.3014,9.3259,9.381,9.4576,9.5124,9.5522,9.6116,9.6006,9.6245,9.6208,9.5731,9.496,9.441,9.4006,9.2941,9.2207,9.1812,9.1812,9.1812,9.1812,9.1776,9.151,9.084,9.0069,8.9078,8.8087,8.7031,8.6297,8.5637,8.5041,8.4527,8.3895,8.3132,8.2084,8.0946,8.0257,7.9853,7.9743,7.9706,7.9735,8.0367,8.0139,8.0233,8.0461,8.0383,7.9677,7.8744,7.8067,7.7472,7.7362,7.7318,7.7318,7.7318,7.7318,7.7318,7.7318,7.7318,7.7318,7.7318,7.7318,7.7244,7.7105,7.7069,7.6738,7.6452,7.5902,7.5535,7.5146,7.4728,7.4434,7.4661,7.4712,7.4647,7.4955,7.5351,7.5821,7.6004,7.5968,7.5968,7.5784,7.5674,7.53,7.5072,7.4771,7.4294,7.3487,7.3002,7.3516,7.3846,7.3927,7.428,7.5014,7.5455,7.589,9.362,9.3315,9.1981,9.1387,9.1068,8.983,8.9289,8.9424,8.9221,8.912,8.9424,8.9154,8.9226,8.9428,8.9456,9.013,9.0906,9.127,9.1665,9.2285,9.2467,9.2467,9.2778,9.2979,9.3855,9.4554,9.5055,9.5662,9.6243,9.6612,9.6612,9.6245,9.5474,9.496,9.4042,9.3051,9.2574,9.1959,9.1812,9.1812,9.1812,9.1812,9.1702,9.1436,9.084,9.0216,8.9592,8.85,8.7664,8.7422,8.6286,8.569,8.5368,8.4764,8.436,8.3251,8.1717,7.9816,8.0073,8.033,8.0726,8.146,8.1379,8.1713,8.1868,8.1272,8.0162,7.8707,7.8479,7.8104,7.7619,7.7391,7.7318,7.7399,7.7472,7.748,7.7488,7.7664,7.7619,7.7443,7.7488,7.7362,7.7244,7.7244,7.7208,7.6922,7.6636,7.6269,7.599,7.5631,7.5169,7.5292,7.5629,7.5637,7.5542,7.5975,7.6298,7.6628,7.6628,7.6628,7.6518,7.6364,7.6362,7.6106,7.5813,7.5506,7.4911,7.461,7.4683,7.4691,7.4735,7.5212,7.5799,7.6159,7.6452,9.23,9.2199,9.1102,9.0696,9.056,8.956,8.9357,8.9579,8.9289,8.9323,8.9545,8.9255,8.9134,8.9134,8.9134,8.94,8.9853,8.9989,9.0183,9.0723,9.0893,9.0806,9.1091,9.2151,9.334,9.3844,9.5082,9.6183,9.6618,9.662,9.6539,9.5942,9.5208,9.4336,9.3675,9.2794,9.2244,9.1886,9.1812,9.1812,9.1812,9.1812,9.1812,9.1776,9.1033,9.0739,9.0363,8.9592,8.8638,8.8269,8.7362,8.693,8.6425,8.5755,8.5241,8.5086,8.3654,8.2443,8.2039,8.2223,8.2553,8.2774,8.292,8.323,8.3153,8.2043,8.0918,8.0094,7.9515,7.8919,7.8259,7.8067,7.8031,7.8031,7.8031,7.8313,7.8321,7.8091,7.8075,7.787,7.7613,7.7488,7.7362,7.7281,7.7281,7.7179,7.7032,7.6848,7.6738,7.668,7.6166,7.5696,7.6165,7.6562,7.6416,7.6489,7.6775,7.6995,7.7032,7.7032,7.7142,7.7082,7.6949,7.6949,7.6723,7.6408,7.6151,7.5637,7.516,7.5315,7.5572,7.6012,7.6452,7.6702,7.6959,9.0932,9.071,9.0357,9.0222,9.0154,8.941,8.939,8.9782,8.9323,8.9424,8.9647,8.9357,8.9134,8.9134,8.9134,8.917,8.9142,8.9134,8.9134,8.9134,8.9134,8.9268,8.9826,9.1155,9.1991,9.2467,9.3742,9.5139,9.5947,9.612,9.5867,9.5463,9.4813,9.3969,9.3088,9.2354,9.1849,9.1849,9.1812,9.1812,9.1812,9.1812,9.1812,9.1629,9.1289,9.0922,9.0767,9.0143,8.9354,8.9024,8.8271,8.7729,8.7252,8.6554,8.6151,8.6004,8.5188,8.4637,8.4168,8.4058,8.4307,8.4344,8.4307,8.4315,8.3389,8.2251,8.1342,8.0938,8.0755,7.9955,7.9184,7.889,7.889,7.889,7.889,7.9307,7.9545,7.9165,7.8657,7.8276,7.7975,7.7627,7.7472,7.7355,7.7281,7.7281,7.7318,7.7318,7.7281,7.7244,7.6951,7.6349,7.6576,7.6995,7.6922,7.6959,7.7215,7.7318,7.7318,7.7318,7.7318,7.7318,7.72,7.7244,7.7318,7.7134,7.6702,7.6114,7.5637,7.6078,7.6445,7.6665,7.6995,7.7215,7.7318,8.9884,8.9323,8.9951,9.0188,9.0106,8.9424,8.912,8.9289,8.9168,8.9168,8.9255,8.912,8.9134,8.9134,8.9134,8.9134,8.9134,8.9134,8.9134,8.9134,8.9134,8.9134,8.9442,8.9785,9.0349,9.1168,9.2429,9.356,9.4413,9.4923,9.5107,9.5321,9.4765,9.3904,9.3088,9.2281,9.1959,9.1923,9.1877,9.1812,9.1812,9.1812,9.1812,9.1812,9.1739,9.1702,9.1657,9.0913,9.0345,9.0079,8.9143,8.8418,8.8078,8.7353,8.6958,8.6839,8.6619,8.6069,8.5637,8.5159,8.5086,8.5425,8.5462,8.5049,8.3976,8.4197,8.3287,8.1746,8.1893,8.1342,8.0432,7.9771,8.0139,8.0139,8.0249,8.0296,8.0365,7.9966,7.9473,7.8821,7.8365,7.8009,7.7619,7.7509,7.7318,7.7318,7.7318,7.7318,7.7318,7.7281,7.7281,7.7061,7.7098,7.7252,7.7252,7.7318,7.7318,7.7318,7.7318,7.7318,7.7318,7.7318,7.7318,7.7318,7.7318,7.7318,7.7281,7.6775,7.6592,7.6988,7.7244,7.7179,7.7142,7.7252,7.7318,8.9357,8.912,8.941,8.9526,8.9478,8.9221,8.9134,8.9134,8.9134,8.9134,8.9134,8.9134,8.9134,8.9134,8.9134,8.9134,8.9134,8.9134,8.9134,8.9134,8.9134,8.9134,8.9261,8.9813,9.0614,9.1014,9.1665,9.2382,9.3502,9.364,9.392,9.4187,9.459,9.4133,9.3308,9.2326,9.218,9.2317,9.2079,9.1812,9.1812,9.1812,9.1812,9.1812,9.1812,9.1812,9.1739,9.151,9.1106,9.0611,8.9941,8.9427,8.8905,8.8152,8.7794,8.7684,8.739,8.6986,8.6693,8.6252,8.6252,8.6261,8.6086,8.5535,8.4756,8.4829,8.4352,8.3618,8.3361,8.292,8.2288,8.2031,8.2105,8.1929,8.1725,8.1603,8.1435,8.117,8.0534,8.0052,7.9134,7.8405,7.8031,7.7656,7.7472,7.7318,7.7318,7.7318,7.7318,7.7318,7.7318,7.7318,7.7318,7.7318,7.7318,7.7318,7.7318,7.7318,7.7318,7.7318,7.7318,7.7318,7.7318,7.7318,7.7318,7.7318,7.7318,7.7318,7.7281,7.7281,7.7281,7.7281,7.7281,7.7355,7.7399,8.9134,8.9134,8.9134,8.9134,8.9134,8.9134,8.9134,8.9134,8.9134,8.9134,8.9134,8.9134,8.9134,8.9134,8.9134,8.9134,8.9134,8.9134,8.9134,8.9134,8.9134,8.9134,8.9414,8.9758,9.0143,9.0671,9.1194,9.1778,9.2344,9.2333,9.2812,9.3514,9.4146,9.3677,9.3071,9.2398,9.2298,9.2564,9.2527,9.2189,9.2207,9.1923,9.1812,9.1812,9.1812,9.1812,9.1812,9.1693,9.1492,9.107,9.0629,9.028,8.9675,8.9079,8.862,8.8372,8.8087,8.7711,8.7638,8.7198,8.717,8.7215,8.6628,8.6297,8.6004,8.56,8.5261,8.4499,8.4646,8.4637,8.3895,8.3573,8.3499,8.3287,8.3141,8.3018,8.3047,8.2835,8.2011,8.1302,8.0437,7.9764,7.8919,7.8544,7.7949,7.7656,7.7318,7.7318,7.7318,7.7318,7.7318,7.7318,7.7318,7.7318,7.7318,7.7318,7.7318,7.7318,7.7318,7.7318,7.7318,7.7355,7.7318,7.7318,7.7318,7.7318,7.7318,7.7326,7.7318,7.7281,7.7355,7.7399,7.7656,7.7729,7.7693,8.9134,8.9134,8.9134,8.9134,8.9134,8.9134,8.9134,8.9134,8.9134,8.9134,8.9134,8.9134,8.9134,8.9134,8.9134,8.9134,8.9134,8.9134,8.9134,8.9134,8.9134,8.9134,8.9142,8.9331,8.9532,8.924,8.971,9.0376,9.1048,9.1026,9.1686,9.2481,9.2916,9.2919,9.2453,9.2377,9.2377,9.2451,9.2701,9.2717,9.2536,9.2051,9.1849,9.1812,9.1812,9.1812,9.1812,9.1812,9.1684,9.1537,9.1042,9.0757,9.0546,8.9795,8.9392,8.9317,8.9253,8.9179,8.9179,8.7867,8.7684,8.8014,8.7537,8.7243,8.7096,8.6803,8.6407,8.5637,8.5527,8.538,8.4939,8.4646,8.4711,8.4674,8.4535,8.4315,8.43,8.4003,8.3141,8.2573,8.2182,8.1599,8.0469,7.9515,7.8699,7.8141,7.7509,7.7318,7.7391,7.7318,7.7318,7.7318,7.7318,7.7318,7.7318,7.7318,7.7318,7.7318,7.7436,7.7582,7.7619,7.7656,7.7582,7.7399,7.7318,7.7318,7.7326,7.7326,7.7509,7.7729,7.7546,7.7619,7.7921,7.8214,7.8288,8.9134,8.9134,8.9134,8.9134,8.9134,8.9134,8.9134,8.9134,8.9134,8.9134,8.9134,8.9134,8.9134,8.9134,8.9134,8.9134,8.9134,8.9134,8.9134,8.9134,8.9134,8.9134,8.9134,8.9134,8.9134,8.9134,8.9156,8.9274,8.9717,8.9949,9.0582,9.1347,9.1693,9.2087,9.2208,9.1982,9.1318,9.1791,9.1896,9.1822,9.1839,9.1779,9.1721,9.1712,9.1721,9.1812,9.1812,9.1812,9.1812,9.1812,9.1353,9.1344,9.1207,9.0566,9.0217,9.0042,8.9886,8.94,8.9363,8.8776,8.8739,8.8821,8.8674,8.8445,8.8556,8.8014,8.7472,8.6995,8.6664,8.6509,8.6252,8.6215,8.6215,8.6105,8.5877,8.5447,8.5207,8.4719,8.4098,8.3794,8.3419,8.2337,8.1195,8.0616,7.991,7.9176,7.8618,7.7876,7.7693,7.7436,7.7326,7.7318,7.7318,7.7318,7.7355,7.7693,7.7994,7.8141,7.8177,7.8259,7.8214,7.8141,7.7899,7.7797,7.7561,7.7318,7.7619,7.7921,7.8104,7.8177,7.8324,7.8544,7.8993,7.9258,7.9294,8.9134,8.9134,8.9134,8.9134,8.9134,8.9134,8.9134,8.9134,8.9134,8.9134,8.9134,8.9134,8.9134,8.9134,8.9134,8.9134,8.9134,8.9134,8.9134,8.9134,8.9134,8.9134,8.9134,8.9134,8.9134,8.9168,8.9357,8.9466,8.9274,8.9433,8.9825,9.0238,9.0362,9.0667,9.1043,9.0869,9.1016,9.1328,9.1266,9.109,9.1086,9.1074,9.1116,9.1239,9.1463,9.1812,9.1812,9.1812,9.1812,9.1812,9.1812,9.1812,9.1602,9.1363,9.1015,9.0794,9.062,9.0289,9.0289,9.0289,9.0289,9.0253,8.9803,8.9583,8.9583,8.9042,8.8491,8.8051,8.7904,8.7647,8.7463,8.7463,8.7353,8.7206,8.6867,8.6429,8.619,8.571,8.5346,8.5032,8.4482,8.3274,8.2186,8.1636,8.1122,8.0424,7.9771,7.9058,7.8361,7.8075,7.7921,7.7949,7.8067,7.8259,7.8369,7.8471,7.8736,7.8956,7.8993,7.8993,7.9001,7.8956,7.8576,7.8334,7.8421,7.8479,7.8434,7.8581,7.8956,7.9286,7.9572,7.9837,8.0175,8.0147,8.0073,8.9134,8.9134,8.9134,8.9134,8.9134,8.9134,8.9134,8.9134,8.9134,8.9134,8.9134,8.9134,8.9134,8.9134,8.9134,8.9134,8.9187,8.9187,8.9168,8.9187,8.9255,8.9187,8.9168,8.9134,8.9134,8.9357,8.9512,8.9444,8.9187,8.9478,8.9556,8.9389,8.9442,8.9628,8.9879,9.0222,9.0525,9.0401,9.0393,9.0233,9.0271,9.0047,9.0095,9.0359,9.0873,9.1332,9.1491,9.1638,9.1739,9.1812,9.1812,9.1812,9.1776,9.1812,9.1776,9.173,9.1657,9.1546,9.1473,9.1436,9.1473,9.1179,9.0363,9.0216,9.0143,8.9922,8.9335,8.8968,8.8785,8.8564,8.839,8.8316,8.8243,8.794,8.761,8.739,8.726,8.6958,8.663,8.6237,8.5749,8.4792,8.3801,8.3104,8.2443,8.2113,8.1599,8.1305,8.0498,7.9318,7.92,7.9176,7.9294,7.9501,7.953,7.9294,7.9507,7.9727,7.9808,7.9845,7.9808,7.9779,7.9465,7.9362,7.9604,7.9596,7.9221,7.947,8.0028,8.0314,8.0498,8.0828,8.102,8.0653,8.0542,8.9134,8.9134,8.9134,8.9134,8.9134,8.9134,8.9134,8.9134,8.9134,8.9134,8.9134,8.9134,8.9134,8.9134,8.9134,8.9134,8.9289,8.9478,8.9424,8.9424,8.9444,8.9424,8.9289,8.9134,8.9134,8.9187,8.9323,8.9444,8.9187,8.9458,8.9424,8.9148,8.9134,8.9134,8.9254,8.9463,8.9362,8.9234,8.929,8.9354,8.9275,8.9042,8.9176,8.9682,9.0218,9.0575,9.0697,9.1342,9.1583,9.1703,9.1785,9.1812,9.1812,9.1812,9.1776,9.1812,9.1776,9.1776,9.1812,9.1812,9.1812,9.1812,9.1216,9.1289,9.1179,9.073,9.0106,8.9812,8.9629,8.9445,8.9225,8.9078,8.9042,8.8858,8.8564,8.837,8.8269,8.8178,8.7822,8.7178,8.669,8.5783,8.4866,8.4352,8.3773,8.3618,8.3398,8.3067,8.246,8.1207,8.0538,8.0477,8.0421,8.0604,8.0175,7.9926,8.0204,8.0461,8.0681,8.0865,8.0901,8.0807,8.0419,8.033,8.0547,8.0225,7.9735,8.0249,8.1085,8.1085,8.1232,8.1599,8.1791,8.1497,8.1277,8.824,8.826,8.8578,8.8815,8.91,8.9134,8.9134,8.9134,8.9134,8.9134,8.9134,8.9134,8.9134,8.9134,8.9134,8.9134,8.9154,8.939,8.9424,8.9357,8.9613,8.939,8.9187,8.9134,8.9134,8.9154,8.9323,8.9526,8.9235,8.9134,8.9134,8.9134,8.9134,8.9134,8.9142,8.913,8.8716,8.8449,8.8304,8.8402,8.8397,8.8396,8.8763,8.9026,8.951,8.9704,8.9827,9.0733,9.103,9.1249,9.137,9.1812,9.1812,9.1812,9.1812,9.1812,9.1812,9.1812,9.1812,9.1812,9.1812,9.1812,9.1812,9.1739,9.1629,9.1289,9.0849,9.051,9.0436,9.0289,9.006,8.9877,8.9877,8.9877,8.961,8.9371,8.9334,8.9325,8.8783,8.8112,8.7295,8.6351,8.571,8.5315,8.4874,8.4389,8.4168,8.4058,8.3532,8.2655,8.208,8.1901,8.1701,8.1607,8.1204,8.1166,8.1791,8.2141,8.2141,8.2251,8.2141,8.1864,8.155,8.1464,8.1473,8.1285,8.1224,8.1554,8.2105,8.2068,8.2068,8.2435,8.2663,8.259,8.237,8.6927,8.7028,8.7685,8.8409,8.8951,8.9052,8.9134,8.9134,8.9134,8.9134,8.9134,8.9134,8.9134,8.9134,8.9134,8.9134,8.9187,8.9376,8.941,8.9168,8.9458,8.9357,8.9187,8.9134,8.9134,8.9357,8.9478,8.9492,8.9235,8.9134,8.9134,8.9134,8.9134,8.9134,8.9134,8.9134,8.8815,8.8493,8.8304,8.8327,8.8164,8.8318,8.8593,8.8587,8.8937,8.9338,8.9374,8.9657,9.0022,9.0463,9.0838,9.151,9.1776,9.1812,9.1812,9.1812,9.1812,9.1812,9.1812,9.1812,9.1812,9.1812,9.1812,9.1812,9.1702,9.1666,9.1289,9.1143,9.0987,9.0959,9.0803,9.0693,9.0693,9.062,9.0445,9.028,9.0234,9.0005,8.94,8.8647,8.7828,8.6958,8.6297,8.5894,8.582,8.5196,8.5049,8.5086,8.4727,8.4035,8.3549,8.3251,8.3018,8.2886,8.3046,8.3141,8.3801,8.4013,8.3683,8.3573,8.3426,8.3104,8.2708,8.2741,8.2809,8.3083,8.3189,8.3234,8.3096,8.2949,8.3067,8.3353,8.3499,8.3573,8.3471,8.6893,8.6961,8.7685,8.8139,8.8328,8.8883,8.9134,8.9134,8.9134,8.9134,8.9134,8.9134,8.9134,8.9134,8.9134,8.9134,8.9187,8.9424,8.9478,8.9444,8.9512,8.939,8.9201,8.9134,8.9134,8.9168,8.9255,8.9357,8.9168,8.9134,8.9134,8.9134,8.9134,8.9134,8.9134,8.9134,8.8965,8.8714,8.868,8.8443,8.8175,8.7545,8.7347,8.7725,8.8186,8.8529,8.869,8.9058,8.9967,9.08,9.0447,9.0924,9.173,9.1776,9.1812,9.1812,9.1812,9.1812,9.1812,9.1812,9.1812,9.1812,9.1812,9.1812,9.1812,9.1812,9.1739,9.162,9.1546,9.1546,9.1519,9.1473,9.14,9.1326,9.1253,9.1179,9.1069,9.0519,8.9896,8.919,8.8381,8.7692,8.7031,8.6738,8.6619,8.6546,8.6509,8.6427,8.619,8.5665,8.4911,8.4555,8.427,8.4208,8.4417,8.4674,8.5049,8.4939,8.449,8.4527,8.4609,8.4287,8.39,8.4078,8.4237,8.4318,8.429,8.427,8.4132,8.3838,8.3985,8.4233,8.4564,8.4682,8.4535,8.5878,8.6,8.7062,8.7922,8.8511,8.8951,8.9134,8.9134,8.9134,8.9134,8.9134,8.9134,8.9134,8.9134,8.9134,8.9134,8.9201,8.9492,8.939,8.9357,8.941,8.9357,8.9221,8.9134,8.9134,8.9134,8.9134,8.9134,8.9134,8.9134,8.9134,8.9134,8.9134,8.9134,8.9134,8.9134,8.9134,8.91,8.9134,8.8863,8.8443,8.8071,8.7868,8.8171,8.8081,8.8181,8.8252,8.8629,8.9295,9.0406,9.064,9.1035,9.1738,9.2115,9.2134,9.1923,9.1812,9.1812,9.1812,9.1812,9.1812,9.1812,9.1812,9.1812,9.1812,9.1812,9.1812,9.1693,9.1693,9.1702,9.1702,9.1666,9.1666,9.1592,9.1583,9.151,9.1271,9.0868,9.0428,9.0015,8.9298,8.8748,8.8271,8.8234,8.8115,8.8115,8.8042,8.761,8.7373,8.6969,8.6317,8.5758,8.5354,8.5151,8.5196,8.549,8.593,8.5673,8.5343,8.5086,8.4976,8.5111,8.512,8.5123,8.5143,8.5143,8.5114,8.5123,8.4756,8.4352,8.4682,8.5123,8.5416,8.5673,8.5637,8.4728,8.4965,8.6217,8.7583,8.8849,8.8951,8.9032,8.9086,8.9134,8.9134,8.9134,8.9134,8.9134,8.9134,8.9134,8.9134,8.9168,8.9255,8.9154,8.9134,8.9168,8.9201,8.9201,8.9134,8.9134,8.9134,8.9134,8.9134,8.9134,8.9134,8.9134,8.9134,8.9134,8.9134,8.9134,8.9134,8.9134,8.9134,8.9134,8.9134,8.91,8.91,8.8849,8.8646,8.8477,8.8125,8.8205,8.8341,8.8609,8.9555,9.0685,9.1196,9.1554,9.1947,9.2069,9.1904,9.1812,9.1812,9.1812,9.1812,9.1812,9.1812,9.1812,9.1812,9.1812,9.1812,9.1812,9.1812,9.1812,9.1812,9.1812,9.1812,9.1812,9.1812,9.1812,9.1812,9.1482,9.1189,9.0923,9.0665,9.0143,8.9583,8.94,8.94,8.94,8.9436,8.9253,8.8812,8.8344,8.7792,8.7185,8.6619,8.6153,8.6015,8.6004,8.6187,8.6582,8.6582,8.6252,8.5702,8.5453,8.58,8.6029,8.5947,8.5967,8.5922,8.5922,8.593,8.549,8.5086,8.5481,8.5958,8.6032,8.6325,8.6693,8.4999,8.5587,8.5905,8.6853,8.8105,8.8226,8.8545,8.9066,8.91,8.9134,8.9134,8.9134,8.9134,8.9134,8.9134,8.9134,8.9134,8.9134,8.9134,8.9134,8.9134,8.9134,8.9134,8.9134,8.9134,8.91,8.9052,8.9086,8.9018,8.9066,8.91,8.9086,8.91,8.9134,8.9134,8.9134,8.9134,8.9134,8.9134,8.9134,8.9134,8.8984,8.868,8.8612,8.868,8.8409,8.8263,8.8102,8.8721,8.9539,9.0386,9.095,9.1384,9.1703,9.1843,9.2051,9.1923,9.1812,9.1812,9.1812,9.1812,9.1812,9.1812,9.1812,9.1812,9.1812,9.1812,9.1812,9.1812,9.1812,9.1812,9.1812,9.1812,9.1812,9.1812,9.1812,9.1647,9.1492,9.1354,9.0996,9.0583,9.0106,8.9702,8.9693,8.973,8.973,8.9776,8.9335,8.8793,8.8397,8.8036,8.7571,8.7062,8.685,8.6766,8.6766,8.7023,8.717,8.7206,8.6803,8.6628,8.6803,8.6885,8.6591,8.6628,8.6656,8.6693,8.6518,8.6509,8.6215,8.6509,8.6757,8.6803,8.6766,8.6949]},{"header":{"parameterUnit":"m.s-1","parameterCategory":1,"la1":31.0,"la2":29.5877,"lo1":-88.7671,"lo2":-86.6584,"dy":0.0162,"dx":0.0185,"nx":115,"ny":88,"refTime":"2023-03-27T06:00:00:Z","depth":0,"parameterNumber":3,"parameterNumberName":"V-component_of_WINDS"},"data":[0.0,0.0,0.0,0.0,0.0,0.0,0.0,0.0,0.0,0.0,0.0,0.0,0.0,0.0,0.0,0.0,0.0,0.0,0.0,0.0,0.0,0.0,0.0,0.0,0.0,0.0,0.0,0.0,0.0,0.0,0.0,0.0,0.0,0.0,0.0,0.0,0.0,0.0,0.0,0.0,0.0,0.0,0.0,0.0,0.0,0.0,0.0,0.0,0.0,0.0,0.0,0.0,0.0,0.0,0.0,0.0,0.0,0.0,0.0,0.0,0.0,0.0,0.0,0.0,0.0,0.0,0.0,0.0,0.0,0.0,0.0,0.0,0.0,0.0,0.0,0.0,0.0,0.0,0.0,0.0,0.0,0.0,0.0,0.0,0.0,0.0,0.0,0.0,0.0,0.0,0.0,0.0,0.0,0.0,0.0,0.0,0.0,0.0,0.0,0.0,0.0,0.0,0.0,0.0,0.0,0.0,0.0,0.0,0.0,0.0,0.0,0.0,0.0,0.0,0.0,0.0,0.0,0.0,0.0,0.0,0.0,0.0,0.0,0.0,0.0,0.0,0.0,0.0,0.0,0.0,0.0,0.0,0.0,0.0,0.0,0.0,0.0,0.0,0.0,0.0,0.0,0.0,0.0,0.0,0.0,0.0,0.0,0.0,0.0,0.0,0.0,0.0,0.0,0.0,0.0,0.0,0.0,0.0,0.0,0.0,0.0,0.0,0.0,0.0,0.0,0.0,0.0,0.0,0.0,0.0,0.0,0.0,0.0,0.0,0.0,0.0,0.0,0.0,0.0,0.0,0.0,0.0,0.0,0.0,0.0,0.0,0.0,0.0,0.0,0.0,0.0,0.0,0.0,0.0,0.0,0.0,0.0,0.0,0.0,0.0,0.0,0.0,0.0,0.0,0.0,0.0,0.0,0.0,0.0,0.0,0.0,0.0,0.0,0.0,0.0,0.0,0.0,0.0,0.0,0.0,0.0,0.0,0.0,0.0,0.0,0.0,0.0,0.0,0.0,0.0,0.0,0.0,0.0,0.0,0.0,0.0,0.0,0.0,0.0,0.0,0.0,0.0,0.0,0.0,0.0,0.0,0.0,0.0,0.0,0.0,0.0,0.0,0.0,0.0,0.0,0.0,0.0,0.0,0.0,0.0,0.0,0.0,0.0,0.0,0.0,0.0,0.0,0.0,0.0,0.0,0.0,0.0,0.0,0.0,0.0,0.0,0.0,0.0,0.0,0.0,0.0,0.0,0.0,0.0,0.0,0.0,0.0,0.0,0.0,0.0,0.0,0.0,0.0,0.0,0.0,0.0,0.0,0.0,0.0,0.0,0.0,0.0,0.0,0.0,0.0,0.0,0.0,0.0,0.0,0.0,0.0,0.0,0.0,0.0,0.0,0.0,0.0,0.0,0.0,0.0,0.0,0.0,0.0,0.0,0.0,0.0,0.0,0.0,0.0,0.0,0.0,0.0,0.0,0.0,0.0,0.0,0.0,0.0,0.0,0.0,0.0,0.0,0.0,0.0,0.0,0.0,0.0,0.0,0.0,0.0,0.0,0.0,0.0,0.0,0.0,0.0,0.0,0.0,0.0,0.0,0.0,0.0,0.0,0.0,0.0,0.0,0.0,0.0,0.0,0.0,0.0,0.0,0.0,0.0,0.0,0.0,0.0,0.0,0.0,0.0,0.0,0.0,0.0,0.0,0.0,0.0,0.0,0.0,0.0,0.0,0.0,0.0,0.0,0.0,0.0,0.0,0.0,0.0,0.0,0.0,0.0,0.0,0.0,0.0,0.0,0.0,0.0,0.0,0.0,0.0,0.0,0.0,0.0,0.0,0.0,0.0,0.0,0.0,0.0,0.0,0.0,0.0,0.0,0.0,0.0,0.0,0.0,0.0,0.0,0.0,0.0,0.0,0.0,0.0,0.0,0.0,0.0,0.0,0.0,0.0,0.0,0.0,0.0,0.0,0.0,0.0,0.0,0.0,0.0,0.0,0.0,0.0,0.0,0.0,0.0,0.0,0.0,0.0,0.0,0.0,0.0,0.0,0.0,0.0,0.0,0.0,0.0,0.0,0.0,0.0,0.0,0.0,0.0,0.0,0.0,0.0,0.0,0.0,0.0,0.0,0.0,0.0,0.0,0.0,0.0,0.0,0.0,0.0,0.0,0.0,0.0,0.0,0.0,0.0,0.0,0.0,0.0,0.0,0.0,0.0,0.0,0.0,0.0,0.0,0.0,0.0,0.0,0.0,0.0,0.0,0.0,0.0,0.0,0.0,0.0,0.0,0.0,0.0,0.0,0.0,0.0,0.0,0.0,0.0,0.0,0.0,0.0,0.0,0.0,0.0,0.0,0.0,0.0,0.0,0.0,0.0,0.0,0.0,0.0,0.0,0.0,0.0,0.0,0.0,0.0,0.0,0.0,0.0,0.0,0.0,0.0,0.0,0.0,0.0,0.0,0.0,0.0,0.0,0.0,0.0,0.0,0.0,0.0,0.0,0.0,0.0,0.0,0.0,0.0,0.0,0.0,0.0,0.0,0.0,0.0,0.0,0.0,0.0,0.0,0.0,0.0,0.0,0.0,0.0,0.0,0.0,0.0,0.0,0.0,0.0,0.0,0.0,0.0,0.0,0.0,0.0,0.0,0.0,0.0,0.0,0.0,0.0,0.0,0.0,0.0,0.0,0.0,0.0,0.0,0.0,0.0,0.0,0.0,0.0,0.0,0.0,0.0,0.0,0.0,0.0,0.0,0.0,0.0,0.0,0.0,0.0,0.0,0.0,0.0,0.0,0.0,0.0,0.0,0.0,0.0,0.0,0.0,0.0,0.0,0.0,0.0,0.0,0.0,0.0,0.0,0.0,0.0,0.0,0.0,0.0,0.0,0.0,0.0,0.0,0.0,0.0,0.0,0.0,0.0,0.0,0.0,0.0,0.0,0.0,0.0,0.0,0.0,0.0,0.0,0.0,0.0,0.0,0.0,0.0,0.0,0.0,0.0,0.0,0.0,0.0,0.0,0.0,0.0,0.0,0.0,0.0,0.0,0.0,0.0,0.0,0.0,0.0,0.0,0.0,0.0,0.0,0.0,0.0,0.0,0.0,0.0,0.0,0.0,0.0,0.0,0.0,0.0,0.0,0.0,0.0,0.0,0.0,0.0,0.0,0.0,0.0,0.0,0.0,0.0,0.0,0.0,0.0,0.0,0.0,0.0,0.0,0.0,0.0,0.0,0.0,0.0,0.0,0.0,0.0,0.0,0.0,0.0,0.0,0.0,0.0,0.0,0.0,0.0,0.0,0.0,0.0,0.0,0.0,0.0,0.0,0.0,0.0,0.0,0.0,0.0,0.0,0.0,0.0,0.0,0.0,0.0,0.0,0.0,0.0,0.0,0.0,0.0,0.0,0.0,0.0,0.0,0.0,0.0,0.0,0.0,0.0,0.0,0.0,0.0,0.0,0.0,0.0,0.0,0.0,0.0,0.0,0.0,0.0,0.0,0.0,0.0,0.0,0.0,0.0,0.0,0.0,0.0,0.0,0.0,0.0,0.0,0.0,0.0,0.0,0.0,0.0,0.0,0.0,0.0,0.0,0.0,0.0,0.0,0.0,0.0,0.0,0.0,0.0,0.0,0.0,0.0,0.0,0.0,0.0,0.0,0.0,0.0,0.0,0.0,0.0,0.0,0.0,0.0,0.0,0.0,0.0,0.0,0.0,0.0,0.0,0.0,0.0,0.0,0.0,0.0,0.0,0.0,0.0,0.0,0.0,0.0,0.0,0.0,0.0,0.0,0.0,0.0,0.0,0.0,0.0,0.0,0.0,0.0,0.0,0.0,0.0,0.0,0.0,0.0,0.0,0.0,0.0,0.0,0.0,0.0,0.0,0.0,0.0,0.0,0.0,0.0,0.0,0.0,0.0,0.0,0.0,0.0,0.0,0.0,0.0,0.0,0.0,0.0,0.0,0.0,0.0,0.0,0.0,0.0,0.0,0.0,0.0,0.0,0.0,0.0,0.0,0.0,0.0,0.0,0.0,0.0,0.0,0.0,0.0,0.0,0.0,0.0,0.0,0.0,0.0,0.0,0.0,0.0,0.0,0.0,0.0,0.0,0.0,0.0,0.0,0.0,0.0,0.0,0.0,0.0,0.0,0.0,0.0,0.0,0.0,0.0,0.0,0.0,0.0,0.0,0.0,0.0,0.0,0.0,0.0,0.0,0.0,0.0,0.0,0.0,0.0,0.0,0.0,0.0,0.0,0.0,0.0,0.0,0.0,0.0,0.0,0.8635,0.0,0.0,0.0,0.0,0.0,0.0,0.0,0.0,0.0,0.0,0.0,0.0,0.0,0.0,0.0,0.0,0.0,0.0,0.0,0.0,0.0,0.0,0.0,0.0,0.0,0.0,0.0,0.0,0.0,0.0,0.0,0.0,0.0,0.0,0.0,0.0,0.0,0.0,0.0,0.0,0.0,0.0,0.0,0.0,0.0,0.0,0.0,0.0,0.0,0.0,0.0,0.0,0.0,0.0,0.0,0.0,0.0,0.0,0.0,0.0,0.0,0.0,0.0,0.0,0.0,0.0,0.0,0.0,0.0,0.0,0.0,0.0,0.0,0.0,0.0,0.0,0.0,0.0,0.0,0.0,0.0,0.0,0.0,0.0,0.0,0.0,0.0,0.0,0.0,0.0,0.0,0.0,0.0,0.0,0.0,0.0,0.0,0.0,0.0,0.0,0.0,0.0,0.0,0.0,0.0,0.0,0.0,0.0,0.0,0.0,0.8872,0.8777,0.8588,0.8528,0.8587,0.0,0.0,0.0,0.0,0.0,0.0,0.0,0.0,0.0,0.0,0.0,0.0,0.0,0.0,0.0,0.0,0.0,0.0,0.0,0.0,0.0,0.0,0.0,0.0,0.0,0.0,0.0,0.0,0.0,0.0,0.0,0.0,0.0,0.0,0.0,0.0,0.0,0.0,0.0,0.0,0.0,0.0,0.0,0.0,0.0,0.0,0.0,0.0,0.0,0.0,0.0,0.0,0.0,0.0,0.0,0.0,0.0,0.0,0.0,0.0,0.0,0.0,0.0,0.0,0.0,0.0,0.0,0.0,0.0,0.0,0.0,0.0,0.0,0.0,0.0,0.0,0.0,0.0,0.0,0.0,0.0,0.0,0.0,0.0,0.0,0.0,0.0,0.0,0.0,0.0,0.0,0.0,0.0,0.0,0.0,0.0,0.0,0.0,0.0,0.0,0.0,0.0,0.0,0.0,0.0,0.0,0.0,0.0,0.0,0.0,0.0,0.0,0.8498,0.8472,0.8642,0.0,0.0,0.0,0.0,0.0,0.0,0.0,0.0,0.0,0.0,0.0,0.0,0.0,0.0,0.0,0.0,0.0,0.0,0.0,0.0,0.0,0.0,0.0,0.0,0.0,0.0,0.0,0.0,0.0,0.0,0.0,0.0,0.0,0.0,0.0,0.0,0.0,0.0,0.0,0.0,0.0,0.0,0.0,0.0,0.0,0.0,0.0,0.0,0.0,0.0,0.0,0.0,0.0,0.0,0.0,0.0,0.0,0.0,0.0,0.0,0.0,0.0,0.0,0.0,0.0,0.0,0.0,0.0,0.0,0.0,0.0,0.0,0.0,0.0,0.0,0.0,0.0,0.0,0.0,0.0,0.0,0.0,0.0,0.0,0.0,0.0,0.0,0.0,0.0,0.0,0.0,0.0,0.0,0.0,0.0,0.0,0.0,0.0,0.0,0.0,0.0,0.0,0.0,0.0,0.0,0.0,0.0,0.0,0.0,0.0,0.8598,0.8687,0.8673,0.0,0.9103,0.0,0.0,0.0,0.0,0.0,0.0,0.0,0.0,0.0,0.0,0.0,0.0,0.0,0.0,0.0,0.0,0.0,0.0,0.0,0.0,0.0,0.0,0.0,0.0,0.0,0.0,0.0,0.0,0.0,0.0,0.0,0.0,0.0,0.0,0.0,0.0,0.0,0.0,0.0,0.0,0.0,0.0,0.0,0.0,0.0,0.0,0.0,0.0,0.0,0.0,0.0,0.0,0.0,0.0,0.0,0.0,0.0,0.0,0.0,0.0,0.0,0.0,0.0,0.0,0.0,0.0,0.0,0.0,0.0,0.0,0.0,0.0,0.0,0.0,0.0,0.0,0.0,0.0,0.0,0.0,0.0,0.0,0.0,0.0,0.0,0.0,0.0,0.0,0.0,0.0,0.0,0.0,0.0,0.0,0.0,0.0,0.0,0.0,0.0,0.0,0.0,0.0,0.0,0.0,0.0,0.0,0.0,0.0,0.0,0.0,0.86,0.8805,0.8659,0.8606,0.0,0.0,0.0,0.0,0.0,0.0,0.0,0.0,0.0,0.0,0.0,0.0,0.0,0.0,0.0,0.0,0.0,0.0,0.0,0.0,0.0,0.0,0.0,0.0,0.0,0.0,0.0,0.0,0.0,0.0,0.0,0.0,0.0,0.0,0.0,0.0,0.0,0.0,0.0,0.0,0.0,0.0,0.0,0.0,0.0,0.0,0.0,0.0,0.0,0.0,0.0,0.0,0.0,0.0,0.0,0.0,0.0,0.0,0.0,0.0,0.0,0.0,0.0,0.0,0.0,0.0,0.0,0.0,0.0,0.0,0.0,0.0,0.0,0.0,0.0,0.0,0.0,0.0,0.0,0.0,0.0,0.0,0.0,0.0,0.0,0.0,0.0,0.0,0.0,0.0,0.0,0.0,0.0,0.0,0.0,0.0,0.0,0.0,0.0,0.0,0.0,0.0,0.0,0.0,0.0,0.0,0.0,0.0,0.0,0.0,0.8471,0.8437,0.8674,0.8375,0.8258,0.8393,0.0,0.0,0.0,0.0,0.0,0.0,0.0,0.0,0.0,0.0,0.0,0.0,0.0,0.0,0.0,0.0,0.0,0.0,0.0,0.0,0.0,0.0,0.0,0.0,0.0,0.0,0.0,0.0,0.0,0.0,0.0,0.0,0.0,0.0,0.0,0.0,0.0,0.0,0.0,0.0,0.0,0.0,0.0,0.0,0.0,0.0,0.0,0.0,0.0,0.0,0.0,0.0,0.0,0.0,0.0,0.0,0.0,0.0,0.0,0.0,0.0,0.0,0.0,0.0,0.0,0.0,0.0,0.0,0.0,0.0,0.0,0.0,0.0,0.0,0.0,0.0,0.0,0.0,0.0,0.0,0.0,0.0,0.0,0.0,0.0,0.0,0.0,0.0,0.0,0.0,0.0,0.0,0.0,0.0,0.0,0.0,0.0,0.0,0.0,0.0,0.0,0.0,0.0,0.0,0.0,0.0,0.0,0.0,0.8431,0.8049,0.7962,0.8225,0.7725,0.7839,0.0,0.0,0.0,0.0,0.0,0.0,0.0,0.0,0.0,0.0,0.0,0.0,0.0,0.0,0.0,0.0,0.0,0.0,0.0,0.0,0.0,0.0,0.0,0.0,0.0,0.0,0.0,0.0,0.0,0.0,0.0,0.0,0.0,0.0,0.0,0.0,0.0,0.0,0.0,0.0,0.0,0.0,0.0,0.0,0.0,0.0,0.0,0.0,0.0,0.0,0.0,0.0,0.0,0.0,0.0,0.0,0.0,0.0,0.0,0.0,0.0,0.0,0.0,0.0,0.0,0.0,0.0,0.0,0.0,0.0,0.0,0.0,0.0,0.0,0.0,0.0,0.0,0.0,0.0,0.0,0.0,0.0,0.0,0.0,0.0,0.0,0.0,0.0,0.0,0.0,0.0,0.0,0.0,0.0,0.0,0.0,0.0,0.0,0.0,0.0,0.0,0.0,0.0,0.0,0.0,0.0,0.0,0.0,0.0,0.8458,0.8414,0.8389,0.8382,0.8007,0.7981,0.0,0.0,0.0,0.0,0.0,0.0,0.0,0.0,0.0,0.0,0.0,0.0,0.0,0.0,0.0,0.0,0.0,0.0,0.0,0.0,0.0,0.0,0.0,0.0,0.0,0.0,0.0,0.0,0.0,0.0,0.0,0.0,0.0,0.0,0.0,0.0,0.0,0.0,0.0,0.0,0.0,0.0,0.0,0.0,0.0,0.0,0.0,0.0,0.0,0.0,0.0,0.0,0.0,0.0,0.0,0.0,0.0,0.0,0.0,0.0,0.0,0.0,0.0,0.0,0.0,0.0,0.0,0.0,0.0,0.0,0.0,0.0,0.0,0.0,0.0,0.0,0.0,0.0,0.0,0.0,0.0,0.0,0.0,0.0,0.0,0.0,0.0,0.0,0.0,0.0,0.0,0.0,0.0,0.0,0.0,0.0,0.0,0.0,0.0,0.0,0.0,0.0,0.0,0.0,0.0,0.0,0.0,0.0,0.0,0.8396,0.0,0.8292,0.8458,0.8024,0.7964,0.0,0.0,0.0,0.0,0.0,0.0,0.0,0.0,0.0,0.0,0.0,0.0,0.0,0.0,0.0,0.0,0.0,0.0,0.0,0.0,0.0,0.0,0.0,0.0,0.0,0.0,0.0,0.0,0.0,0.0,0.0,0.0,0.0,0.0,0.0,0.0,0.0,0.0,0.0,0.0,0.0,0.0,0.0,0.0,0.0,0.0,0.0,0.0,0.0,0.0,0.0,0.0,0.0,0.0,0.0,0.0,0.0,0.0,0.0,0.0,0.0,0.0,0.0,0.0,0.0,0.0,0.0,0.0,0.0,0.0,0.0,0.0,0.0,0.0,0.0,0.0,0.0,0.0,0.0,0.0,0.0,0.0,0.0,0.0,0.0,0.0,0.0,0.0,0.0,0.0,0.0,0.0,0.0,0.0,0.0,0.0,0.0,0.0,0.0,0.0,0.0,0.0,0.0,0.0,0.0,0.0,0.0,0.0,0.8402,0.8174,0.7606,0.7695,0.8366,0.7804,0.7724,0.0,0.0,0.0,0.0,0.0,0.0,0.0,0.0,0.0,0.0,0.0,0.0,0.0,0.0,0.0,0.0,0.0,0.0,0.0,0.0,0.0,0.0,0.0,0.0,0.0,0.0,0.0,0.0,0.0,0.0,0.0,0.0,0.0,0.0,0.0,0.0,0.0,0.0,0.0,0.0,0.0,0.0,0.0,0.0,0.0,0.0,0.0,0.0,0.0,0.0,0.0,0.0,0.0,0.0,0.0,0.0,0.0,0.0,0.0,0.0,0.0,0.0,0.0,0.0,0.0,0.0,0.0,0.0,0.0,0.0,0.0,0.0,0.0,0.0,0.0,0.0,0.0,0.0,0.0,0.0,0.0,0.0,0.0,0.0,0.0,0.0,0.0,0.0,0.0,0.0,0.0,0.0,0.0,0.0,0.0,0.0,0.0,0.0,0.0,0.0,0.0,0.0,0.0,0.0,0.0,0.0,0.0,0.0,0.0,0.8067,0.8281,0.8548,0.892,0.8434,0.8339,0.0,0.0,0.0,0.0,0.0,0.0,0.0,0.0,0.0,0.0,0.0,0.0,0.0,0.0,0.0,0.0,0.0,0.0,0.0,0.0,0.0,0.0,0.0,0.0,0.0,0.0,0.0,0.0,0.0,0.0,0.0,0.0,0.0,0.0,0.0,0.0,0.0,0.0,0.0,0.0,0.0,0.0,0.0,0.0,0.0,0.0,0.0,0.0,0.0,0.0,0.0,0.0,0.0,0.0,0.0,0.0,0.0,0.0,0.0,0.0,0.0,0.0,0.0,0.0,0.0,0.0,0.0,0.0,0.0,0.0,0.0,0.0,0.0,0.0,0.0,0.0,0.0,0.0,0.0,0.0,0.0,0.0,0.0,0.0,0.0,0.0,0.0,0.0,0.0,0.0,0.0,0.0,0.0,0.0,0.0,0.0,0.0,0.0,0.0,0.0,0.0,0.0,0.0,0.0,0.0,0.0,0.0,0.0,0.0,0.8924,0.8979,0.9175,0.9482,0.9126,0.8872,0.8827,0.0,0.0,0.0,0.0,0.0,0.0,0.0,0.0,0.0,0.0,0.0,0.0,0.0,0.0,0.0,0.0,0.0,0.0,0.0,0.0,0.0,0.0,0.0,0.0,0.0,0.0,0.0,0.0,0.0,0.0,0.0,0.0,0.0,0.0,0.0,0.0,0.0,0.0,0.0,0.0,0.0,0.0,0.0,0.0,0.0,0.0,0.0,0.0,0.0,0.0,0.0,0.0,0.0,0.0,0.0,0.0,0.0,0.0,0.0,0.0,0.0,0.0,0.0,0.0,0.0,0.0,0.0,0.0,0.0,0.0,0.0,0.0,0.0,0.0,0.0,0.0,0.0,0.0,0.0,0.0,0.0,0.0,0.0,0.0,0.0,0.0,0.0,0.0,0.0,0.0,0.0,0.0,0.0,0.0,0.0,0.0,0.0,0.0,0.0,0.0,0.0,0.0,0.0,0.0,0.0,0.0,0.0,0.0,1.0579,0.984,0.9675,1.0132,0.9845,0.9372,0.0,0.0,0.0,0.0,0.0,0.0,0.0,0.0,0.0,0.0,0.0,0.0,0.0,0.0,0.0,0.0,0.0,0.0,0.0,0.0,0.0,0.0,0.0,0.0,0.0,0.0,0.0,0.0,0.0,0.0,0.0,0.0,0.0,0.0,0.0,0.0,0.0,0.0,0.0,0.0,0.0,0.0,0.0,0.0,0.0,0.0,0.0,0.0,0.0,0.0,0.0,0.0,0.0,0.0,0.0,0.0,0.0,0.0,0.0,0.0,0.0,0.0,0.0,0.0,0.0,0.0,0.0,0.0,0.0,0.0,0.0,0.0,0.0,0.0,0.0,0.0,0.0,0.0,0.0,0.0,0.0,0.0,0.0,0.0,0.0,0.0,0.0,0.0,0.0,0.0,0.0,0.0,0.0,0.0,0.0,0.0,0.0,0.0,0.0,0.0,0.0,0.0,0.0,0.0,0.0,0.0,0.0,0.0,0.0,1.1575,1.2047,1.2105,1.1696,1.087,1.0305,0.0,0.0,0.0,0.0,0.0,0.0,0.0,0.0,0.0,0.0,0.0,0.0,0.0,0.0,0.0,0.0,0.0,0.0,0.0,0.0,0.0,0.0,0.0,0.0,0.0,0.0,0.0,0.0,0.0,0.0,0.0,0.0,0.0,0.0,0.0,0.0,0.0,0.0,0.0,0.0,0.0,0.0,0.0,0.0,0.0,0.0,0.0,0.0,0.0,0.0,0.0,0.0,0.0,0.0,0.0,0.0,0.0,0.0,0.0,0.0,0.0,0.0,0.0,0.0,0.0,0.0,0.0,0.0,0.0,0.0,0.0,0.0,0.0,0.0,0.0,0.0,0.0,0.0,0.0,0.0,0.0,0.0,0.0,0.0,0.0,0.0,0.0,0.0,0.0,0.0,0.0,0.0,0.0,0.0,0.0,0.0,0.0,0.0,0.0,0.0,0.0,0.0,0.0,0.0,0.0,0.0,0.0,0.0,1.1578,1.2483,1.3682,1.4087,1.3614,1.2265,1.1209,0.0,0.0,0.0,0.0,0.0,0.0,0.0,0.0,0.0,0.0,0.0,0.0,0.0,0.0,0.0,0.0,0.0,0.0,0.0,0.0,0.0,0.0,0.0,0.0,0.0,0.0,0.0,0.0,0.0,0.0,0.0,0.0,0.0,0.0,0.0,0.0,0.0,0.0,0.0,0.0,0.0,0.0,0.0,0.0,0.0,0.0,0.0,0.0,0.0,0.0,0.0,0.0,0.0,0.0,0.0,0.0,0.0,0.0,0.0,0.0,0.0,0.0,0.0,0.0,0.0,0.0,0.0,0.0,0.0,0.0,0.0,0.0,0.0,0.0,0.0,0.0,0.0,0.0,0.0,0.0,0.0,0.0,0.0,0.0,0.0,0.0,0.0,0.0,0.0,0.0,0.0,0.0,0.0,0.0,0.0,0.0,0.0,0.0,0.0,0.0,0.0,0.0,0.0,0.0,0.0,0.0,0.0,0.0,1.2523,1.3315,1.4859,1.5611,1.5438,1.3687,1.2069,0.0,0.0,0.0,0.0,0.0,0.0,0.0,0.0,0.0,0.0,0.0,0.0,0.0,0.0,0.0,0.0,0.0,0.0,0.0,0.0,0.0,0.0,0.0,0.0,0.0,0.0,0.0,0.0,0.0,0.0,0.0,0.0,0.0,0.0,0.0,0.0,0.0,0.0,0.0,0.0,0.0,0.0,0.0,0.0,0.0,0.0,0.0,0.0,0.0,0.0,0.0,0.0,0.0,0.0,0.0,0.0,0.0,0.0,0.0,0.0,0.0,0.0,0.0,0.0,0.0,0.0,0.0,0.0,0.0,0.0,0.0,0.0,0.0,0.0,0.0,0.0,0.0,0.0,0.0,0.0,0.0,0.0,0.0,0.0,0.0,0.0,0.0,0.0,0.0,0.0,0.0,0.0,0.0,0.0,0.0,0.0,0.0,0.0,0.0,0.0,0.0,0.0,0.0,0.0,0.0,0.0,0.0,0.0,1.3247,1.4217,1.5475,1.6096,1.5934,1.3995,1.25,0.0,0.0,0.0,0.0,0.0,0.0,0.0,0.0,0.0,0.0,0.0,0.0,0.0,0.0,0.0,0.0,0.0,0.0,0.0,0.0,0.0,0.0,0.0,0.0,0.0,0.0,0.0,0.0,0.0,0.0,0.0,0.0,0.0,0.0,0.0,0.0,0.0,0.0,0.0,0.0,0.0,0.0,0.0,0.0,0.0,0.0,0.0,0.0,0.8248,0.0,0.0,0.0,0.0,0.0,0.0,0.0,0.0,0.0,0.0,0.0,0.0,0.0,0.0,0.0,0.0,0.0,0.0,0.0,0.0,0.0,0.0,0.0,0.0,0.0,0.0,0.0,0.0,0.0,0.0,0.0,0.0,0.0,0.0,0.0,0.0,0.0,0.0,0.0,0.0,0.0,0.0,0.0,0.0,0.0,0.0,0.0,0.0,0.0,0.0,0.0,0.0,0.0,0.0,0.0,0.0,0.0,0.0,0.0,1.3696,1.4713,1.59,1.6417,1.6239,1.462,1.3207,0.0,0.0,0.0,0.0,0.0,0.0,0.0,0.0,0.0,0.0,0.0,0.0,0.0,0.0,0.0,0.0,0.0,0.0,0.0,0.0,0.0,0.0,0.0,0.0,0.0,0.0,0.0,0.0,0.0,0.0,0.0,0.0,0.0,0.0,0.0,0.0,0.0,0.0,0.0,0.0,0.0,0.0,0.0,0.0,0.0,0.0,0.0,0.0,0.0,0.0,0.0,0.0,0.0,0.0,0.0,0.0,0.0,0.0,0.0,0.0,0.0,0.0,0.0,0.0,0.0,0.0,0.0,0.0,0.0,0.0,0.0,0.0,0.0,0.0,0.0,0.0,0.0,0.0,0.0,0.0,0.0,0.0,0.0,0.0,0.0,0.0,0.0,0.0,0.0,0.0,0.0,0.0,0.0,0.0,0.0,0.0,0.0,0.0,0.0,0.0,0.0,0.0,0.0,0.0,0.0,0.0,0.0,1.2779,1.4176,1.5743,1.6412,1.6881,1.709,1.5494,1.3977,1.2661,0.0,0.0,0.0,0.0,0.0,0.0,0.0,0.0,0.0,0.0,0.0,0.0,0.0,0.0,0.0,0.0,0.0,0.0,0.0,0.0,0.0,0.0,0.0,0.0,0.0,0.0,0.0,0.0,0.0,0.0,0.0,0.0,0.0,0.0,0.0,0.0,0.0,0.0,0.7978,0.8187,0.0,0.0,0.0,0.0,0.0,0.0,0.0,0.0,0.8241,0.0,0.0,0.0,0.0,0.0,0.0,0.0,0.0,0.0,0.0,0.0,0.0,0.0,0.0,0.0,0.0,0.0,0.0,0.0,0.0,0.0,0.0,0.0,0.0,0.0,0.0,0.0,0.0,0.0,0.0,0.0,0.0,0.0,0.0,0.0,0.0,0.0,0.0,0.0,0.0,0.0,0.0,0.0,0.0,0.0,0.0,0.0,0.0,0.0,0.0,0.0,0.0,0.0,0.0,0.0,0.0,1.2291,1.303,1.5315,1.9207,1.7767,1.7904,1.9736,1.6837,1.4525,1.3113,0.0,0.0,0.0,0.0,0.0,0.0,0.0,0.0,0.0,0.0,0.0,0.0,0.0,0.0,0.0,0.0,0.0,0.0,0.0,0.0,0.0,0.0,0.0,0.0,0.0,0.0,0.0,0.0,0.0,0.0,0.0,0.0,0.0,0.0,0.0,0.0,0.0,0.0,0.0,0.8662,0.8771,0.0,0.0,0.0,0.0,0.0,0.0,0.0,0.0,0.856,0.0,0.0,0.0,0.0,0.0,0.0,0.0,0.0,0.0,0.0,0.0,0.0,0.0,0.0,0.0,0.0,0.0,0.0,0.0,0.0,0.0,0.0,0.0,0.0,0.0,0.0,0.0,0.0,0.0,0.0,0.0,0.0,0.0,0.0,0.0,0.0,0.0,0.0,0.0,0.0,0.0,0.0,0.0,0.0,0.0,0.0,0.0,0.0,0.0,0.0,0.0,0.0,0.0,0.0,0.0,1.2918,1.4712,1.6552,1.8283,1.7482,1.8114,2.0326,1.7342,1.5528,0.0,0.0,0.0,0.0,0.0,0.0,0.0,0.0,0.0,0.0,0.0,0.0,0.0,0.0,0.0,0.0,0.0,0.0,0.0,0.0,0.0,0.0,0.0,0.0,0.0,0.0,0.0,0.0,0.0,0.0,0.0,0.0,0.0,0.0,0.0,0.0,0.0,0.0,0.0,0.0,0.9015,0.909,0.9449,0.0,0.0,0.0,0.0,0.0,0.0,0.8757,0.8676,0.0,0.0,0.0,0.0,0.0,0.0,0.0,0.0,0.0,0.0,0.0,0.0,0.0,0.0,0.0,0.0,0.0,0.0,0.0,0.0,0.0,0.0,0.0,0.0,0.0,0.0,0.0,0.0,0.0,0.0,0.0,0.0,0.0,0.0,0.0,0.0,0.0,0.0,0.0,0.0,0.0,0.0,0.0,0.0,0.0,0.0,0.0,0.0,0.0,0.0,0.0,0.0,0.0,0.0,0.0,1.4132,1.7021,1.8797,1.9155,1.8856,1.9756,2.193,1.8691,1.7005,0.0,0.0,0.0,0.0,0.0,0.0,0.0,0.0,0.0,0.0,0.0,0.0,0.0,0.0,0.0,0.0,0.0,0.0,0.0,0.0,0.0,0.0,0.0,0.0,0.0,0.0,0.0,0.0,0.0,0.0,0.0,0.0,0.0,0.0,0.0,0.0,0.0,0.0,0.0,0.0,0.0,0.9423,0.9712,0.9649,0.0,0.0,0.0,0.0,0.8947,0.9001,0.0,0.0,0.0,0.0,0.0,0.0,0.0,0.0,0.0,0.0,0.0,0.0,0.0,0.0,0.0,0.0,0.0,0.0,0.0,0.0,0.0,0.0,0.0,0.0,0.0,0.0,0.0,0.0,0.0,0.0,0.0,0.0,0.0,0.0,0.0,0.0,0.0,0.0,0.0,0.0,0.0,0.0,0.0,0.0,0.0,0.0,0.0,0.0,0.0,0.0,0.0,0.0,0.0,0.0,0.0,0.0,1.6842,1.9736,2.3334,2.7309,2.54,2.5358,2.7581,2.2594,1.9201,0.0,0.0,0.0,0.0,0.0,0.0,0.0,0.0,0.0,0.0,0.0,0.0,0.0,0.0,0.0,0.0,0.0,0.0,0.0,0.0,0.0,0.0,0.0,0.0,0.0,0.0,0.0,0.0,0.0,0.0,0.0,0.0,0.0,0.0,0.0,0.0,0.0,0.0,0.0,0.0,0.0,0.9705,0.9646,0.9698,0.964,0.0,0.0,0.0,0.961,1.0059,0.0,0.0,0.0,0.0,0.0,0.0,0.0,0.0,0.0,0.0,0.0,0.0,0.0,0.0,0.0,0.0,0.0,0.0,0.0,0.0,0.0,0.0,0.0,0.0,0.0,0.0,0.0,0.0,0.0,0.0,0.0,0.0,0.0,0.0,0.0,0.0,0.0,0.0,0.0,0.0,0.0,0.0,0.0,0.0,0.0,0.0,0.0,0.0,0.0,0.0,0.0,0.0,0.0,0.0,0.0,1.7411,1.8376,2.2212,2.5039,2.6551,2.5546,2.5971,2.8012,2.3053,2.0296,0.0,0.0,0.0,0.0,0.0,0.0,0.0,0.0,0.0,0.0,0.0,0.0,0.0,0.0,0.0,0.0,0.0,0.0,0.0,0.0,0.0,0.0,0.0,0.0,0.0,0.0,0.0,0.0,0.0,0.0,0.0,0.0,0.0,0.0,0.0,0.0,0.0,0.0,0.0,0.0,0.0,0.0,0.9857,1.0259,0.0,0.0,0.0,1.0692,0.9855,0.0,0.0,0.0,0.0,0.0,0.0,0.0,0.0,0.0,0.0,0.0,0.0,0.0,0.0,0.0,0.0,0.0,0.0,0.0,0.0,0.0,0.0,0.0,0.0,0.0,0.0,0.0,0.0,0.0,0.0,0.0,0.0,0.0,0.0,0.0,0.0,0.0,0.0,0.0,0.0,0.0,0.0,0.0,0.0,0.0,0.0,0.0,0.0,0.0,0.0,0.0,0.0,0.0,0.0,0.0,0.0,0.0,1.9964,2.4733,2.7144,2.6874,2.6865,2.7394,2.85,2.4243,0.0,0.0,0.0,0.0,0.0,0.0,0.0,0.0,0.0,0.0,0.0,0.0,0.0,0.0,0.0,0.0,0.0,0.0,0.0,0.0,0.0,0.0,0.0,0.0,0.0,0.0,0.0,0.806,0.0,0.0,0.0,0.0,0.0,0.0,0.0,0.0,0.0,0.0,0.0,0.0,0.0,0.0,1.0583,1.0136,1.0772,1.1056,0.0,0.0,1.0924,1.0154,1.0537,1.0717,0.0,0.0,0.0,0.0,0.0,0.0,0.0,0.0,0.0,0.0,0.0,0.0,0.0,0.0,0.0,0.0,0.0,0.0,0.0,0.0,0.0,0.0,0.0,0.0,0.0,0.0,0.0,0.0,0.0,0.0,0.0,0.0,0.0,0.0,0.0,0.0,0.0,0.0,0.0,0.0,0.0,0.0,0.0,0.0,0.0,0.0,0.0,0.0,0.0,0.0,0.0,0.0,0.0,0.0,0.0,2.2376,2.744,3.0822,3.2337,3.244,3.213,3.1389,2.7767,2.4522,0.0,0.0,0.0,0.0,0.0,0.0,0.0,0.0,0.0,0.0,0.0,0.0,0.0,0.0,0.0,0.0,0.0,0.0,0.0,0.0,0.0,0.0,0.0,0.0,0.0,0.0,0.0,0.0,0.0,0.0,0.0,0.0,0.0,0.0,0.0,0.0,0.0,0.0,0.0,0.0,0.0,1.0738,1.0331,1.1021,1.1475,0.0,0.0,1.1068,1.0683,1.1382,1.1594,1.0473,0.0,0.0,0.0,0.0,0.0,0.0,0.0,0.0,0.0,0.0,0.0,0.0,0.0,0.0,0.0,0.0,0.0,0.0,0.0,0.0,0.0,0.0,0.0,0.0,0.0,0.0,0.0,0.0,0.0,0.0,0.0,0.0,0.0,0.0,0.0,0.0,0.0,0.0,0.0,0.0,0.0,0.0,0.0,0.0,0.0,0.0,0.0,0.0,0.0,0.0,0.0,0.0,0.0,2.2245,2.4037,2.8395,3.1246,3.2385,3.2661,3.2166,3.0912,2.7925,2.5001,0.0,0.0,0.0,0.0,0.0,0.0,0.0,0.0,0.0,0.0,0.0,0.0,0.0,0.0,0.0,0.0,0.0,0.0,0.0,0.0,0.0,0.0,0.0,0.0,0.0,0.0,0.0,0.0,0.8526,0.871,0.8775,0.0,0.0,0.0,0.0,0.0,0.0,0.0,0.0,0.0,0.0,1.1016,1.088,1.1615,0.0,0.0,1.1768,1.1829,1.1384,1.1594,1.1617,1.1128,1.0523,0.0,0.0,0.0,0.0,0.0,0.0,0.0,0.0,0.0,0.0,0.0,0.0,0.0,0.0,0.0,0.0,0.0,0.0,0.0,0.0,0.0,0.0,0.0,0.0,0.0,0.0,0.0,0.0,0.0,0.0,0.0,0.0,0.0,0.0,0.0,0.0,0.0,0.0,0.0,0.0,0.0,0.0,0.0,0.0,0.0,0.0,0.0,0.0,0.0,0.0,0.0,0.0,2.3097,2.4812,2.8662,3.1152,3.2078,3.2249,3.1724,3.0413,2.8053,2.5472,0.0,0.0,0.0,0.0,0.0,0.0,0.0,0.0,0.0,0.0,0.0,0.0,0.0,0.0,0.0,0.0,0.0,0.0,0.0,0.0,0.0,0.0,0.0,0.0,0.0,0.0,0.0,0.0,0.8974,0.9016,0.8838,0.0,0.0,0.0,0.0,0.0,0.0,0.0,0.0,0.0,0.0,1.1251,1.1307,1.2137,1.2554,1.2018,1.2166,1.2267,1.1891,1.1734,1.1573,1.1377,0.0,0.0,0.0,0.0,0.0,0.0,0.0,0.0,0.0,0.0,0.0,0.0,0.0,0.0,0.0,0.0,0.0,0.0,0.0,0.0,0.0,0.0,0.0,0.0,0.0,0.0,0.0,0.0,0.0,0.0,0.0,0.0,0.0,0.0,0.0,0.0,0.0,0.0,0.0,0.0,0.0,0.0,0.0,0.0,0.0,0.0,0.0,0.0,0.0,0.0,0.0,0.0,0.0,0.0,2.4367,2.8365,3.0952,3.2038,3.1861,3.1323,3.04,2.8639,2.6266,2.3253,0.0,0.0,0.0,0.0,0.0,0.0,0.0,0.0,0.0,0.0,0.0,0.0,0.0,0.0,0.0,0.0,0.0,0.0,0.0,0.0,0.0,0.0,0.0,0.0,0.0,0.0,0.9341,0.9492,0.9314,0.0,0.0,0.0,0.0,0.0,0.0,0.0,0.0,0.0,0.0,1.0724,1.142,1.1495,1.2555,1.3172,1.2711,1.2349,1.2134,1.2172,1.1908,1.1555,0.0,0.0,0.0,0.0,0.0,0.0,0.0,0.0,0.0,0.0,0.0,0.0,0.0,0.0,0.0,0.0,0.0,0.0,0.0,0.0,0.0,0.0,0.0,0.0,0.0,0.0,0.0,0.0,0.0,0.0,0.0,0.0,0.0,0.0,0.0,0.0,0.0,0.0,0.0,0.0,2.148,2.1357,0.0,0.0,0.0,0.0,0.0,0.0,0.0,0.0,0.0,0.0,0.0,0.0,2.3793,2.5128,2.857,3.0858,3.1794,3.1741,3.1156,3.0087,2.8925,2.6617,2.3041,0.0,0.0,0.0,0.0,0.0,0.0,0.0,0.0,0.0,0.0,0.0,0.0,0.0,0.0,0.0,0.0,0.0,0.0,0.0,0.0,0.0,0.0,0.0,0.0,0.0,0.9441,0.0,0.0,0.0,0.0,0.0,0.0,0.0,0.0,0.0,0.0,0.0,1.0109,1.0251,1.1148,1.1852,1.1947,1.267,1.3056,0.0,0.0,0.0,0.0,0.0,0.0,0.0,0.0,0.0,0.0,0.0,0.0,0.0,0.0,0.9801,0.9381,0.9317,0.9335,0.9335,0.0,0.0,0.0,0.0,0.0,0.0,0.0,0.0,0.0,0.0,0.0,0.0,0.0,0.0,0.0,0.0,2.045,0.0,0.0,0.0,0.0,0.0,0.0,0.0,0.0,2.1748,2.252,2.3155,2.3132,2.3029,0.0,2.2339,2.1247,0.0,0.0,0.0,0.0,0.0,0.0,0.0,0.0,2.3976,2.5305,2.8512,3.0658,3.1487,3.1433,3.0902,2.9927,2.8543,2.6454,2.3508,2.1525,1.9557,0.0,0.0,0.0,0.0,0.0,0.0,0.0,0.0,0.0,0.0,0.0,0.0,0.0,0.0,0.0,0.0,0.0,0.0,0.0,0.0,0.0,0.0,0.0,0.9924,0.0,0.0,0.0,0.0,0.0,0.0,0.0,0.0,0.0,0.9813,1.0224,1.0639,1.089,1.1521,1.2062,1.2357,0.0,0.0,0.0,0.0,0.0,0.0,0.0,1.186,1.1705,1.1387,1.1093,1.0965,1.0888,1.0732,1.0368,0.0,0.0,0.9887,0.9686,0.9647,0.9694,0.9774,0.9883,1.0025,1.0184,1.036,0.0,0.0,0.0,0.0,0.0,0.0,0.0,0.0,2.2435,2.1949,0.0,2.1505,0.0,0.0,0.0,0.0,0.0,0.0,0.0,0.0,2.4784,2.5524,2.477,2.5197,2.5171,2.4653,2.3763,2.3027,2.2414,2.1658,0.0,0.0,0.0,0.0,0.0,0.0,2.406,2.5035,2.8213,3.0305,3.1146,3.0915,3.0474,2.9797,2.7615,2.5865,2.4647,2.2883,2.168,2.1142,1.8823,0.0,0.0,0.0,0.0,0.0,0.0,0.0,0.0,0.0,0.0,0.0,0.0,0.0,0.0,0.0,0.0,0.0,0.0,0.0,0.0,1.0311,0.0,0.0,0.0,0.0,0.0,0.0,0.0,0.0,0.0,0.0,1.0557,1.0731,1.1045,1.1637,0.0,0.0,0.0,0.0,1.281,1.3053,1.2944,1.2823,1.2765,1.2509,1.2101,1.16,0.0,0.0,1.1226,1.1603,1.1752,1.1321,1.1204,1.1051,1.0482,1.0197,1.0109,1.0276,1.034,1.0387,1.0537,1.0789,1.0951,2.5283,0.0,0.0,0.0,0.0,2.3384,2.3962,2.4927,2.489,2.4484,2.3822,2.3952,0.0,0.0,0.0,0.0,0.0,0.0,2.3264,2.4249,2.5144,2.601,2.6806,2.6766,2.666,2.6507,2.6016,2.5574,2.5204,2.4793,2.3337,2.0926,0.0,0.0,0.0,0.0,2.4594,2.5974,2.8363,3.0056,3.0902,3.0421,2.9673,2.8714,2.7208,2.6039,2.5258,2.3713,2.2749,2.2374,2.0488,0.0,0.0,0.0,0.0,0.0,0.0,0.0,0.0,0.0,0.0,0.0,0.0,0.0,0.0,0.0,0.0,0.0,0.0,0.0,1.0689,1.0716,1.0753,0.0,0.0,0.0,0.0,0.0,0.0,0.0,0.0,0.0,1.1457,1.1591,1.177,0.0,0.0,1.2655,1.2954,1.2865,1.2816,1.2927,0.0,0.0,0.0,1.2281,1.2067,1.1827,1.1745,1.1736,1.1832,1.1948,1.2001,1.1841,1.1725,1.1605,1.1577,1.107,1.0748,1.089,1.1029,1.1158,1.1378,1.1606,1.1821,2.8037,2.6346,2.5042,2.477,2.5226,2.5328,2.599,2.7034,2.6984,2.655,2.5839,2.5892,2.4983,2.334,2.3044,0.0,0.0,0.0,2.4521,2.5931,2.6188,2.6812,2.7682,2.7783,2.769,2.7469,2.7255,2.6941,2.6547,2.6009,2.4929,2.3239,0.0,0.0,2.1961,2.3707,2.523,2.6508,2.8494,2.9882,3.0618,3.0047,2.9254,2.824,2.7269,2.6366,2.5531,2.4399,2.354,2.2899,2.1398,2.0008,0.0,0.0,0.0,0.0,0.0,0.0,0.0,0.0,0.0,0.0,0.0,1.0292,0.0,0.0,0.0,0.0,1.0721,1.0813,1.0989,1.0921,0.0,0.0,0.0,0.0,0.0,0.0,0.0,1.1495,1.147,1.1561,1.1975,1.2144,1.2291,1.2405,1.2547,1.2729,1.2986,0.0,1.2817,1.2896,1.3281,1.3351,1.2659,1.246,1.2319,1.2026,1.2015,1.2078,1.2164,1.223,1.2253,1.2253,1.2128,1.2062,1.2227,1.1816,1.1432,1.1436,1.157,1.1767,1.2021,1.229,1.2526,3.0381,2.9847,2.7148,2.6413,2.7034,2.7369,2.7984,2.8724,2.8751,2.8212,2.7328,2.7385,2.6373,2.4592,2.3847,0.0,0.0,2.4967,2.5792,2.7389,2.7703,2.7863,2.7869,2.8422,2.8404,2.7843,2.7816,2.7522,2.6941,2.603,2.572,2.5992,2.4889,2.3859,2.3058,2.46,2.5924,2.6865,2.8547,2.9708,3.0257,2.9749,2.9048,2.8138,2.755,2.6673,2.5512,2.4871,2.403,2.297,2.1835,2.0822,1.9947,0.0,0.0,0.0,0.0,0.0,0.0,0.0,0.0,0.0,0.0,0.0,0.0,0.0,0.0,0.0,1.0784,0.0,1.0991,1.0989,0.0,0.0,0.0,1.1079,1.1193,1.1083,1.1068,1.1226,0.0,0.0,0.0,0.0,1.2601,1.2596,1.2524,1.255,1.2893,1.2864,1.2818,1.2919,1.314,1.3209,1.2885,1.2812,1.2599,1.2141,1.2195,1.2288,1.2288,1.2398,1.2481,1.2492,1.2398,1.2344,1.248,1.237,1.2223,1.1906,1.2006,1.2234,1.2466,1.2732,1.2989,3.2075,3.1503,3.0581,2.9708,2.8906,2.9165,2.9561,2.9962,2.9962,2.9562,2.8923,2.8481,2.7666,2.6599,2.6407,2.6494,2.6767,2.716,2.7581,2.8018,2.8732,2.908,2.9085,2.9432,2.9419,2.908,2.881,2.8516,2.8163,2.7493,2.6887,2.6339,2.6194,2.5698,2.4899,2.5511,2.6394,2.7485,2.8361,2.8991,2.9304,2.9197,2.8596,2.755,2.6948,2.6146,2.5211,2.4427,2.3741,2.3216,2.2493,2.1581,2.0489,1.8451,0.0,0.0,0.0,0.0,0.0,0.0,0.0,0.0,0.0,1.1239,1.0881,0.0,1.1008,0.0,1.0995,1.0968,1.0995,1.0987,0.0,0.0,1.1158,1.1174,1.1209,1.1175,1.1243,1.1472,1.1702,1.1972,1.2244,1.2547,1.2728,1.267,1.2742,1.2861,1.3096,1.2896,1.281,1.2977,1.2855,1.2726,1.2733,1.2564,1.2316,1.195,1.2115,1.225,1.2154,1.2351,1.2506,1.2513,1.2471,1.2458,1.2499,1.2469,1.2427,1.2346,1.2448,1.257,1.2651,1.2915,1.3152,3.2986,3.2652,3.2262,3.1644,3.0872,3.0875,3.0982,3.1152,3.1019,3.0631,3.0007,2.9179,2.8444,2.7903,2.8003,2.7997,2.793,2.8492,2.8781,2.8807,2.9379,2.9628,2.9508,2.9646,2.9566,2.9263,2.9103,2.8863,2.8604,2.8382,2.7955,2.7388,2.7648,2.7488,2.6887,2.6553,2.6787,2.7696,2.8409,2.8828,2.8988,2.9001,2.8396,2.7108,2.6526,2.5738,2.473,2.3852,2.3251,2.2909,2.2472,2.1816,2.0863,1.938,1.7946,0.0,0.0,0.0,0.0,0.0,0.0,0.0,0.0,0.0,0.0,0.0,1.1118,0.0,0.0,0.0,1.1089,1.1082,1.1107,1.1108,1.1174,1.1149,1.1002,1.1151,1.1436,1.1787,1.1917,1.2067,1.2291,1.2645,1.2823,1.263,1.2807,1.2949,1.2963,1.276,1.2661,1.2804,1.2645,1.2542,1.2686,1.2516,1.2305,1.2089,1.2176,1.2256,1.212,1.2269,1.2443,1.2496,1.2509,1.252,1.2502,1.2517,1.2521,1.2528,1.2684,1.282,1.2834,1.2983,1.3139,3.3534,3.3427,3.2944,3.2755,3.2688,3.2396,3.2225,3.2144,3.1915,3.1447,3.0782,2.9704,2.9063,2.8791,2.9023,2.8996,2.8818,2.9361,2.9615,2.9642,2.9904,2.9953,2.9735,2.9775,2.9606,2.9282,2.9202,2.9037,2.8778,2.893,2.8828,2.8577,2.8801,2.8796,2.8436,2.7515,2.7288,2.7816,2.8596,2.8996,2.8935,2.8868,2.8134,2.6754,2.6125,2.5288,2.4128,2.3251,2.2649,2.2361,2.2124,2.175,2.1227,2.0164,1.8843,0.0,1.641,0.0,0.0,0.0,0.0,0.0,0.0,0.0,0.0,1.1132,1.1204,1.1171,1.1295,1.133,1.1172,1.1396,1.1415,1.1067,1.1165,1.1112,1.0842,1.118,1.1636,1.2089,1.2146,1.2186,1.2317,1.2704,1.284,1.2617,1.2771,1.2893,1.2773,1.2613,1.2519,1.2516,1.2515,1.2555,1.2592,1.2523,1.24,1.2264,1.2249,1.2203,1.2065,1.2174,1.2314,1.2441,1.2487,1.248,1.2493,1.25,1.2521,1.2508,1.2738,1.2921,1.2942,1.3037,1.3159,3.4254,3.3788,3.3706,3.348,3.324,3.3187,3.2893,3.2514,3.246,3.1941,3.1106,3.0662,3.0167,2.9686,2.9704,2.9691,2.9664,3.0056,3.0239,3.0266,3.0728,3.0932,3.0879,3.1166,3.1102,3.0772,3.0327,2.9953,2.9637,2.9223,2.8764,2.8299,2.8537,2.8396,0.0,0.0,0.0,0.0,2.8823,2.8881,2.8663,2.8203,2.7375,2.6179,2.5317,0.0,2.351,2.2632,2.2158,2.2071,2.2017,0.0,0.0,0.0,0.0,0.0,0.0,0.0,0.0,0.0,0.0,0.0,1.5945,1.446,1.1325,1.1117,1.1153,1.1101,1.2491,1.2767,1.1147,1.2497,1.2836,1.1377,1.131,1.1291,1.1133,1.1476,1.1901,1.2361,1.2311,1.2305,1.2447,1.2651,1.2733,1.2665,1.2712,1.2813,1.2921,1.2678,1.2544,1.2625,1.2559,1.2464,1.2374,1.2352,1.2237,1.2013,1.2052,1.2059,1.1932,1.2018,1.222,1.2433,1.2419,1.2377,1.2472,1.2523,1.2521,1.2521,1.2651,1.2753,1.276,1.3064,1.3308,3.4749,0.0,3.4027,3.3788,0.0,3.3455,3.324,3.2984,3.285,3.2289,3.1436,3.1313,3.0925,3.0368,3.0648,3.0621,3.0368,3.0832,3.0952,3.0808,3.1089,3.1199,3.1199,3.1236,3.1156,3.0972,3.0738,3.0444,3.015,2.9833,2.9539,2.9311,2.9414,2.9414,2.9245,2.9526,2.9472,2.9045,2.8876,2.8796,2.8783,2.8377,2.7522,2.6232,0.0,0.0,0.0,0.0,0.0,0.0,0.0,0.0,0.0,0.0,0.0,2.025,1.9558,1.9124,1.8985,1.8827,1.8553,1.8143,1.7342,1.5628,1.2697,1.254,1.2528,1.2413,1.3394,1.3973,1.3882,1.4782,1.5069,1.4276,1.4318,1.3714,1.1934,1.2689,1.3222,1.2583,1.2445,1.2427,1.2514,1.2637,1.2672,1.2644,1.2752,1.2834,1.2847,1.2748,1.2658,1.2623,1.2494,1.2379,1.2317,1.2235,1.2161,1.2004,1.1945,1.1918,1.1825,1.1891,1.1964,1.2058,1.2173,1.2348,1.2476,1.2521,1.2521,1.2515,1.2604,1.2733,1.2827,1.3085,1.3336,3.507,3.4749,3.4268,3.4015,3.3948,3.3681,3.3509,3.348,0.0,0.0,0.0,3.1928,3.1634,3.1166,3.1634,3.158,3.1166,3.1567,3.161,3.1359,3.1306,3.1279,3.1266,3.1062,3.0955,3.0942,3.0889,3.0765,3.0537,3.0484,3.048,3.0457,3.048,3.0604,3.0849,3.0822,3.0457,2.9749,2.9085,2.8831,2.893,2.8596,2.7789,2.6413,2.5825,2.4983,2.3924,2.3016,2.2508,2.2402,2.2191,2.1951,2.1772,2.1743,2.138,2.0673,2.0805,2.0899,2.0857,2.1111,2.0897,2.0063,1.8744,1.6971,1.4697,1.454,1.453,1.4412,1.488,1.572,1.6889,1.7356,1.7467,1.7396,1.7524,1.6257,1.3437,1.4551,1.5311,1.3885,1.3774,1.3433,1.317,1.3219,1.2976,1.264,1.2698,1.286,1.2712,1.2714,1.2704,1.2554,1.2433,1.2332,1.2277,1.2188,1.2086,1.2065,1.1904,1.1766,1.1786,1.1773,1.1716,1.1661,1.1952,1.2239,1.2459,1.2474,1.2487,1.2521,1.2604,1.2746,1.2915,1.3078,1.3275,3.5257,3.4789,3.4696,3.4522,3.4255,3.4215,3.4055,3.3801,3.3494,3.3133,3.2824,3.281,3.2637,3.2353,3.2433,3.242,3.234,3.2142,3.2024,0.0,3.173,3.1634,3.162,3.158,3.1567,3.1554,3.1289,3.1119,3.1052,3.0849,3.0751,3.0751,3.0751,3.0875,3.1092,3.0915,3.0728,3.0595,2.978,2.9138,2.8684,2.8123,2.7375,2.6426,2.5825,2.5072,2.4182,2.3523,2.2936,2.2425,2.2298,2.2258,2.2281,2.2248,2.2171,2.2095,2.2115,2.2051,2.1822,2.1858,2.2032,2.2379,2.238,2.0705,1.683,1.6627,1.6741,1.6789,1.8422,1.9173,1.8096,1.9311,1.969,1.8349,1.8175,1.7848,1.7202,1.7685,1.8059,1.7776,1.7739,1.6885,1.5395,1.5094,1.4523,1.3088,1.299,1.2647,1.2609,1.265,1.265,1.2535,1.2488,1.242,1.2303,1.2181,1.2086,1.2079,1.1855,1.1671,1.1818,1.1712,1.1626,1.1606,1.1793,1.2058,1.2375,1.2393,1.2404,1.2481,1.2597,1.2712,1.276,1.2983,1.3227,3.5765,3.5231,3.5083,3.483,3.4562,3.4215,3.4015,3.3855,3.3547,3.3253,3.3038,3.3146,3.2984,3.2621,3.2768,3.2741,3.2581,3.246,3.2369,3.2342,3.2062,3.1904,3.1915,3.1767,3.1724,3.1687,3.1554,3.1463,3.1436,3.1169,3.1116,3.1273,3.1299,3.1366,3.1473,3.1353,3.1206,3.1022,3.0154,2.9432,2.8823,2.8417,2.7762,2.6914,2.6587,2.5972,2.4938,2.4502,2.399,2.3389,2.3098,2.3018,2.3153,2.3018,2.3018,2.3136,2.2976,2.2846,2.2709,2.2712,2.2832,2.3117,2.3394,2.2766,2.0778,1.9743,1.9164,1.9128,2.0185,2.0936,2.1055,2.1926,2.2188,2.151,2.1484,2.1535,2.1477,2.0684,2.0654,2.1412,1.9895,1.8232,1.7303,1.7189,1.6942,1.5845,1.4974,1.386,1.2849,1.2629,1.2602,1.2508,1.2517,1.2408,1.2253,1.2059,1.2004,1.2059,1.1834,1.1742,1.1877,1.1782,1.162,1.1619,1.1777,1.2025,1.2268,1.2362,1.242,1.2474,1.2549,1.2604,1.2693,1.2963,1.3254,3.6232,3.5712,3.5418,3.5124,3.4843,3.4335,3.4082,3.4042,3.3694,3.3387,3.3252,3.3347,3.316,3.2835,3.2973,3.2984,3.277,3.2714,3.2701,3.2661,3.2369,3.2222,3.2209,3.1995,3.1912,3.1912,3.1888,3.1912,3.1885,3.157,3.152,3.1767,3.1794,3.1794,3.1794,3.1727,3.1554,3.1186,3.0532,2.9878,2.9215,2.8951,2.8425,2.7663,2.7449,2.6867,2.5879,2.555,2.505,2.4337,2.3935,2.3763,2.3799,2.3768,2.3768,2.3772,2.3554,2.3416,2.3416,2.3403,2.3447,2.351,2.371,2.3888,2.3847,2.2719,2.1788,2.164,2.1867,2.2591,2.3668,2.4034,2.4173,2.4382,2.4324,2.4172,2.4367,2.3192,2.2799,2.3958,2.1815,1.9911,1.9421,1.9271,1.8988,1.8289,1.717,1.5626,1.4311,1.3723,1.3387,1.3103,1.2828,1.2458,1.2225,1.2025,1.1979,1.2099,1.1837,1.1775,1.1877,1.1775,1.1622,1.1625,1.1819,1.206,1.2161,1.2301,1.2447,1.2507,1.2515,1.2556,1.2665,1.2888,1.318,3.6553,3.6032,3.5698,3.5418,3.5124,3.4829,3.4656,3.4524,3.4082,3.3853,3.3786,3.3521,3.3387,3.3334,3.3322,3.3334,3.328,3.3078,3.2957,3.2931,3.2663,3.2554,3.2554,3.2514,3.2514,3.2487,3.2474,3.246,3.2447,3.2169,3.2038,3.2064,3.2064,3.2064,3.2024,3.1821,3.1554,3.1189,3.1119,3.0665,2.9864,2.9575,2.9134,2.8497,2.7936,2.7362,2.6674,2.6426,2.5745,2.4679,2.4532,2.4279,2.3928,2.4245,2.428,2.3848,2.379,2.3763,2.3763,2.3745,2.3852,2.4088,2.402,2.4166,2.4492,2.4666,2.4618,2.4317,2.4678,2.4885,2.4978,2.4949,2.4922,2.485,2.4711,2.4573,2.4559,2.4444,2.4414,2.4528,2.3951,2.3388,2.1657,2.1309,2.0598,1.9101,1.8629,1.8052,1.7426,1.6391,1.5662,1.5026,1.3826,1.2704,1.2463,1.2254,1.2113,1.2176,1.1879,1.1737,1.1764,1.1737,1.1595,1.161,1.1754,1.1993,1.2285,1.2413,1.2372,1.2493,1.2508,1.2549,1.2665,1.2753,1.2942,3.6967,3.6513,3.6086,3.5618,3.5177,3.4909,3.4789,3.4696,3.4148,3.392,3.3841,3.3547,3.3389,3.3389,3.3389,3.3389,3.3375,3.328,3.3227,3.3213,3.2957,3.2848,3.281,3.2661,3.2594,3.2594,3.2594,3.2594,3.2567,3.2474,3.2382,3.2396,3.2396,3.2302,3.2104,3.1984,3.1784,3.1503,3.1513,3.1223,3.0665,3.0038,2.9379,2.8671,2.8364,2.7869,2.7161,2.68,2.6266,2.5459,2.4889,2.4593,2.4569,2.4579,2.4512,2.4284,2.4115,2.3955,2.3817,2.3946,2.4155,2.4399,2.4393,2.4568,2.5074,2.5169,2.5237,2.5432,2.5459,2.5398,2.5176,2.5224,2.5211,2.4898,2.485,2.4818,2.4618,2.4603,2.4597,2.4603,2.4592,2.4359,2.3593,2.3376,2.2509,2.0879,2.0373,2.0053,1.8883,1.7398,1.6897,1.7009,1.5897,1.4151,1.2859,1.2181,1.2142,1.2041,1.1784,1.1656,1.1816,1.169,1.1597,1.161,1.1797,1.2067,1.243,1.2471,1.244,1.2501,1.2508,1.2549,1.2678,1.2693,1.2875,3.7275,3.6846,3.634,3.5805,3.5297,3.5004,3.4909,3.4843,3.4361,3.4107,3.3975,3.3681,3.3469,3.3389,3.3389,3.3389,3.3389,3.3389,3.3389,3.3387,3.3211,3.3093,3.3066,3.2917,3.281,3.281,3.2824,3.2795,3.2741,3.2808,3.277,3.2728,3.2714,3.2607,3.2358,3.2302,3.2142,3.1979,3.1861,3.1637,3.1266,3.0625,2.9797,2.8938,2.8684,2.8217,2.7449,2.7175,2.6747,2.6125,2.5444,2.511,2.5186,2.4827,2.4644,2.4727,2.4618,2.4476,2.428,2.4449,2.4631,2.4826,2.4844,2.5023,2.5396,2.5513,2.5653,2.5899,2.5825,2.5651,2.5417,2.5438,2.5285,2.4906,2.497,2.4885,2.4866,2.4733,2.4589,2.4587,2.461,2.4599,2.4581,2.4488,2.3852,2.2713,2.2397,2.2049,2.0568,1.9556,1.9141,1.9392,1.8919,1.75,1.4519,1.4014,1.3606,1.3407,1.349,1.3302,1.2703,1.2428,1.1829,1.2004,1.2072,1.2135,1.2332,1.2401,1.2494,1.2501,1.2508,1.2535,1.2623,1.2638,1.2773,3.7434,3.686,3.6313,3.5872,3.5551,3.5284,3.5164,3.5124,3.4856,3.4575,3.4282,3.3988,3.3708,3.344,3.344,3.3414,3.3389,3.3389,3.3389,3.3389,3.3362,3.3362,3.3362,3.3349,3.3335,3.3293,3.328,3.3187,3.2986,3.3227,3.324,3.2998,3.2984,3.2971,3.2891,3.2663,3.2567,3.2474,3.2222,3.1944,3.1674,3.1316,3.0545,2.9526,2.8911,2.8329,2.7776,2.7669,2.7255,2.6413,2.63,2.6053,2.5506,2.4946,2.4787,2.5039,2.5272,2.5424,2.5371,2.5358,2.5411,2.5451,2.5388,2.5466,2.5598,2.5968,2.6155,2.603,2.6192,2.6179,2.5938,2.5718,2.5512,2.5352,2.4951,2.4951,2.5339,2.4871,2.4634,2.4597,2.4589,2.4594,2.4599,2.4599,2.4544,2.429,2.4346,2.4142,2.3833,2.3815,2.3048,2.2204,2.2383,2.2644,1.8855,1.6813,1.6851,1.6488,1.5684,1.6088,1.5088,1.4102,1.321,1.2576,1.2912,1.2905,1.2472,1.2341,1.2467,1.2521,1.2521,1.2535,1.2562,1.2528,1.2684,3.7248,3.6366,3.5925,3.5618,3.5351,3.5244,3.5204,3.5164,3.4909,3.4736,3.4589,3.4295,3.4002,3.3721,3.3708,3.3601,3.3402,3.3389,3.3389,3.3389,3.3389,3.3389,3.3389,3.3389,3.3389,3.3389,3.3389,3.336,3.328,3.3349,3.336,3.328,3.3253,3.3173,3.3024,3.2904,3.2795,3.2607,3.2474,3.2262,3.1931,3.1453,3.0812,3.0096,2.9508,2.8885,2.8297,2.7909,2.7549,2.7228,2.6731,2.63,2.6067,2.5515,2.523,2.5352,2.5451,2.5518,2.5518,2.5518,2.5598,2.5772,2.5617,2.571,2.6019,2.6284,2.6357,2.6312,2.6326,2.6339,2.6286,2.6132,2.5838,2.5344,2.5211,2.5072,2.4938,2.4719,2.4602,2.4595,2.4602,2.4599,2.4639,2.4599,2.4599,2.4599,2.4599,2.4613,2.4599,2.4599,2.4235,2.3828,2.4052,2.4042,2.2618,1.9329,1.7768,1.7412,1.7024,1.6951,1.6325,1.6219,1.5541,1.4757,1.466,1.4763,1.4592,1.3187,1.3151,1.2521,1.2521,1.2521,1.2521,1.2521,1.267,3.6941,3.6206,3.5765,3.5511,3.5324,3.5231,3.5204,3.5177,3.5016,3.4883,3.4749,3.4456,3.4162,3.3895,3.3788,3.3627,3.3402,3.3389,3.3389,3.3389,3.3389,3.3389,3.3389,3.3389,3.3389,3.3389,3.3389,3.3389,3.3389,3.3389,3.3389,3.3375,3.3389,3.332,3.3146,3.312,3.3024,3.2864,3.2757,3.2594,3.2211,3.1664,3.1089,3.0537,2.9949,2.9299,2.8631,2.8131,2.781,2.7661,2.7221,2.6811,2.64,2.5993,2.5798,2.5785,2.5779,2.5892,2.6012,2.5905,2.5972,2.6339,2.6049,2.6017,2.6467,2.646,2.64,2.6407,2.64,2.64,2.64,2.6386,2.6066,2.5403,2.5317,2.5152,2.4679,2.4599,2.4653,2.4759,2.4898,2.4911,2.4898,2.4911,2.4925,2.4898,2.4831,2.4764,2.4751,2.4653,2.4599,2.4599,2.4507,2.4461,2.3692,2.1698,2.0589,2.0176,1.9461,1.8955,1.8262,1.8223,1.7843,1.707,1.6752,1.6916,1.6174,1.4578,1.3537,1.2753,1.2521,1.2521,1.2521,1.2521,1.267,3.6513,3.638,3.5845,3.5578,3.5511,3.5297,3.5204,3.5191,3.5177,3.503,3.4829,3.4482,3.419,3.3895,3.3654,3.344,3.3389,3.3389,3.3389,3.3389,3.3389,3.3389,3.3389,3.3389,3.3389,3.3389,3.3389,3.3389,3.3389,3.3389,3.3389,3.3389,3.3389,3.3375,3.3375,3.336,3.3387,3.3293,3.3093,3.2888,3.2567,3.2005,3.1393,3.0782,3.0194,2.9486,2.8657,2.8345,2.8058,2.7804,2.7978,2.7587,2.664,2.6426,2.6419,2.6406,2.6406,2.6687,2.7075,2.6687,2.6647,2.6974,2.6699,2.654,2.672,2.656,2.6414,2.6453,2.6413,2.64,2.64,2.64,2.6179,2.5611,2.5344,2.505,2.4709,2.4607,2.4719,2.5024,2.5237,2.5478,2.5491,2.5411,2.5365,2.5339,2.5224,2.505,2.4997,2.4799,2.4621,2.4599,2.4586,2.4492,2.4337,2.4091,2.3859,2.3509,2.2677,2.195,2.0784,2.0344,1.983,1.9087,1.7664,1.764,1.6028,1.4541,1.3664,1.2958,1.2784,1.2521,1.2521,1.2541,1.261,3.6393,3.6179,3.5765,3.5485,3.5311,3.5231,3.5204,3.5204,3.5204,3.5163,3.5017,3.4776,3.4469,3.4175,3.3881,3.3614,3.3402,3.3389,3.3389,3.3389,3.3389,3.3389,3.3389,3.3389,3.3389,3.3389,3.3389,3.3389,3.3389,3.3389,3.3389,3.3389,3.3389,3.3389,3.3389,3.3389,3.3389,3.3375,3.332,3.3078,3.2621,3.2195,3.162,3.0835,3.0221,2.9571,2.8895,2.8617,2.8345,2.8037,2.8142,2.7831,2.7191,2.7033,2.7021,2.7021,2.7028,2.7081,2.7242,2.7148,2.7061,2.7235,2.7113,2.706,2.7074,2.6719,2.6533,2.6627,2.652,2.64,2.64,2.64,2.6246,2.5871,2.5577,2.5166,2.4793,2.4952,2.5146,2.5136,2.5331,2.5472,2.5518,2.5531,2.5558,2.5558,2.5451,2.5331,2.513,2.4847,2.4618,2.4597,2.4576,2.4586,2.4452,2.4377,2.4289,2.4035,2.3665,2.339,2.255,2.1936,2.148,2.0952,1.9507,1.8048,1.6339,1.4993,1.4272,1.3209,1.2765,1.2598,1.254,1.2556,1.2644,3.6393,3.6233,3.5912,3.5631,3.5364,3.5364,3.5297,3.5204,3.5204,3.5204,3.5137,3.4923,3.4696,3.4429,3.4068,3.3788,3.3587,3.348,3.3389,3.3389,3.3389,3.3389,3.3389,3.3389,3.3389,3.3389,3.3389,3.3389,3.3389,3.3389,3.3389,3.3389,3.3389,3.3389,3.3389,3.3389,3.3389,3.3375,3.3293,3.3026,3.2621,3.2169,3.1623,3.0969,3.0394,2.986,2.9357,2.897,2.8577,2.8245,2.8106,2.7883,2.7641,2.7436,2.7349,2.7409,2.7355,2.7389,2.7563,2.7429,2.7429,2.755,2.7441,2.7353,2.7368,2.7113,2.7134,2.6954,2.6841,2.6667,2.6587,2.654,2.6433,2.6165,2.5871,2.549,2.5103,2.5264,2.5502,2.5493,2.5692,2.5798,2.5838,2.5838,2.5819,2.5838,2.5745,2.5651,2.536,2.4944,2.4796,2.4685,2.4647,2.4639,2.4599,2.4546,2.4524,2.423,2.3883,2.371,2.3284,2.2916,2.2545,2.2729,2.1819,2.0784,1.9178,1.6999,1.5693,1.4426,1.324,1.2598,1.2508,1.2589,1.2658,3.6677,3.646,3.622,3.5885,3.5591,3.5538,3.5378,3.5217,3.5204,3.5204,3.5137,3.4923,3.4776,3.4655,3.4189,3.3935,3.3855,3.3601,3.3455,3.3467,3.3415,3.3389,3.3389,3.3389,3.3389,3.3389,3.3389,3.3389,3.3389,3.3389,3.3389,3.3389,3.3389,3.3389,3.3389,3.3389,3.3389,3.3349,3.3146,3.2877,3.2581,3.2072,3.158,3.1186,3.0715,3.0247,2.982,2.9223,2.8698,2.8245,2.7944,2.792,2.8013,2.7646,2.7536,2.7716,2.7489,2.7684,2.7924,2.771,2.7617,2.8018,2.7704,2.7433,2.7688,2.7842,2.7762,2.7383,2.7248,2.7108,2.6894,2.682,2.672,2.648,2.6205,2.5879,2.5573,2.5605,2.5823,2.6012,2.6232,2.6406,2.6319,2.6306,2.6319,2.6279,2.6125,2.6011,2.5818,2.5409,2.4982,2.4834,2.4749,2.4642,2.4602,2.4586,2.4551,2.4297,2.4044,2.4008,2.3919,2.3661,2.2928,2.3237,2.3518,2.2712,2.1168,1.8504,1.698,1.6123,1.4782,1.3259,1.2769,1.3067,1.2799,3.8617,3.6541,3.622,3.5899,3.5591,3.5378,3.5284,3.5204,3.5204,3.5204,3.5137,3.4923,3.4802,3.4749,3.4389,3.4202,3.4108,3.3881,3.3761,3.3746,3.3507,3.3389,3.3389,3.3389,3.3389,3.3389,3.3389,3.3389,3.3389,3.3389,3.3389,3.3389,3.3389,3.3389,3.3389,3.3389,3.3389,3.3349,3.3133,3.2888,3.2594,3.2222,3.173,3.1226,3.1052,3.0598,2.994,2.9117,2.8585,2.8232,2.8146,2.8093,2.8163,2.8027,2.7938,2.7991,2.7991,2.7978,2.8119,2.8052,2.8031,2.8152,2.8022,2.7974,2.8058,2.8127,2.7992,2.7645,2.7436,2.7275,2.7181,2.7155,2.7101,2.7021,2.6607,2.6238,2.6078,2.6431,2.6726,2.6399,2.6553,2.658,2.6473,2.64,2.64,2.6373,2.6326,2.6205,2.6018,2.6001,2.5654,2.5071,2.4858,2.4693,2.4605,2.4607,2.4524,2.4329,2.4235,2.4302,2.4235,2.4142,2.306,2.2306,2.2968,2.2571,2.0729,1.844,1.7891,1.7873,1.6368,1.4927,1.4311,1.4195,1.3345,4.2171,4.0406,3.8896,3.8001,3.7395,3.6138,3.5458,3.5231,3.5204,3.5204,3.5151,3.5057,3.495,3.4936,3.4643,3.4403,3.427,3.4015,3.3895,3.388,3.3708,3.3547,3.3454,3.3389,3.3389,3.3389,3.3389,3.3389,3.3389,3.3389,3.3389,3.3389,3.3389,3.3389,3.3389,3.3389,3.3389,3.3335,3.3133,3.2904,3.2768,3.2463,3.2078,3.165,3.1463,3.0955,3.0007,2.9397,2.8871,2.8379,2.82,2.8213,2.8213,2.8213,2.8213,2.8213,2.8213,2.82,2.8213,2.8213,2.8213,2.8213,2.8213,2.8213,2.8207,2.8199,2.8097,2.7932,2.7764,2.763,2.7462,2.7389,2.7322,2.7262,2.7042,2.6774,2.6447,2.7162,2.7276,2.6914,2.6734,2.6707,2.646,2.64,2.64,2.6386,2.6386,2.6312,2.6212,2.6313,2.621,2.5569,2.5038,2.4847,2.4837,2.4853,2.4845,2.4623,2.4649,2.4676,2.4516,2.4497,2.389,2.304,2.288,2.2496,2.1381,2.0428,2.0084,1.9544,1.7998,1.6762,1.6024,1.5113,1.4238,4.6332,4.5782,4.2817,4.1251,4.0309,3.7738,3.6405,3.5745,3.5349,3.5204,3.5191,3.5191,3.5151,3.5177,3.491,3.467,3.4429,3.4202,3.4054,3.4014,3.3921,3.3814,3.3614,3.3429,3.3467,3.3455,3.344,3.3454,3.3455,3.3442,3.3389,3.3389,3.3389,3.3389,3.3389,3.3389,3.3389,3.336,3.312,3.2998,3.2904,3.2688,3.2369,3.2142,3.1767,3.1089,3.0287,2.9797,2.9379,2.8326,2.8259,2.8232,2.8219,2.8213,2.8213,2.8213,2.8213,2.8213,2.8213,2.8213,2.8213,2.8213,2.8213,2.8213,2.82,2.8194,2.8181,2.8146,2.82,2.8005,2.7797,2.7563,2.7496,2.7517,2.7552,2.7464,2.7369,2.7764,2.7928,2.7243,2.7028,2.6774,2.6547,2.6426,2.6426,2.64,2.64,2.636,2.6319,2.635,2.6241,2.5943,2.5441,2.5027,2.5063,2.513,2.513,2.5096,2.5152,2.5138,2.4805,2.4727,2.4722,2.4457,2.4082,2.4204,2.4315,2.3503,2.2593,2.1784,2.0627,1.8899,1.7327,1.631,1.5361,4.7959,4.5563,4.4575,4.3921,4.3089,4.0378,3.8848,3.8303,3.6189,3.5678,3.5322,3.5322,3.5375,3.5296,3.5373,3.5057,3.4936,3.4669,3.4495,3.4216,3.4203,3.4176,3.3976,3.3656,3.3574,3.3668,3.3521,3.3547,3.3668,3.3549,3.3389,3.3402,3.3429,3.3389,3.3427,3.3402,3.3389,3.3335,3.3158,3.3038,3.2959,3.2784,3.2594,3.2433,3.1968,3.1246,3.0457,3.0047,2.9544,2.897,2.8644,2.8465,2.8251,2.8192,2.8213,2.8213,2.8213,2.8213,2.8213,2.8213,2.8213,2.8213,2.8213,2.8213,2.8213,2.8213,2.8213,2.8213,2.82,2.8138,2.8058,2.8031,2.7959,2.7945,2.798,2.8014,2.7993,2.8088,2.8063,2.7899,2.7612,2.7308,2.6794,2.6714,2.6633,2.6466,2.64,2.64,2.6399,2.6405,2.6278,2.6105,2.5974,2.5569,2.5381,2.5457,2.5497,2.5524,2.5625,2.5646,2.5312,2.5159,2.5211,2.5232,2.5175,2.5403,2.5575,2.5411,2.4259,2.3729,2.3134,2.1556,1.9908,1.8338,1.6895,5.1435,4.9363,4.7888,4.6924,4.5986,4.3313,4.1822,4.124,3.9806,3.9011,3.8985,3.9011,3.8326,3.7156,3.7052,3.6499,3.5186,3.4869,3.4629,3.4402,3.4429,3.4442,3.427,3.4016,3.3923,3.4029,3.3909,3.3895,3.3855,3.3855,3.3788,3.3641,3.3627,3.3654,3.3587,3.3469,3.3389,3.34,3.3267,3.3187,3.3146,3.3064,3.2784,3.2581,3.2115,3.1487,3.0658,3.0457,3.0021,2.9521,2.9164,2.8748,2.8305,2.8195,2.8192,2.8213,2.8213,2.8213,2.8213,2.8213,2.8213,2.8213,2.8213,2.8213,2.8213,2.8213,2.8213,2.8213,2.8213,2.82,2.8213,2.82,2.8213,2.8213,2.8213,2.8213,2.8207,2.8205,2.8196,2.8135,2.7848,2.7483,2.7201,2.7054,2.6881,2.6707,2.6627,2.66,2.64,2.6386,2.6359,2.6291,2.6339,2.6163,2.5816,2.5778,2.5844,2.5925,2.6045,2.6052,2.5919,2.5826,2.5768,2.5682,2.557,2.5832,2.5965,2.5831,2.5738,2.5184,2.4481,2.3734,2.2705,2.109,1.9684,5.472,5.38,5.1343,4.9962,4.889,4.6209,4.473,4.442,4.3603,4.2608,4.3242,4.3318,4.1451,4.0286,3.99,3.8177,3.6303,3.5612,3.5722,3.4629,3.4762,3.471,3.4523,3.447,3.443,3.4417,3.427,3.4175,3.4162,3.4189,3.4083,3.3975,3.3948,3.3895,3.3828,3.3641,3.348,3.3402,3.3362,3.3349,3.3374,3.3334,3.3118,3.2741,3.2356,3.1821,3.1152,3.0858,3.0547,2.9958,2.9673,2.9184,2.8672,2.8284,2.8205,2.8226,2.8213,2.8213,2.8213,2.8213,2.8226,2.8253,2.8293,2.8236,2.822,2.8262,2.8278,2.8217,2.8203,2.8213,2.8213,2.8213,2.8213,2.8213,2.8213,2.8213,2.8213,2.82,2.8184,2.8167,2.8009,2.7724,2.7502,2.7342,2.7155,2.6961,2.6881,2.6754,2.6573,2.64,2.6366,2.6346,2.6389,2.6496,2.6258,2.6339,2.6379,2.6393,2.6486,2.6486,2.65,2.6487,2.6354,2.5988,2.5922,2.614,2.6238,2.6125,2.6058,2.6065,2.5785,2.5041,2.4323,2.3631,2.2364,5.4492,5.3927,5.3137,5.249,5.1564,4.8717,4.7224,4.6443,4.4624,4.3369,4.3563,4.3394,4.347,4.2684,4.2633,4.1071,3.9021,3.8439,3.7469,3.5917,3.5752,3.5723,3.5891,3.5577,3.5343,3.491,3.4656,3.4456,3.4482,3.4429,3.4376,3.4256,3.4203,3.4135,3.3961,3.3826,3.3601,3.3415,3.3389,3.3389,3.3389,3.3362,3.3253,3.2891,3.2596,3.2115,3.162,3.1226,3.0757,3.0011,2.9861,2.9766,2.946,2.893,2.8532,2.8312,2.8272,2.8299,2.8286,2.8232,2.8339,2.8486,2.8567,2.8459,2.8362,2.8438,2.8446,2.8297,2.8228,2.8213,2.8213,2.8213,2.8213,2.8213,2.8213,2.8213,2.8213,2.82,2.8186,2.8177,2.8087,2.8005,2.7804,2.7609,2.7462,2.7255,2.7108,2.6987,2.6814,2.6573,2.642,2.6407,2.6399,2.656,2.6633,2.6887,2.7041,2.6961,2.7001,2.7001,2.7028,2.7115,2.6941,2.6507,2.6267,2.6313,2.6366,2.6339,2.6353,2.6346,2.6274,2.6248,2.5681,2.5018,2.4384,5.4322,5.3672,5.3463,5.313,5.2452,5.0919,5.0152,4.9903,4.8303,4.7641,4.7713,4.7548,4.6626,4.5753,4.5427,4.39,4.1962,4.1348,4.0554,3.9436,3.9399,3.9399,3.8908,3.8028,3.7444,3.6851,3.577,3.4801,3.4802,3.4803,3.467,3.4523,3.4416,3.4216,3.4042,3.3774,3.3601,3.3402,3.3389,3.3389,3.3389,3.3389,3.3253,3.3011,3.2717,3.23,3.1767,3.1383,3.1006,3.0607,3.0423,3.0314,3.0056,2.9668,2.9072,2.8724,2.8612,2.8612,2.8604,2.8604,2.8698,2.8783,2.8845,2.8841,2.8778,2.8798,2.87,2.8478,2.8239,2.8213,2.8213,2.8213,2.8213,2.8213,2.8213,2.8213,2.8213,2.8213,2.8213,2.8213,2.816,2.8098,2.8058,2.7911,2.777,2.7596,2.7382,2.7215,2.7068,2.68,2.6553,2.68,2.6827,2.68,2.6987,2.7222,2.7443,2.7429,2.7416,2.7416,2.7389,2.7403,2.7262,2.6974,2.6821,2.6653,2.646,2.6406,2.6486,2.6593,2.6573,2.6587,2.6698,2.6394,2.5746,5.4141,5.3502,5.3326,5.3052,5.2656,5.2148,5.2035,5.2241,5.1523,5.126,5.1875,5.1333,4.9978,4.8638,4.7879,4.6744,4.4279,4.4127,4.3647,4.2811,4.2735,4.3065,4.2531,4.14,3.972,3.8493,3.7387,3.5608,3.5002,3.503,3.5017,3.4843,3.4563,3.4362,3.4215,3.3828,3.3561,3.3389,3.3389,3.3389,3.3389,3.3375,3.3307,3.3091,3.281,3.2449,3.2088,3.1677,3.141,3.1169,3.0979,3.0791,3.0587,3.0283,2.9851,2.9437,2.9161,2.9015,2.8975,2.8961,2.8996,2.9202,2.9143,2.9227,2.9285,2.9158,2.8926,2.8636,2.8438,2.8245,2.8205,2.8213,2.8213,2.8213,2.8213,2.8213,2.8213,2.8213,2.8213,2.8213,2.8213,2.8186,2.8112,2.8098,2.7978,2.785,2.7649,2.7516,2.7328,2.6991,2.6885,2.729,2.7378,2.7215,2.7281,2.7449,2.7643,2.771,2.7697,2.7697,2.763,2.759,2.7477,2.7417,2.7215,2.7041,2.6747,2.6593,2.678,2.6901,2.6907,2.6967,2.7118,2.7277,2.6991,5.4017,5.3842,5.3105,5.2729,5.2578,5.1831,5.1519,5.1597,5.1479,5.1421,5.1597,5.144,5.1158,5.0725,5.0676,4.9223,4.7606,4.6818,4.5953,4.4606,4.4228,4.4228,4.3571,4.3141,4.1297,3.9771,3.8767,3.7351,3.5715,3.5164,3.5164,3.503,3.475,3.4563,3.4229,3.3868,3.3694,3.3442,3.3389,3.3389,3.3389,3.3389,3.3349,3.328,3.3091,3.2864,3.2637,3.2211,3.188,3.163,3.1326,3.1136,3.0992,3.0825,3.0679,3.0301,2.9717,2.9001,2.9095,2.9188,2.9357,2.9624,2.9619,2.9615,2.9646,2.9455,2.9078,2.8623,2.8564,2.8452,2.8299,2.824,2.8213,2.8219,2.8245,2.8224,2.8203,2.8291,2.8299,2.8211,2.8203,2.8205,2.8186,2.8186,2.8173,2.8045,2.7917,2.7783,2.7635,2.7364,2.715,2.7497,2.7714,2.7576,2.7495,2.7676,2.7817,2.7938,2.7938,2.7938,2.7898,2.7865,2.7982,2.7888,2.7664,2.7482,2.7288,2.7202,2.7229,2.7208,2.7201,2.7375,2.7589,2.7743,2.785,5.3256,5.3197,5.2598,5.2363,5.2285,5.1675,5.1558,5.1719,5.1519,5.1538,5.1699,5.1499,5.1397,5.1397,5.1397,5.0774,4.9806,4.9561,4.9125,4.7953,4.7631,4.7712,4.7167,4.4883,4.2353,4.1323,3.8597,3.6321,3.5375,3.5256,3.5137,3.495,3.4682,3.4336,3.4095,3.3774,3.3574,3.3415,3.3389,3.3389,3.3389,3.3389,3.3389,3.3375,3.3133,3.3026,3.2917,3.2637,3.2289,3.2046,3.1797,3.1613,3.1403,3.1186,3.0999,3.0969,3.0448,3.0007,2.986,2.9927,3.0047,3.0127,3.0181,3.0242,3.0111,2.9735,2.9402,2.9152,2.8916,2.8724,2.8484,2.8438,2.8425,2.8425,2.8425,2.8334,2.8313,2.8374,2.8417,2.8294,2.8201,2.8203,2.8205,2.82,2.82,2.8138,2.8085,2.8018,2.7978,2.7909,2.7722,2.7645,2.784,2.789,2.7837,2.7863,2.7991,2.8072,2.8085,2.8085,2.8125,2.8175,2.8197,2.8197,2.802,2.7857,2.7764,2.7576,2.7403,2.7436,2.7529,2.769,2.785,2.7965,2.8058,5.25,5.2338,5.2168,5.209,5.2051,5.1621,5.1577,5.1836,5.1538,5.1597,5.1758,5.1558,5.1397,5.1397,5.1397,5.1256,5.1304,5.1397,5.1397,5.1397,5.1397,5.1085,4.9856,4.7042,4.5209,4.4228,4.1553,3.8559,3.6831,3.6267,3.6052,3.4893,3.4509,3.4202,3.3881,3.3614,3.3402,3.3402,3.3389,3.3389,3.3389,3.3389,3.3389,3.3322,3.3227,3.3093,3.3064,3.2837,3.2605,3.2485,3.2155,3.1931,3.1757,3.1503,3.1356,3.1303,3.1032,3.0832,3.0635,3.0595,3.0711,3.0725,3.0711,3.0688,3.0377,2.9962,2.9606,2.9459,2.9392,2.9077,2.8796,2.8689,2.8689,2.8689,2.8689,2.8572,2.8486,2.8618,2.8532,2.8321,2.8236,2.8278,2.8245,2.8226,2.82,2.82,2.8213,2.8213,2.82,2.8186,2.8079,2.7907,2.7966,2.8072,2.8045,2.8058,2.8152,2.8213,2.8213,2.8213,2.8213,2.8213,2.8194,2.8186,2.8213,2.8146,2.7965,2.775,2.7576,2.7737,2.7871,2.7951,2.8072,2.8152,2.8213,5.1894,5.1538,5.1933,5.207,5.2056,5.1597,5.1421,5.1519,5.1416,5.1416,5.1499,5.1421,5.1397,5.1397,5.1397,5.1397,5.1397,5.1397,5.1397,5.1397,5.1397,5.1397,5.07,4.9929,4.8737,4.7017,4.4396,4.1962,4.0106,3.8985,3.7374,3.5166,3.4755,3.4265,3.3881,3.3587,3.3442,3.3429,3.344,3.3389,3.3389,3.3389,3.3389,3.3389,3.3362,3.3349,3.336,3.3118,3.2967,3.2897,3.25,3.2209,3.2112,3.1821,3.165,3.1634,3.1554,3.1353,3.1169,3.0996,3.0969,3.1066,3.1079,3.0955,3.0591,3.0671,3.0314,2.9753,2.9806,2.9606,2.925,2.901,2.9143,2.9143,2.9183,2.9052,2.8978,2.8932,2.8803,2.8421,2.8305,2.8369,2.8299,2.8259,2.8213,2.8213,2.8213,2.8213,2.8213,2.82,2.82,2.8119,2.8133,2.8165,2.8165,2.8213,2.8213,2.8213,2.8213,2.8213,2.8213,2.8213,2.8213,2.8213,2.8213,2.8213,2.82,2.7991,2.7924,2.8093,2.8186,2.8138,2.8125,2.8165,2.8213,5.1558,5.1421,5.1621,5.1655,5.166,5.1479,5.1397,5.1397,5.1397,5.1397,5.1397,5.1397,5.1397,5.1397,5.1397,5.1397,5.1397,5.1397,5.1397,5.1397,5.1397,5.1397,5.1017,4.988,4.8244,4.7316,4.5953,4.4405,4.2089,4.1783,3.9867,3.7786,3.5896,3.4436,3.3961,3.3918,3.375,3.3715,3.3571,3.3389,3.3389,3.3389,3.3389,3.3389,3.3389,3.3389,3.3362,3.3307,3.3273,3.3148,3.2819,3.2632,3.2469,3.2139,3.1981,3.1941,3.1834,3.1687,3.158,3.142,3.142,3.1396,3.1306,3.1106,3.0849,3.0875,3.0702,3.0434,3.0341,3.0181,2.9976,2.9882,2.9909,2.982,2.9695,2.9575,2.9464,2.9393,2.9312,2.9038,2.8705,2.8537,2.8425,2.8312,2.8245,2.8213,2.8213,2.8213,2.8213,2.8213,2.8213,2.8213,2.8213,2.8213,2.8213,2.8213,2.8213,2.8213,2.8213,2.8213,2.8213,2.8213,2.8213,2.8213,2.8213,2.8213,2.8213,2.8213,2.82,2.82,2.82,2.82,2.82,2.8226,2.8219,5.1397,5.1397,5.1397,5.1397,5.1397,5.1397,5.1397,5.1397,5.1397,5.1397,5.1397,5.1397,5.1397,5.1397,5.1397,5.1397,5.1397,5.1397,5.1397,5.1397,5.1397,5.1397,5.0749,4.9978,4.9199,4.8052,4.6968,4.5728,4.4573,4.4505,4.2756,4.0419,3.8306,3.7166,3.5494,3.5064,3.4997,3.5069,3.4049,3.3611,3.3561,3.3429,3.3389,3.3389,3.3389,3.3389,3.3389,3.3374,3.3357,3.3259,3.3098,3.2915,3.275,3.256,3.2337,3.2219,3.2088,3.1979,3.1952,3.1791,3.1754,3.1744,3.153,3.141,3.1303,3.1156,3.1059,3.0755,3.0808,3.0832,3.0587,3.0444,3.0417,3.0314,3.0261,3.0139,2.9945,2.9843,2.9824,2.9717,2.9351,2.9032,2.8724,2.8612,2.8419,2.8312,2.8213,2.8213,2.8213,2.8213,2.8213,2.8213,2.8213,2.8213,2.8213,2.8213,2.8213,2.8213,2.8213,2.8213,2.8213,2.8226,2.8213,2.8213,2.8213,2.8213,2.8213,2.8192,2.8213,2.82,2.8226,2.8219,2.8312,2.8339,2.8326,5.1397,5.1397,5.1397,5.1397,5.1397,5.1397,5.1397,5.1397,5.1397,5.1397,5.1397,5.1397,5.1397,5.1397,5.1397,5.1397,5.1397,5.1397,5.1397,5.1397,5.1397,5.1397,5.1304,5.0895,5.0462,5.1134,5.0144,4.8688,4.7334,4.7291,4.565,4.3926,4.2436,4.1097,3.8621,3.8293,3.8293,3.7911,3.5585,3.455,3.4253,3.3874,3.3402,3.3389,3.3389,3.3389,3.3389,3.3389,3.3399,3.3345,3.3108,3.2977,3.2984,3.2877,3.2729,3.2592,3.2541,3.2514,3.2514,3.2008,3.1941,3.2062,3.1888,3.1781,3.1727,3.162,3.145,3.1169,3.1129,3.1076,3.0915,3.0808,3.0858,3.0845,3.0768,3.0688,3.0501,3.0289,3.0261,3.0335,3.0039,2.97,2.9263,2.8916,2.8644,2.8465,2.8259,2.8213,2.824,2.8213,2.8213,2.8213,2.8213,2.8213,2.8213,2.8213,2.8213,2.8213,2.8232,2.8286,2.8299,2.8312,2.8286,2.8219,2.8213,2.8213,2.8192,2.8192,2.8259,2.8339,2.8272,2.8299,2.8385,2.8492,2.8519,5.1397,5.1397,5.1397,5.1397,5.1397,5.1397,5.1397,5.1397,5.1397,5.1397,5.1397,5.1397,5.1397,5.1397,5.1397,5.1397,5.1397,5.1397,5.1397,5.1397,5.1397,5.1397,5.1397,5.1397,5.1397,5.1397,5.128,5.1153,5.0051,4.9795,4.8385,4.6669,4.581,4.4387,4.2295,4.1375,4.1136,4.0748,3.8535,3.6546,3.6292,3.4715,3.3525,3.355,3.3525,3.3389,3.3389,3.3389,3.3389,3.3389,3.3165,3.319,3.3225,3.3159,3.3087,3.2884,3.2743,3.2594,3.2581,3.2367,3.2353,3.2356,3.2302,3.2246,3.2286,3.2062,3.1837,3.1664,3.1543,3.1513,3.142,3.1406,3.1406,3.1366,3.131,3.1232,3.1092,3.0835,3.0713,3.0861,3.0749,3.007,2.9553,2.9317,2.9085,2.8818,2.8639,2.8393,2.8326,2.8232,2.8192,2.8213,2.8213,2.8213,2.8226,2.8326,2.8412,2.8465,2.8478,2.8484,2.8492,2.8465,2.8329,2.8268,2.823,2.8213,2.8299,2.8385,2.8452,2.8478,2.8532,2.8612,2.8751,2.8823,2.8836,5.1397,5.1397,5.1397,5.1397,5.1397,5.1397,5.1397,5.1397,5.1397,5.1397,5.1397,5.1397,5.1397,5.1397,5.1397,5.1397,5.1397,5.1397,5.1397,5.1397,5.1397,5.1397,5.1397,5.1397,5.1397,5.1416,5.1558,5.1523,5.1153,5.1504,5.0498,4.9187,4.8712,4.7892,4.6232,4.5275,4.4269,4.3531,4.1442,3.943,3.8546,3.6941,3.4919,3.4596,3.4111,3.3389,3.3389,3.3389,3.3389,3.3389,3.3389,3.3389,3.3397,3.3366,3.3295,3.3102,3.3011,3.2891,3.2891,3.2891,3.2891,3.2877,3.2741,3.2661,3.2661,3.2436,3.2235,3.2075,3.2021,3.1928,3.1861,3.1861,3.1821,3.1767,3.1671,3.1618,3.1477,3.1196,3.1169,3.1344,3.1141,3.0464,2.9913,2.9713,2.9526,2.9272,2.901,2.8799,2.8545,2.8417,2.8385,2.8419,2.8438,2.8484,2.8524,2.8585,2.8657,2.8738,2.8751,2.8751,2.8729,2.8738,2.8526,2.839,2.8494,2.8564,2.8572,2.8625,2.8738,2.8858,2.8986,2.9058,2.9157,2.9121,2.9095,5.1397,5.1397,5.1397,5.1397,5.1397,5.1397,5.1397,5.1397,5.1397,5.1397,5.1397,5.1397,5.1397,5.1397,5.1397,5.1397,5.146,5.146,5.1416,5.146,5.1499,5.146,5.1416,5.1397,5.1397,5.1558,5.168,5.1641,5.146,5.166,5.1445,5.1187,5.07,5.0291,4.9437,4.8478,4.7407,4.6373,4.421,4.2557,4.1645,3.9183,3.778,3.6938,3.5653,3.446,3.4037,3.375,3.3475,3.3389,3.3389,3.3389,3.3375,3.3389,3.3375,3.3387,3.336,3.332,3.3293,3.328,3.3293,3.3187,3.2917,3.2864,3.2837,3.2757,3.2543,3.2409,3.2342,3.2262,3.2171,3.2144,3.2118,3.2035,3.1915,3.1834,3.1733,3.165,3.1638,3.1574,3.1316,3.0862,3.0501,3.0247,3.0007,2.9887,2.97,2.9593,2.9299,2.8771,2.8753,2.8818,2.8836,2.8838,2.8873,2.8836,2.8938,2.9018,2.9023,2.9037,2.9023,2.8988,2.8825,2.8763,2.89,2.8921,2.881,2.8925,2.9103,2.9232,2.9299,2.9419,2.9464,2.933,2.929,5.1397,5.1397,5.1397,5.1397,5.1397,5.1397,5.1397,5.1397,5.1397,5.1397,5.1397,5.1397,5.1397,5.1397,5.1397,5.1397,5.1519,5.166,5.1597,5.1597,5.1641,5.1597,5.1519,5.1397,5.1397,5.146,5.1538,5.1641,5.146,5.1616,5.1597,5.1372,5.1397,5.1397,5.111,5.0584,5.0045,4.8987,4.6481,4.559,4.4268,4.1876,4.0846,3.9724,3.7687,3.6509,3.6099,3.4435,3.39,3.3575,3.3464,3.3389,3.3389,3.3389,3.3375,3.3389,3.3375,3.3375,3.3389,3.3389,3.3389,3.3389,3.32,3.3227,3.3187,3.3051,3.2824,3.2717,3.265,3.2583,3.2503,3.2449,3.2436,3.2369,3.2262,3.211,3.2046,3.2067,3.2019,3.173,3.1472,3.1223,3.0889,3.0702,3.0465,3.0434,3.0354,3.0234,2.9962,2.9406,2.9189,2.9242,2.9395,2.9462,2.9157,2.9041,2.9192,2.9285,2.9366,2.9432,2.9446,2.9362,2.9171,2.9188,2.9391,2.9249,2.8996,2.9183,2.9513,2.9513,2.9566,2.97,2.9744,2.9637,2.9557,5.0913,5.0957,5.1109,5.1245,5.1377,5.1397,5.1397,5.1397,5.1397,5.1397,5.1397,5.1397,5.1397,5.1397,5.1397,5.1397,5.144,5.1577,5.1597,5.1558,5.1738,5.1577,5.146,5.1397,5.1397,5.144,5.1538,5.1655,5.1455,5.1397,5.1397,5.1397,5.1397,5.1397,5.1304,5.1168,5.1027,5.0233,4.9137,4.8311,4.6754,4.4888,4.3894,4.2911,4.0586,3.9383,3.8709,3.6429,3.5143,3.4571,3.4361,3.3389,3.3389,3.3389,3.3389,3.3389,3.3389,3.3389,3.3389,3.3389,3.3389,3.3389,3.3389,3.3362,3.3322,3.3227,3.3066,3.2971,3.2944,3.2891,3.2835,3.2768,3.2768,3.2768,3.2588,3.2445,3.2432,3.2456,3.2232,3.1907,3.1638,3.1376,3.1196,3.1026,3.0865,3.0715,3.0635,3.0595,3.0326,2.988,2.9748,2.9784,2.9989,3.0132,2.9757,2.9517,2.9744,2.9922,2.9922,2.9962,2.9922,2.9771,2.9606,2.9726,2.9931,2.9761,2.9588,2.9708,2.9909,2.9896,2.9896,3.0029,3.0087,3.006,2.998,5.0219,5.0278,5.0625,5.1011,5.1323,5.1382,5.1397,5.1397,5.1397,5.1397,5.1397,5.1397,5.1397,5.1397,5.1397,5.1397,5.146,5.1601,5.1621,5.1416,5.1616,5.1558,5.146,5.1397,5.1397,5.1558,5.166,5.1636,5.1455,5.1397,5.1397,5.1397,5.1397,5.1397,5.1397,5.1397,5.1245,5.0866,5.0566,5.0132,4.9627,4.814,4.6549,4.6054,4.407,4.2075,4.135,3.9684,3.7548,3.6578,3.5097,3.3533,3.3375,3.3389,3.3389,3.3389,3.3389,3.3389,3.3389,3.3389,3.3389,3.3389,3.3389,3.3389,3.3349,3.3335,3.3227,3.3173,3.3145,3.3106,3.3078,3.3038,3.3038,3.3011,3.2919,3.2803,3.2815,3.2759,3.2594,3.2265,3.1886,3.165,3.141,3.1263,3.1236,3.1009,3.0955,3.0969,3.0812,3.0431,3.028,3.0301,3.037,3.0501,3.0406,3.0261,3.0501,3.0604,3.0484,3.0444,3.039,3.0247,3.0078,3.0217,3.0371,3.0419,3.0355,3.0346,3.027,3.0217,3.0234,3.0364,3.0417,3.0444,3.0381,5.0199,5.0238,5.0625,5.0855,5.0996,5.1284,5.1397,5.1397,5.1397,5.1397,5.1397,5.1397,5.1397,5.1397,5.1397,5.1397,5.146,5.1597,5.166,5.1641,5.168,5.1577,5.1436,5.1397,5.1397,5.1416,5.1499,5.1558,5.1416,5.1397,5.1397,5.1397,5.1397,5.1397,5.1397,5.1397,5.1299,5.1187,5.1167,5.103,5.0556,5.0163,4.9167,4.8408,4.6735,4.523,4.4129,4.23,3.985,3.7814,3.4918,3.3656,3.3387,3.3375,3.3389,3.3389,3.3389,3.3389,3.3389,3.3389,3.3389,3.3389,3.3389,3.3389,3.3389,3.3389,3.3362,3.3347,3.332,3.332,3.3282,3.3293,3.3267,3.324,3.3213,3.3187,3.3146,3.3058,3.2942,3.26,3.2195,3.1917,3.1677,3.157,3.1554,3.1527,3.1513,3.151,3.1477,3.1206,3.0879,3.0828,3.0698,3.0753,3.0751,3.0845,3.0955,3.0915,3.0778,3.0791,3.0795,3.0652,3.0459,3.0654,3.079,3.0794,3.0757,3.0698,3.0621,3.0515,3.0568,3.0684,3.0805,3.0822,3.0768,4.9613,4.9715,5.0297,5.0762,5.1069,5.1323,5.1397,5.1397,5.1397,5.1397,5.1397,5.1397,5.1397,5.1397,5.1397,5.1397,5.1436,5.1636,5.1577,5.1558,5.1621,5.1558,5.1479,5.1397,5.1397,5.1397,5.1397,5.1397,5.1397,5.1397,5.1397,5.1397,5.1397,5.1397,5.1397,5.1397,5.1397,5.1377,5.1397,5.124,5.103,5.0816,5.0699,5.0012,4.9296,4.8065,4.711,4.5463,4.3431,4.0784,3.8096,3.4803,3.4043,3.3584,3.3534,3.3429,3.3389,3.3389,3.3389,3.3389,3.3389,3.3389,3.3389,3.3389,3.3389,3.3389,3.3389,3.3374,3.3374,3.3349,3.3349,3.3335,3.3335,3.3309,3.3334,3.3307,3.3276,3.3242,3.3081,3.2846,3.253,3.2329,3.2155,3.2142,3.2126,3.2126,3.2099,3.1915,3.1882,3.1735,3.147,3.1293,3.1146,3.1019,3.1009,3.1116,3.1276,3.1183,3.1062,3.0969,3.0929,3.0899,3.0876,3.0982,3.1042,3.1042,3.1005,3.0982,3.0849,3.0702,3.0822,3.0982,3.1089,3.1183,3.1169,4.8949,4.9086,4.9809,5.0566,5.1265,5.1323,5.1338,5.1401,5.1397,5.1397,5.1397,5.1397,5.1397,5.1397,5.1397,5.1397,5.1416,5.1499,5.144,5.1397,5.1416,5.1436,5.1436,5.1397,5.1397,5.1397,5.1397,5.1397,5.1397,5.1397,5.1397,5.1397,5.1397,5.1397,5.1397,5.1397,5.1397,5.1397,5.1397,5.1397,5.1377,5.1377,5.1265,5.1148,5.105,5.0879,4.9872,4.8748,4.7021,4.4407,4.1208,3.7367,3.5087,3.4378,3.3938,3.382,3.3389,3.3389,3.3389,3.3389,3.3389,3.3389,3.3389,3.3389,3.3389,3.3389,3.3389,3.3389,3.3389,3.3389,3.3389,3.3389,3.3389,3.3389,3.3389,3.3389,3.3382,3.3387,3.3206,3.3,3.2837,3.2661,3.2594,3.2594,3.2594,3.2607,3.2541,3.238,3.2182,3.1872,3.1598,3.1554,3.1464,3.1387,3.1303,3.137,3.154,3.154,3.142,3.1219,3.1102,3.1176,3.1232,3.1229,3.1289,3.1299,3.1299,3.1276,3.1116,3.0969,3.1139,3.1313,3.134,3.1447,3.158,4.9105,4.9414,4.9566,5.0113,5.0835,5.0937,5.1089,5.1358,5.1377,5.1397,5.1397,5.1397,5.1397,5.1397,5.1397,5.1397,5.1397,5.1397,5.1397,5.1397,5.1397,5.1397,5.1397,5.1397,5.1397,5.1377,5.1382,5.1401,5.1362,5.1358,5.1377,5.1401,5.1377,5.1397,5.1397,5.1397,5.1397,5.1397,5.1397,5.1397,5.1397,5.1343,5.1167,5.1128,5.1167,5.1011,5.0638,5.0291,4.8705,4.6425,4.3597,3.9458,3.7009,3.5892,3.5313,3.3874,3.3429,3.3389,3.3389,3.3389,3.3389,3.3389,3.3389,3.3389,3.3389,3.3389,3.3389,3.3389,3.3389,3.3389,3.3389,3.3389,3.3389,3.3389,3.3389,3.3389,3.3385,3.3357,3.3278,3.312,3.2998,3.2824,3.2677,3.2701,3.2714,3.2714,3.2703,3.2543,3.2318,3.2037,3.1771,3.1792,3.1822,3.1718,3.1607,3.1607,3.1701,3.1754,3.1767,3.162,3.153,3.162,3.1623,3.1517,3.153,3.1567,3.158,3.149,3.1513,3.1406,3.1513,3.1631,3.162,3.1607,3.1674]}]]